<?xml version="1.0" encoding="UTF-8" standalone="no" ?>
<gpx xmlns="http://www.topografix.com/GPX/1/1" xmlns:xsi="http://www.w3.org/2001/XMLSchema-instance" xsi:schemaLocation="http://www.topografix.com/GPX/1/1 http://www.topografix.com/GPX/1/1/gpx.xsd" version="1.1" creator="VisuGPX - https://www.visugpx.com">
  <metadata>
    <name>11-FEV-21 reco charavines 001</name>
  </metadata>
  <trk>
    <name><![CDATA[11-FEV-21 reco charavines 001]]></name>
    <extensions>
      <line xmlns="http://www.topografix.com/GPX/gpx_style/0/2">
        <color>0000FF</color>
        <width>4</width>
      </line>
    </extensions>
    <trkseg>
      <trkpt lat="45.43217" lon="5.516">
        <ele>419.75</ele>
        <time>2021-02-11T09:54:16Z</time>
      </trkpt>
      <trkpt lat="45.43217" lon="5.516">
        <ele>424.56</ele>
        <time>2021-02-11T09:54:18Z</time>
      </trkpt>
      <trkpt lat="45.43216" lon="5.51602">
        <ele>429.37</ele>
        <time>2021-02-11T09:54:20Z</time>
      </trkpt>
      <trkpt lat="45.43216" lon="5.51601">
        <ele>460.61</ele>
        <time>2021-02-11T09:54:36Z</time>
      </trkpt>
      <trkpt lat="45.43216" lon="5.51601">
        <ele>464.45</ele>
        <time>2021-02-11T09:54:39Z</time>
      </trkpt>
      <trkpt lat="45.43216" lon="5.51602">
        <ele>468.3</ele>
        <time>2021-02-11T09:54:42Z</time>
      </trkpt>
      <trkpt lat="45.43216" lon="5.51602">
        <ele>471.66</ele>
        <time>2021-02-11T09:54:45Z</time>
      </trkpt>
      <trkpt lat="45.43216" lon="5.51603">
        <ele>475.03</ele>
        <time>2021-02-11T09:54:49Z</time>
      </trkpt>
      <trkpt lat="45.43215" lon="5.51604">
        <ele>478.39</ele>
        <time>2021-02-11T09:54:53Z</time>
      </trkpt>
      <trkpt lat="45.43215" lon="5.51604">
        <ele>479.35</ele>
        <time>2021-02-11T09:54:55Z</time>
      </trkpt>
      <trkpt lat="45.43215" lon="5.51604">
        <ele>484.64</ele>
        <time>2021-02-11T09:54:59Z</time>
      </trkpt>
      <trkpt lat="45.43218" lon="5.51604">
        <ele>491.85</ele>
        <time>2021-02-11T09:55:04Z</time>
      </trkpt>
      <trkpt lat="45.43218" lon="5.51604">
        <ele>481.76</ele>
        <time>2021-02-11T09:55:05Z</time>
      </trkpt>
      <trkpt lat="45.43218" lon="5.51604">
        <ele>491.85</ele>
        <time>2021-02-11T09:55:06Z</time>
      </trkpt>
      <trkpt lat="45.43218" lon="5.51604">
        <ele>456.28</ele>
        <time>2021-02-11T09:55:07Z</time>
      </trkpt>
      <trkpt lat="45.43219" lon="5.51605">
        <ele>520.69</ele>
        <time>2021-02-11T09:55:08Z</time>
      </trkpt>
      <trkpt lat="45.43219" lon="5.51605">
        <ele>475.51</ele>
        <time>2021-02-11T09:55:09Z</time>
      </trkpt>
      <trkpt lat="45.43219" lon="5.51605">
        <ele>488.49</ele>
        <time>2021-02-11T09:55:10Z</time>
      </trkpt>
      <trkpt lat="45.43219" lon="5.51606">
        <ele>508.19</ele>
        <time>2021-02-11T09:55:11Z</time>
      </trkpt>
      <trkpt lat="45.43219" lon="5.51605">
        <ele>492.33</ele>
        <time>2021-02-11T09:55:12Z</time>
      </trkpt>
      <trkpt lat="45.4322" lon="5.51604">
        <ele>486.56</ele>
        <time>2021-02-11T09:55:14Z</time>
      </trkpt>
      <trkpt lat="45.43217" lon="5.51603">
        <ele>495.7</ele>
        <time>2021-02-11T09:55:38Z</time>
      </trkpt>
      <trkpt lat="45.43216" lon="5.51604">
        <ele>496.66</ele>
        <time>2021-02-11T09:55:58Z</time>
      </trkpt>
      <trkpt lat="45.43217" lon="5.51601">
        <ele>499.06</ele>
        <time>2021-02-11T09:56:29Z</time>
      </trkpt>
      <trkpt lat="45.43217" lon="5.51599">
        <ele>499.06</ele>
        <time>2021-02-11T09:56:32Z</time>
      </trkpt>
      <trkpt lat="45.43219" lon="5.51598">
        <ele>498.58</ele>
        <time>2021-02-11T09:56:43Z</time>
      </trkpt>
      <trkpt lat="45.43227" lon="5.51599">
        <ele>499.06</ele>
        <time>2021-02-11T09:56:54Z</time>
      </trkpt>
      <trkpt lat="45.43236" lon="5.51605">
        <ele>499.06</ele>
        <time>2021-02-11T09:57:10Z</time>
      </trkpt>
      <trkpt lat="45.43238" lon="5.51607">
        <ele>499.06</ele>
        <time>2021-02-11T09:57:12Z</time>
      </trkpt>
      <trkpt lat="45.43243" lon="5.51611">
        <ele>494.74</ele>
        <time>2021-02-11T09:57:16Z</time>
      </trkpt>
      <trkpt lat="45.43244" lon="5.51611">
        <ele>502.91</ele>
        <time>2021-02-11T09:57:17Z</time>
      </trkpt>
      <trkpt lat="45.43245" lon="5.51612">
        <ele>499.54</ele>
        <time>2021-02-11T09:57:18Z</time>
      </trkpt>
      <trkpt lat="45.43247" lon="5.51614">
        <ele>499.06</ele>
        <time>2021-02-11T09:57:21Z</time>
      </trkpt>
      <trkpt lat="45.43266" lon="5.51628">
        <ele>499.06</ele>
        <time>2021-02-11T09:57:36Z</time>
      </trkpt>
      <trkpt lat="45.43277" lon="5.51633">
        <ele>491.37</ele>
        <time>2021-02-11T09:57:47Z</time>
      </trkpt>
      <trkpt lat="45.43278" lon="5.51633">
        <ele>506.27</ele>
        <time>2021-02-11T09:57:48Z</time>
      </trkpt>
      <trkpt lat="45.43282" lon="5.51634">
        <ele>498.58</ele>
        <time>2021-02-11T09:57:51Z</time>
      </trkpt>
      <trkpt lat="45.43294" lon="5.51633">
        <ele>498.58</ele>
        <time>2021-02-11T09:58:03Z</time>
      </trkpt>
      <trkpt lat="45.43302" lon="5.51615">
        <ele>499.06</ele>
        <time>2021-02-11T09:58:16Z</time>
      </trkpt>
      <trkpt lat="45.43303" lon="5.51613">
        <ele>499.06</ele>
        <time>2021-02-11T09:58:17Z</time>
      </trkpt>
      <trkpt lat="45.43305" lon="5.516">
        <ele>495.7</ele>
        <time>2021-02-11T09:58:23Z</time>
      </trkpt>
      <trkpt lat="45.43305" lon="5.51598">
        <ele>495.7</ele>
        <time>2021-02-11T09:58:24Z</time>
      </trkpt>
      <trkpt lat="45.43305" lon="5.51596">
        <ele>503.87</ele>
        <time>2021-02-11T09:58:25Z</time>
      </trkpt>
      <trkpt lat="45.43305" lon="5.51594">
        <ele>499.54</ele>
        <time>2021-02-11T09:58:26Z</time>
      </trkpt>
      <trkpt lat="45.43307" lon="5.51568">
        <ele>499.54</ele>
        <time>2021-02-11T09:58:41Z</time>
      </trkpt>
      <trkpt lat="45.43307" lon="5.51558">
        <ele>500.02</ele>
        <time>2021-02-11T09:58:46Z</time>
      </trkpt>
      <trkpt lat="45.43308" lon="5.5155">
        <ele>500.5</ele>
        <time>2021-02-11T09:58:51Z</time>
      </trkpt>
      <trkpt lat="45.43309" lon="5.51543">
        <ele>500.5</ele>
        <time>2021-02-11T09:58:56Z</time>
      </trkpt>
      <trkpt lat="45.4331" lon="5.5154">
        <ele>500.02</ele>
        <time>2021-02-11T09:58:58Z</time>
      </trkpt>
      <trkpt lat="45.43311" lon="5.51531">
        <ele>498.58</ele>
        <time>2021-02-11T09:59:02Z</time>
      </trkpt>
      <trkpt lat="45.43311" lon="5.51527">
        <ele>502.43</ele>
        <time>2021-02-11T09:59:04Z</time>
      </trkpt>
      <trkpt lat="45.43311" lon="5.51526">
        <ele>500.5</ele>
        <time>2021-02-11T09:59:05Z</time>
      </trkpt>
      <trkpt lat="45.43314" lon="5.51515">
        <ele>500.5</ele>
        <time>2021-02-11T09:59:12Z</time>
      </trkpt>
      <trkpt lat="45.43316" lon="5.51494">
        <ele>500.98</ele>
        <time>2021-02-11T09:59:23Z</time>
      </trkpt>
      <trkpt lat="45.43316" lon="5.5149">
        <ele>500.98</ele>
        <time>2021-02-11T09:59:25Z</time>
      </trkpt>
      <trkpt lat="45.43319" lon="5.51463">
        <ele>501.46</ele>
        <time>2021-02-11T09:59:42Z</time>
      </trkpt>
      <trkpt lat="45.4332" lon="5.5144">
        <ele>500.98</ele>
        <time>2021-02-11T09:59:55Z</time>
      </trkpt>
      <trkpt lat="45.43321" lon="5.51421">
        <ele>501.95</ele>
        <time>2021-02-11T10:00:10Z</time>
      </trkpt>
      <trkpt lat="45.43323" lon="5.51405">
        <ele>502.43</ele>
        <time>2021-02-11T10:00:27Z</time>
      </trkpt>
      <trkpt lat="45.43325" lon="5.51391">
        <ele>502.43</ele>
        <time>2021-02-11T10:00:35Z</time>
      </trkpt>
      <trkpt lat="45.43331" lon="5.51366">
        <ele>503.39</ele>
        <time>2021-02-11T10:00:50Z</time>
      </trkpt>
      <trkpt lat="45.43332" lon="5.5135">
        <ele>503.87</ele>
        <time>2021-02-11T10:00:58Z</time>
      </trkpt>
      <trkpt lat="45.43333" lon="5.51339">
        <ele>504.35</ele>
        <time>2021-02-11T10:01:10Z</time>
      </trkpt>
      <trkpt lat="45.43331" lon="5.51325">
        <ele>504.83</ele>
        <time>2021-02-11T10:01:20Z</time>
      </trkpt>
      <trkpt lat="45.43333" lon="5.51314">
        <ele>500.02</ele>
        <time>2021-02-11T10:01:27Z</time>
      </trkpt>
      <trkpt lat="45.43333" lon="5.51312">
        <ele>508.67</ele>
        <time>2021-02-11T10:01:28Z</time>
      </trkpt>
      <trkpt lat="45.43333" lon="5.51311">
        <ele>505.31</ele>
        <time>2021-02-11T10:01:29Z</time>
      </trkpt>
      <trkpt lat="45.43333" lon="5.51282">
        <ele>506.75</ele>
        <time>2021-02-11T10:01:46Z</time>
      </trkpt>
      <trkpt lat="45.43333" lon="5.51256">
        <ele>508.19</ele>
        <time>2021-02-11T10:02:01Z</time>
      </trkpt>
      <trkpt lat="45.43336" lon="5.51233">
        <ele>510.12</ele>
        <time>2021-02-11T10:02:16Z</time>
      </trkpt>
      <trkpt lat="45.43337" lon="5.51231">
        <ele>503.87</ele>
        <time>2021-02-11T10:02:18Z</time>
      </trkpt>
      <trkpt lat="45.43338" lon="5.5123">
        <ele>514.92</ele>
        <time>2021-02-11T10:02:19Z</time>
      </trkpt>
      <trkpt lat="45.4335" lon="5.5121">
        <ele>511.56</ele>
        <time>2021-02-11T10:02:37Z</time>
      </trkpt>
      <trkpt lat="45.43349" lon="5.51205">
        <ele>508.19</ele>
        <time>2021-02-11T10:02:49Z</time>
      </trkpt>
      <trkpt lat="45.43349" lon="5.51205">
        <ele>514.92</ele>
        <time>2021-02-11T10:02:50Z</time>
      </trkpt>
      <trkpt lat="45.43349" lon="5.51205">
        <ele>512.04</ele>
        <time>2021-02-11T10:02:51Z</time>
      </trkpt>
      <trkpt lat="45.4335" lon="5.51204">
        <ele>512.04</ele>
        <time>2021-02-11T10:03:07Z</time>
      </trkpt>
      <trkpt lat="45.43353" lon="5.512">
        <ele>512.04</ele>
        <time>2021-02-11T10:03:11Z</time>
      </trkpt>
      <trkpt lat="45.43354" lon="5.51194">
        <ele>506.75</ele>
        <time>2021-02-11T10:03:15Z</time>
      </trkpt>
      <trkpt lat="45.43354" lon="5.51193">
        <ele>515.4</ele>
        <time>2021-02-11T10:03:16Z</time>
      </trkpt>
      <trkpt lat="45.43355" lon="5.5119">
        <ele>507.71</ele>
        <time>2021-02-11T10:03:18Z</time>
      </trkpt>
      <trkpt lat="45.43355" lon="5.51188">
        <ele>515.4</ele>
        <time>2021-02-11T10:03:19Z</time>
      </trkpt>
      <trkpt lat="45.43355" lon="5.51187">
        <ele>512.52</ele>
        <time>2021-02-11T10:03:20Z</time>
      </trkpt>
      <trkpt lat="45.43359" lon="5.51173">
        <ele>512.04</ele>
        <time>2021-02-11T10:03:29Z</time>
      </trkpt>
      <trkpt lat="45.43362" lon="5.51168">
        <ele>512.52</ele>
        <time>2021-02-11T10:03:33Z</time>
      </trkpt>
      <trkpt lat="45.43369" lon="5.51139">
        <ele>513.48</ele>
        <time>2021-02-11T10:03:50Z</time>
      </trkpt>
      <trkpt lat="45.43372" lon="5.5113">
        <ele>507.23</ele>
        <time>2021-02-11T10:03:56Z</time>
      </trkpt>
      <trkpt lat="45.43372" lon="5.51129">
        <ele>524.06</ele>
        <time>2021-02-11T10:03:57Z</time>
      </trkpt>
      <trkpt lat="45.43372" lon="5.51127">
        <ele>514.44</ele>
        <time>2021-02-11T10:03:58Z</time>
      </trkpt>
      <trkpt lat="45.43372" lon="5.51126">
        <ele>513.96</ele>
        <time>2021-02-11T10:03:59Z</time>
      </trkpt>
      <trkpt lat="45.43373" lon="5.5112">
        <ele>513.96</ele>
        <time>2021-02-11T10:04:03Z</time>
      </trkpt>
      <trkpt lat="45.43375" lon="5.51109">
        <ele>514.44</ele>
        <time>2021-02-11T10:04:09Z</time>
      </trkpt>
      <trkpt lat="45.43383" lon="5.51082">
        <ele>515.88</ele>
        <time>2021-02-11T10:04:24Z</time>
      </trkpt>
      <trkpt lat="45.43391" lon="5.51056">
        <ele>516.85</ele>
        <time>2021-02-11T10:04:40Z</time>
      </trkpt>
      <trkpt lat="45.43392" lon="5.51052">
        <ele>512.04</ele>
        <time>2021-02-11T10:04:43Z</time>
      </trkpt>
      <trkpt lat="45.43392" lon="5.51051">
        <ele>520.69</ele>
        <time>2021-02-11T10:04:44Z</time>
      </trkpt>
      <trkpt lat="45.43393" lon="5.51049">
        <ele>517.33</ele>
        <time>2021-02-11T10:04:45Z</time>
      </trkpt>
      <trkpt lat="45.43398" lon="5.51037">
        <ele>517.81</ele>
        <time>2021-02-11T10:04:58Z</time>
      </trkpt>
      <trkpt lat="45.43399" lon="5.51032">
        <ele>517.81</ele>
        <time>2021-02-11T10:05:02Z</time>
      </trkpt>
      <trkpt lat="45.43407" lon="5.51019">
        <ele>518.29</ele>
        <time>2021-02-11T10:05:12Z</time>
      </trkpt>
      <trkpt lat="45.43409" lon="5.51013">
        <ele>515.4</ele>
        <time>2021-02-11T10:05:16Z</time>
      </trkpt>
      <trkpt lat="45.43409" lon="5.51011">
        <ele>522.13</ele>
        <time>2021-02-11T10:05:17Z</time>
      </trkpt>
      <trkpt lat="45.43409" lon="5.51008">
        <ele>517.33</ele>
        <time>2021-02-11T10:05:19Z</time>
      </trkpt>
      <trkpt lat="45.43409" lon="5.51005">
        <ele>523.09</ele>
        <time>2021-02-11T10:05:21Z</time>
      </trkpt>
      <trkpt lat="45.43409" lon="5.51004">
        <ele>519.25</ele>
        <time>2021-02-11T10:05:22Z</time>
      </trkpt>
      <trkpt lat="45.43409" lon="5.51003">
        <ele>518.29</ele>
        <time>2021-02-11T10:05:24Z</time>
      </trkpt>
      <trkpt lat="45.43409" lon="5.51003">
        <ele>522.61</ele>
        <time>2021-02-11T10:05:26Z</time>
      </trkpt>
      <trkpt lat="45.43409" lon="5.51002">
        <ele>517.33</ele>
        <time>2021-02-11T10:05:27Z</time>
      </trkpt>
      <trkpt lat="45.43409" lon="5.51002">
        <ele>521.65</ele>
        <time>2021-02-11T10:05:28Z</time>
      </trkpt>
      <trkpt lat="45.43409" lon="5.51002">
        <ele>517.33</ele>
        <time>2021-02-11T10:05:30Z</time>
      </trkpt>
      <trkpt lat="45.43409" lon="5.51002">
        <ele>522.61</ele>
        <time>2021-02-11T10:05:31Z</time>
      </trkpt>
      <trkpt lat="45.43409" lon="5.51002">
        <ele>519.25</ele>
        <time>2021-02-11T10:05:33Z</time>
      </trkpt>
      <trkpt lat="45.43409" lon="5.51001">
        <ele>513</ele>
        <time>2021-02-11T10:05:36Z</time>
      </trkpt>
      <trkpt lat="45.43409" lon="5.51">
        <ele>524.06</ele>
        <time>2021-02-11T10:05:37Z</time>
      </trkpt>
      <trkpt lat="45.43409" lon="5.50999">
        <ele>519.73</ele>
        <time>2021-02-11T10:05:38Z</time>
      </trkpt>
      <trkpt lat="45.43408" lon="5.50995">
        <ele>520.21</ele>
        <time>2021-02-11T10:05:47Z</time>
      </trkpt>
      <trkpt lat="45.43407" lon="5.50994">
        <ele>519.73</ele>
        <time>2021-02-11T10:05:49Z</time>
      </trkpt>
      <trkpt lat="45.43408" lon="5.5099">
        <ele>519.73</ele>
        <time>2021-02-11T10:05:59Z</time>
      </trkpt>
      <trkpt lat="45.43409" lon="5.50987">
        <ele>513.96</ele>
        <time>2021-02-11T10:06:01Z</time>
      </trkpt>
      <trkpt lat="45.43409" lon="5.50986">
        <ele>525.02</ele>
        <time>2021-02-11T10:06:02Z</time>
      </trkpt>
      <trkpt lat="45.43409" lon="5.50985">
        <ele>517.81</ele>
        <time>2021-02-11T10:06:03Z</time>
      </trkpt>
      <trkpt lat="45.4341" lon="5.50983">
        <ele>522.13</ele>
        <time>2021-02-11T10:06:04Z</time>
      </trkpt>
      <trkpt lat="45.4341" lon="5.50982">
        <ele>514.92</ele>
        <time>2021-02-11T10:06:05Z</time>
      </trkpt>
      <trkpt lat="45.4341" lon="5.5098">
        <ele>524.06</ele>
        <time>2021-02-11T10:06:06Z</time>
      </trkpt>
      <trkpt lat="45.43411" lon="5.50977">
        <ele>525.5</ele>
        <time>2021-02-11T10:06:08Z</time>
      </trkpt>
      <trkpt lat="45.43411" lon="5.50975">
        <ele>520.69</ele>
        <time>2021-02-11T10:06:09Z</time>
      </trkpt>
      <trkpt lat="45.43413" lon="5.50965">
        <ele>520.21</ele>
        <time>2021-02-11T10:06:15Z</time>
      </trkpt>
      <trkpt lat="45.43417" lon="5.50948">
        <ele>520.21</ele>
        <time>2021-02-11T10:06:24Z</time>
      </trkpt>
      <trkpt lat="45.43417" lon="5.5093">
        <ele>521.17</ele>
        <time>2021-02-11T10:06:32Z</time>
      </trkpt>
      <trkpt lat="45.43419" lon="5.50915">
        <ele>521.17</ele>
        <time>2021-02-11T10:06:40Z</time>
      </trkpt>
      <trkpt lat="45.4342" lon="5.50902">
        <ele>521.17</ele>
        <time>2021-02-11T10:06:47Z</time>
      </trkpt>
      <trkpt lat="45.43422" lon="5.50896">
        <ele>521.17</ele>
        <time>2021-02-11T10:06:50Z</time>
      </trkpt>
      <trkpt lat="45.43427" lon="5.50887">
        <ele>521.65</ele>
        <time>2021-02-11T10:06:56Z</time>
      </trkpt>
      <trkpt lat="45.43432" lon="5.5088">
        <ele>521.65</ele>
        <time>2021-02-11T10:07:02Z</time>
      </trkpt>
      <trkpt lat="45.43432" lon="5.50873">
        <ele>521.65</ele>
        <time>2021-02-11T10:07:06Z</time>
      </trkpt>
      <trkpt lat="45.43432" lon="5.50863">
        <ele>521.65</ele>
        <time>2021-02-11T10:07:11Z</time>
      </trkpt>
      <trkpt lat="45.43441" lon="5.50853">
        <ele>522.61</ele>
        <time>2021-02-11T10:07:19Z</time>
      </trkpt>
      <trkpt lat="45.43442" lon="5.5085">
        <ele>523.58</ele>
        <time>2021-02-11T10:07:21Z</time>
      </trkpt>
      <trkpt lat="45.43443" lon="5.50849">
        <ele>522.61</ele>
        <time>2021-02-11T10:07:22Z</time>
      </trkpt>
      <trkpt lat="45.43455" lon="5.5083">
        <ele>523.09</ele>
        <time>2021-02-11T10:07:35Z</time>
      </trkpt>
      <trkpt lat="45.43471" lon="5.50813">
        <ele>523.09</ele>
        <time>2021-02-11T10:07:49Z</time>
      </trkpt>
      <trkpt lat="45.43472" lon="5.50811">
        <ele>523.58</ele>
        <time>2021-02-11T10:07:51Z</time>
      </trkpt>
      <trkpt lat="45.43475" lon="5.50801">
        <ele>524.06</ele>
        <time>2021-02-11T10:07:58Z</time>
      </trkpt>
      <trkpt lat="45.43486" lon="5.50792">
        <ele>524.06</ele>
        <time>2021-02-11T10:08:09Z</time>
      </trkpt>
      <trkpt lat="45.43505" lon="5.50786">
        <ele>524.06</ele>
        <time>2021-02-11T10:08:24Z</time>
      </trkpt>
      <trkpt lat="45.43521" lon="5.50782">
        <ele>524.06</ele>
        <time>2021-02-11T10:08:36Z</time>
      </trkpt>
      <trkpt lat="45.43539" lon="5.50781">
        <ele>525.02</ele>
        <time>2021-02-11T10:08:51Z</time>
      </trkpt>
      <trkpt lat="45.43554" lon="5.50781">
        <ele>525.5</ele>
        <time>2021-02-11T10:09:03Z</time>
      </trkpt>
      <trkpt lat="45.43572" lon="5.5078">
        <ele>525.5</ele>
        <time>2021-02-11T10:09:18Z</time>
      </trkpt>
      <trkpt lat="45.43586" lon="5.5078">
        <ele>525.98</ele>
        <time>2021-02-11T10:09:31Z</time>
      </trkpt>
      <trkpt lat="45.43599" lon="5.50773">
        <ele>525.98</ele>
        <time>2021-02-11T10:09:43Z</time>
      </trkpt>
      <trkpt lat="45.43619" lon="5.50765">
        <ele>526.46</ele>
        <time>2021-02-11T10:09:56Z</time>
      </trkpt>
      <trkpt lat="45.43635" lon="5.50757">
        <ele>519.73</ele>
        <time>2021-02-11T10:10:06Z</time>
      </trkpt>
      <trkpt lat="45.43637" lon="5.50756">
        <ele>531.75</ele>
        <time>2021-02-11T10:10:07Z</time>
      </trkpt>
      <trkpt lat="45.43639" lon="5.50755">
        <ele>527.42</ele>
        <time>2021-02-11T10:10:08Z</time>
      </trkpt>
      <trkpt lat="45.43648" lon="5.50752">
        <ele>526.94</ele>
        <time>2021-02-11T10:10:13Z</time>
      </trkpt>
      <trkpt lat="45.43667" lon="5.50737">
        <ele>526.94</ele>
        <time>2021-02-11T10:10:31Z</time>
      </trkpt>
      <trkpt lat="45.43683" lon="5.50722">
        <ele>527.9</ele>
        <time>2021-02-11T10:10:46Z</time>
      </trkpt>
      <trkpt lat="45.43698" lon="5.50709">
        <ele>527.9</ele>
        <time>2021-02-11T10:11:00Z</time>
      </trkpt>
      <trkpt lat="45.43715" lon="5.50694">
        <ele>528.86</ele>
        <time>2021-02-11T10:11:16Z</time>
      </trkpt>
      <trkpt lat="45.4373" lon="5.50676">
        <ele>530.79</ele>
        <time>2021-02-11T10:11:31Z</time>
      </trkpt>
      <trkpt lat="45.43744" lon="5.50655">
        <ele>530.79</ele>
        <time>2021-02-11T10:11:47Z</time>
      </trkpt>
      <trkpt lat="45.4375" lon="5.50647">
        <ele>530.79</ele>
        <time>2021-02-11T10:11:54Z</time>
      </trkpt>
      <trkpt lat="45.43756" lon="5.50639">
        <ele>530.79</ele>
        <time>2021-02-11T10:12:01Z</time>
      </trkpt>
      <trkpt lat="45.43759" lon="5.50635">
        <ele>527.42</ele>
        <time>2021-02-11T10:12:04Z</time>
      </trkpt>
      <trkpt lat="45.4376" lon="5.50634">
        <ele>534.15</ele>
        <time>2021-02-11T10:12:05Z</time>
      </trkpt>
      <trkpt lat="45.43778" lon="5.50615">
        <ele>531.75</ele>
        <time>2021-02-11T10:12:23Z</time>
      </trkpt>
      <trkpt lat="45.43787" lon="5.50606">
        <ele>531.75</ele>
        <time>2021-02-11T10:12:32Z</time>
      </trkpt>
      <trkpt lat="45.43806" lon="5.50591">
        <ele>532.23</ele>
        <time>2021-02-11T10:12:49Z</time>
      </trkpt>
      <trkpt lat="45.43825" lon="5.50575">
        <ele>532.23</ele>
        <time>2021-02-11T10:13:06Z</time>
      </trkpt>
      <trkpt lat="45.43828" lon="5.50571">
        <ele>528.86</ele>
        <time>2021-02-11T10:13:09Z</time>
      </trkpt>
      <trkpt lat="45.43829" lon="5.5057">
        <ele>535.11</ele>
        <time>2021-02-11T10:13:10Z</time>
      </trkpt>
      <trkpt lat="45.43845" lon="5.5055">
        <ele>532.71</ele>
        <time>2021-02-11T10:13:26Z</time>
      </trkpt>
      <trkpt lat="45.43858" lon="5.50533">
        <ele>532.71</ele>
        <time>2021-02-11T10:13:40Z</time>
      </trkpt>
      <trkpt lat="45.43873" lon="5.50511">
        <ele>532.71</ele>
        <time>2021-02-11T10:13:56Z</time>
      </trkpt>
      <trkpt lat="45.43887" lon="5.50495">
        <ele>529.34</ele>
        <time>2021-02-11T10:14:09Z</time>
      </trkpt>
      <trkpt lat="45.43888" lon="5.50494">
        <ele>535.11</ele>
        <time>2021-02-11T10:14:10Z</time>
      </trkpt>
      <trkpt lat="45.439" lon="5.50474">
        <ele>532.71</ele>
        <time>2021-02-11T10:14:24Z</time>
      </trkpt>
      <trkpt lat="45.43905" lon="5.50465">
        <ele>532.71</ele>
        <time>2021-02-11T10:14:30Z</time>
      </trkpt>
      <trkpt lat="45.43908" lon="5.50461">
        <ele>532.71</ele>
        <time>2021-02-11T10:14:33Z</time>
      </trkpt>
      <trkpt lat="45.43911" lon="5.50459">
        <ele>532.71</ele>
        <time>2021-02-11T10:14:35Z</time>
      </trkpt>
      <trkpt lat="45.43927" lon="5.50445">
        <ele>532.71</ele>
        <time>2021-02-11T10:14:50Z</time>
      </trkpt>
      <trkpt lat="45.43943" lon="5.5044">
        <ele>533.19</ele>
        <time>2021-02-11T10:15:03Z</time>
      </trkpt>
      <trkpt lat="45.43947" lon="5.5044">
        <ele>533.19</ele>
        <time>2021-02-11T10:15:21Z</time>
      </trkpt>
      <trkpt lat="45.43949" lon="5.50439">
        <ele>525.02</ele>
        <time>2021-02-11T10:15:25Z</time>
      </trkpt>
      <trkpt lat="45.43949" lon="5.50439">
        <ele>542.8</ele>
        <time>2021-02-11T10:15:26Z</time>
      </trkpt>
      <trkpt lat="45.4395" lon="5.50439">
        <ele>533.67</ele>
        <time>2021-02-11T10:15:27Z</time>
      </trkpt>
      <trkpt lat="45.43951" lon="5.50438">
        <ele>533.19</ele>
        <time>2021-02-11T10:15:28Z</time>
      </trkpt>
      <trkpt lat="45.4396" lon="5.5044">
        <ele>532.71</ele>
        <time>2021-02-11T10:15:34Z</time>
      </trkpt>
      <trkpt lat="45.43971" lon="5.50447">
        <ele>532.71</ele>
        <time>2021-02-11T10:15:46Z</time>
      </trkpt>
      <trkpt lat="45.43977" lon="5.50449">
        <ele>532.23</ele>
        <time>2021-02-11T10:15:51Z</time>
      </trkpt>
      <trkpt lat="45.43988" lon="5.50455">
        <ele>532.23</ele>
        <time>2021-02-11T10:15:59Z</time>
      </trkpt>
      <trkpt lat="45.44004" lon="5.50457">
        <ele>532.23</ele>
        <time>2021-02-11T10:16:11Z</time>
      </trkpt>
      <trkpt lat="45.44022" lon="5.50459">
        <ele>532.23</ele>
        <time>2021-02-11T10:16:25Z</time>
      </trkpt>
      <trkpt lat="45.44024" lon="5.50459">
        <ele>532.23</ele>
        <time>2021-02-11T10:16:26Z</time>
      </trkpt>
      <trkpt lat="45.44033" lon="5.50462">
        <ele>532.23</ele>
        <time>2021-02-11T10:16:34Z</time>
      </trkpt>
      <trkpt lat="45.44046" lon="5.50464">
        <ele>532.23</ele>
        <time>2021-02-11T10:16:46Z</time>
      </trkpt>
      <trkpt lat="45.44058" lon="5.50465">
        <ele>532.23</ele>
        <time>2021-02-11T10:16:57Z</time>
      </trkpt>
      <trkpt lat="45.44072" lon="5.50462">
        <ele>532.23</ele>
        <time>2021-02-11T10:17:09Z</time>
      </trkpt>
      <trkpt lat="45.44087" lon="5.50458">
        <ele>532.23</ele>
        <time>2021-02-11T10:17:22Z</time>
      </trkpt>
      <trkpt lat="45.44102" lon="5.50453">
        <ele>532.71</ele>
        <time>2021-02-11T10:17:34Z</time>
      </trkpt>
      <trkpt lat="45.44121" lon="5.50446">
        <ele>532.71</ele>
        <time>2021-02-11T10:17:47Z</time>
      </trkpt>
      <trkpt lat="45.44126" lon="5.50442">
        <ele>532.23</ele>
        <time>2021-02-11T10:17:52Z</time>
      </trkpt>
      <trkpt lat="45.44139" lon="5.50437">
        <ele>531.75</ele>
        <time>2021-02-11T10:18:03Z</time>
      </trkpt>
      <trkpt lat="45.44145" lon="5.50436">
        <ele>527.9</ele>
        <time>2021-02-11T10:18:07Z</time>
      </trkpt>
      <trkpt lat="45.44146" lon="5.50435">
        <ele>525.02</ele>
        <time>2021-02-11T10:18:08Z</time>
      </trkpt>
      <trkpt lat="45.44148" lon="5.50434">
        <ele>538.96</ele>
        <time>2021-02-11T10:18:09Z</time>
      </trkpt>
      <trkpt lat="45.4415" lon="5.50433">
        <ele>532.23</ele>
        <time>2021-02-11T10:18:10Z</time>
      </trkpt>
      <trkpt lat="45.44159" lon="5.50424">
        <ele>531.75</ele>
        <time>2021-02-11T10:18:18Z</time>
      </trkpt>
      <trkpt lat="45.44166" lon="5.50418">
        <ele>531.75</ele>
        <time>2021-02-11T10:18:24Z</time>
      </trkpt>
      <trkpt lat="45.44171" lon="5.50414">
        <ele>531.75</ele>
        <time>2021-02-11T10:18:28Z</time>
      </trkpt>
      <trkpt lat="45.44189" lon="5.50401">
        <ele>532.23</ele>
        <time>2021-02-11T10:18:46Z</time>
      </trkpt>
      <trkpt lat="45.44203" lon="5.5039">
        <ele>532.23</ele>
        <time>2021-02-11T10:18:59Z</time>
      </trkpt>
      <trkpt lat="45.4421" lon="5.50388">
        <ele>532.23</ele>
        <time>2021-02-11T10:19:13Z</time>
      </trkpt>
      <trkpt lat="45.44219" lon="5.50385">
        <ele>531.75</ele>
        <time>2021-02-11T10:19:29Z</time>
      </trkpt>
      <trkpt lat="45.44234" lon="5.50379">
        <ele>531.75</ele>
        <time>2021-02-11T10:19:40Z</time>
      </trkpt>
      <trkpt lat="45.44239" lon="5.50377">
        <ele>530.79</ele>
        <time>2021-02-11T10:19:43Z</time>
      </trkpt>
      <trkpt lat="45.44242" lon="5.50375">
        <ele>532.71</ele>
        <time>2021-02-11T10:19:45Z</time>
      </trkpt>
      <trkpt lat="45.44245" lon="5.50375">
        <ele>531.75</ele>
        <time>2021-02-11T10:19:47Z</time>
      </trkpt>
      <trkpt lat="45.44265" lon="5.50368">
        <ele>531.27</ele>
        <time>2021-02-11T10:20:02Z</time>
      </trkpt>
      <trkpt lat="45.44291" lon="5.50361">
        <ele>531.27</ele>
        <time>2021-02-11T10:20:21Z</time>
      </trkpt>
      <trkpt lat="45.44313" lon="5.50355">
        <ele>531.27</ele>
        <time>2021-02-11T10:20:38Z</time>
      </trkpt>
      <trkpt lat="45.4433" lon="5.50351">
        <ele>531.75</ele>
        <time>2021-02-11T10:20:52Z</time>
      </trkpt>
      <trkpt lat="45.44349" lon="5.50347">
        <ele>531.75</ele>
        <time>2021-02-11T10:21:07Z</time>
      </trkpt>
      <trkpt lat="45.44367" lon="5.50346">
        <ele>532.23</ele>
        <time>2021-02-11T10:21:21Z</time>
      </trkpt>
      <trkpt lat="45.44377" lon="5.50345">
        <ele>533.67</ele>
        <time>2021-02-11T10:21:32Z</time>
      </trkpt>
      <trkpt lat="45.44392" lon="5.50343">
        <ele>533.67</ele>
        <time>2021-02-11T10:21:44Z</time>
      </trkpt>
      <trkpt lat="45.44406" lon="5.50341">
        <ele>534.15</ele>
        <time>2021-02-11T10:21:56Z</time>
      </trkpt>
      <trkpt lat="45.44421" lon="5.5034">
        <ele>535.59</ele>
        <time>2021-02-11T10:22:09Z</time>
      </trkpt>
      <trkpt lat="45.44432" lon="5.50338">
        <ele>536.55</ele>
        <time>2021-02-11T10:22:19Z</time>
      </trkpt>
      <trkpt lat="45.44448" lon="5.5034">
        <ele>537.51</ele>
        <time>2021-02-11T10:22:32Z</time>
      </trkpt>
      <trkpt lat="45.44461" lon="5.50343">
        <ele>537.99</ele>
        <time>2021-02-11T10:22:44Z</time>
      </trkpt>
      <trkpt lat="45.44476" lon="5.50344">
        <ele>539.92</ele>
        <time>2021-02-11T10:22:55Z</time>
      </trkpt>
      <trkpt lat="45.44489" lon="5.50343">
        <ele>540.88</ele>
        <time>2021-02-11T10:23:07Z</time>
      </trkpt>
      <trkpt lat="45.44494" lon="5.50337">
        <ele>541.36</ele>
        <time>2021-02-11T10:23:13Z</time>
      </trkpt>
      <trkpt lat="45.44497" lon="5.50335">
        <ele>544.72</ele>
        <time>2021-02-11T10:23:16Z</time>
      </trkpt>
      <trkpt lat="45.44498" lon="5.50335">
        <ele>543.28</ele>
        <time>2021-02-11T10:23:17Z</time>
      </trkpt>
      <trkpt lat="45.445" lon="5.50334">
        <ele>542.32</ele>
        <time>2021-02-11T10:23:19Z</time>
      </trkpt>
      <trkpt lat="45.4451" lon="5.50333">
        <ele>543.28</ele>
        <time>2021-02-11T10:23:32Z</time>
      </trkpt>
      <trkpt lat="45.44526" lon="5.50332">
        <ele>543.28</ele>
        <time>2021-02-11T10:23:45Z</time>
      </trkpt>
      <trkpt lat="45.44543" lon="5.5033">
        <ele>544.72</ele>
        <time>2021-02-11T10:24:00Z</time>
      </trkpt>
      <trkpt lat="45.44559" lon="5.50326">
        <ele>545.2</ele>
        <time>2021-02-11T10:24:14Z</time>
      </trkpt>
      <trkpt lat="45.44578" lon="5.50321">
        <ele>545.69</ele>
        <time>2021-02-11T10:24:29Z</time>
      </trkpt>
      <trkpt lat="45.44599" lon="5.50317">
        <ele>545.69</ele>
        <time>2021-02-11T10:24:46Z</time>
      </trkpt>
      <trkpt lat="45.44617" lon="5.50315">
        <ele>545.69</ele>
        <time>2021-02-11T10:25:00Z</time>
      </trkpt>
      <trkpt lat="45.44632" lon="5.50316">
        <ele>546.65</ele>
        <time>2021-02-11T10:25:12Z</time>
      </trkpt>
      <trkpt lat="45.44639" lon="5.50316">
        <ele>546.65</ele>
        <time>2021-02-11T10:25:18Z</time>
      </trkpt>
      <trkpt lat="45.44649" lon="5.50316">
        <ele>546.65</ele>
        <time>2021-02-11T10:25:25Z</time>
      </trkpt>
      <trkpt lat="45.44662" lon="5.50315">
        <ele>546.17</ele>
        <time>2021-02-11T10:25:34Z</time>
      </trkpt>
      <trkpt lat="45.44668" lon="5.50315">
        <ele>547.13</ele>
        <time>2021-02-11T10:25:39Z</time>
      </trkpt>
      <trkpt lat="45.44682" lon="5.50312">
        <ele>546.65</ele>
        <time>2021-02-11T10:25:51Z</time>
      </trkpt>
      <trkpt lat="45.447" lon="5.50307">
        <ele>539.92</ele>
        <time>2021-02-11T10:26:05Z</time>
      </trkpt>
      <trkpt lat="45.44701" lon="5.50307">
        <ele>553.38</ele>
        <time>2021-02-11T10:26:06Z</time>
      </trkpt>
      <trkpt lat="45.44702" lon="5.50306">
        <ele>548.09</ele>
        <time>2021-02-11T10:26:07Z</time>
      </trkpt>
      <trkpt lat="45.44703" lon="5.50305">
        <ele>535.11</ele>
        <time>2021-02-11T10:26:08Z</time>
      </trkpt>
      <trkpt lat="45.44704" lon="5.50305">
        <ele>525.98</ele>
        <time>2021-02-11T10:26:09Z</time>
      </trkpt>
      <trkpt lat="45.44705" lon="5.50304">
        <ele>562.51</ele>
        <time>2021-02-11T10:26:10Z</time>
      </trkpt>
      <trkpt lat="45.44706" lon="5.50303">
        <ele>553.38</ele>
        <time>2021-02-11T10:26:11Z</time>
      </trkpt>
      <trkpt lat="45.44707" lon="5.50302">
        <ele>548.09</ele>
        <time>2021-02-11T10:26:12Z</time>
      </trkpt>
      <trkpt lat="45.44707" lon="5.50302">
        <ele>548.09</ele>
        <time>2021-02-11T10:26:13Z</time>
      </trkpt>
      <trkpt lat="45.4471" lon="5.503">
        <ele>548.09</ele>
        <time>2021-02-11T10:26:16Z</time>
      </trkpt>
      <trkpt lat="45.44728" lon="5.50284">
        <ele>547.13</ele>
        <time>2021-02-11T10:26:32Z</time>
      </trkpt>
      <trkpt lat="45.44742" lon="5.50268">
        <ele>547.13</ele>
        <time>2021-02-11T10:26:46Z</time>
      </trkpt>
      <trkpt lat="45.44761" lon="5.50252">
        <ele>546.65</ele>
        <time>2021-02-11T10:27:03Z</time>
      </trkpt>
      <trkpt lat="45.44783" lon="5.50237">
        <ele>545.69</ele>
        <time>2021-02-11T10:27:22Z</time>
      </trkpt>
      <trkpt lat="45.44796" lon="5.50229">
        <ele>541.84</ele>
        <time>2021-02-11T10:27:32Z</time>
      </trkpt>
      <trkpt lat="45.44798" lon="5.50227">
        <ele>547.61</ele>
        <time>2021-02-11T10:27:34Z</time>
      </trkpt>
      <trkpt lat="45.44799" lon="5.50226">
        <ele>546.17</ele>
        <time>2021-02-11T10:27:35Z</time>
      </trkpt>
      <trkpt lat="45.44801" lon="5.50226">
        <ele>547.13</ele>
        <time>2021-02-11T10:27:36Z</time>
      </trkpt>
      <trkpt lat="45.44803" lon="5.50224">
        <ele>550.49</ele>
        <time>2021-02-11T10:27:38Z</time>
      </trkpt>
      <trkpt lat="45.44804" lon="5.50223">
        <ele>545.69</ele>
        <time>2021-02-11T10:27:39Z</time>
      </trkpt>
      <trkpt lat="45.44806" lon="5.50221">
        <ele>544.72</ele>
        <time>2021-02-11T10:27:41Z</time>
      </trkpt>
      <trkpt lat="45.44825" lon="5.50208">
        <ele>544.72</ele>
        <time>2021-02-11T10:27:57Z</time>
      </trkpt>
      <trkpt lat="45.44837" lon="5.50198">
        <ele>534.15</ele>
        <time>2021-02-11T10:28:08Z</time>
      </trkpt>
      <trkpt lat="45.44837" lon="5.50197">
        <ele>552.41</ele>
        <time>2021-02-11T10:28:09Z</time>
      </trkpt>
      <trkpt lat="45.44834" lon="5.5019">
        <ele>539.44</ele>
        <time>2021-02-11T10:28:14Z</time>
      </trkpt>
      <trkpt lat="45.44834" lon="5.50188">
        <ele>550.97</ele>
        <time>2021-02-11T10:28:15Z</time>
      </trkpt>
      <trkpt lat="45.44834" lon="5.50187">
        <ele>546.65</ele>
        <time>2021-02-11T10:28:16Z</time>
      </trkpt>
      <trkpt lat="45.44832" lon="5.50184">
        <ele>545.2</ele>
        <time>2021-02-11T10:28:18Z</time>
      </trkpt>
      <trkpt lat="45.44827" lon="5.50174">
        <ele>542.8</ele>
        <time>2021-02-11T10:28:26Z</time>
      </trkpt>
      <trkpt lat="45.44815" lon="5.50152">
        <ele>545.2</ele>
        <time>2021-02-11T10:28:42Z</time>
      </trkpt>
      <trkpt lat="45.44808" lon="5.50138">
        <ele>538.96</ele>
        <time>2021-02-11T10:28:51Z</time>
      </trkpt>
      <trkpt lat="45.44808" lon="5.50137">
        <ele>549.05</ele>
        <time>2021-02-11T10:28:52Z</time>
      </trkpt>
      <trkpt lat="45.44807" lon="5.50135">
        <ele>549.05</ele>
        <time>2021-02-11T10:28:53Z</time>
      </trkpt>
      <trkpt lat="45.44805" lon="5.50131">
        <ele>545.69</ele>
        <time>2021-02-11T10:28:56Z</time>
      </trkpt>
      <trkpt lat="45.44794" lon="5.50109">
        <ele>547.13</ele>
        <time>2021-02-11T10:29:12Z</time>
      </trkpt>
      <trkpt lat="45.44785" lon="5.50089">
        <ele>548.57</ele>
        <time>2021-02-11T10:29:26Z</time>
      </trkpt>
      <trkpt lat="45.44774" lon="5.50068">
        <ele>549.05</ele>
        <time>2021-02-11T10:29:41Z</time>
      </trkpt>
      <trkpt lat="45.44765" lon="5.5004">
        <ele>549.53</ele>
        <time>2021-02-11T10:29:58Z</time>
      </trkpt>
      <trkpt lat="45.44763" lon="5.50026">
        <ele>550.01</ele>
        <time>2021-02-11T10:30:07Z</time>
      </trkpt>
      <trkpt lat="45.44757" lon="5.49997">
        <ele>550.01</ele>
        <time>2021-02-11T10:30:24Z</time>
      </trkpt>
      <trkpt lat="45.44752" lon="5.49979">
        <ele>550.97</ele>
        <time>2021-02-11T10:30:36Z</time>
      </trkpt>
      <trkpt lat="45.44749" lon="5.49972">
        <ele>551.45</ele>
        <time>2021-02-11T10:30:41Z</time>
      </trkpt>
      <trkpt lat="45.44745" lon="5.49949">
        <ele>552.41</ele>
        <time>2021-02-11T10:30:56Z</time>
      </trkpt>
      <trkpt lat="45.44745" lon="5.49941">
        <ele>552.41</ele>
        <time>2021-02-11T10:31:01Z</time>
      </trkpt>
      <trkpt lat="45.44743" lon="5.49913">
        <ele>553.86</ele>
        <time>2021-02-11T10:31:17Z</time>
      </trkpt>
      <trkpt lat="45.44742" lon="5.49897">
        <ele>554.82</ele>
        <time>2021-02-11T10:31:27Z</time>
      </trkpt>
      <trkpt lat="45.44742" lon="5.49873">
        <ele>556.74</ele>
        <time>2021-02-11T10:31:42Z</time>
      </trkpt>
      <trkpt lat="45.44739" lon="5.4985">
        <ele>558.18</ele>
        <time>2021-02-11T10:31:56Z</time>
      </trkpt>
      <trkpt lat="45.44737" lon="5.49823">
        <ele>558.18</ele>
        <time>2021-02-11T10:32:12Z</time>
      </trkpt>
      <trkpt lat="45.44733" lon="5.49793">
        <ele>557.7</ele>
        <time>2021-02-11T10:32:28Z</time>
      </trkpt>
      <trkpt lat="45.44732" lon="5.49788">
        <ele>550.01</ele>
        <time>2021-02-11T10:32:32Z</time>
      </trkpt>
      <trkpt lat="45.44732" lon="5.49786">
        <ele>562.99</ele>
        <time>2021-02-11T10:32:33Z</time>
      </trkpt>
      <trkpt lat="45.44732" lon="5.49785">
        <ele>557.7</ele>
        <time>2021-02-11T10:32:34Z</time>
      </trkpt>
      <trkpt lat="45.44731" lon="5.49784">
        <ele>548.57</ele>
        <time>2021-02-11T10:32:35Z</time>
      </trkpt>
      <trkpt lat="45.44731" lon="5.49784">
        <ele>563.47</ele>
        <time>2021-02-11T10:32:36Z</time>
      </trkpt>
      <trkpt lat="45.44731" lon="5.49784">
        <ele>556.74</ele>
        <time>2021-02-11T10:32:37Z</time>
      </trkpt>
      <trkpt lat="45.44731" lon="5.49784">
        <ele>547.13</ele>
        <time>2021-02-11T10:32:38Z</time>
      </trkpt>
      <trkpt lat="45.44731" lon="5.49784">
        <ele>570.2</ele>
        <time>2021-02-11T10:32:39Z</time>
      </trkpt>
      <trkpt lat="45.44731" lon="5.49784">
        <ele>552.9</ele>
        <time>2021-02-11T10:32:40Z</time>
      </trkpt>
      <trkpt lat="45.44732" lon="5.49784">
        <ele>562.03</ele>
        <time>2021-02-11T10:32:41Z</time>
      </trkpt>
      <trkpt lat="45.44732" lon="5.49784">
        <ele>554.34</ele>
        <time>2021-02-11T10:32:42Z</time>
      </trkpt>
      <trkpt lat="45.44732" lon="5.49784">
        <ele>560.11</ele>
        <time>2021-02-11T10:32:43Z</time>
      </trkpt>
      <trkpt lat="45.44732" lon="5.49784">
        <ele>556.26</ele>
        <time>2021-02-11T10:32:44Z</time>
      </trkpt>
      <trkpt lat="45.44731" lon="5.49784">
        <ele>561.07</ele>
        <time>2021-02-11T10:32:46Z</time>
      </trkpt>
      <trkpt lat="45.44732" lon="5.49784">
        <ele>559.14</ele>
        <time>2021-02-11T10:32:47Z</time>
      </trkpt>
      <trkpt lat="45.44732" lon="5.49785">
        <ele>555.3</ele>
        <time>2021-02-11T10:32:49Z</time>
      </trkpt>
      <trkpt lat="45.44732" lon="5.49785">
        <ele>560.59</ele>
        <time>2021-02-11T10:32:51Z</time>
      </trkpt>
      <trkpt lat="45.44733" lon="5.49785">
        <ele>558.18</ele>
        <time>2021-02-11T10:32:52Z</time>
      </trkpt>
      <trkpt lat="45.44733" lon="5.49785">
        <ele>554.34</ele>
        <time>2021-02-11T10:32:53Z</time>
      </trkpt>
      <trkpt lat="45.44733" lon="5.49785">
        <ele>557.22</ele>
        <time>2021-02-11T10:32:54Z</time>
      </trkpt>
      <trkpt lat="45.44732" lon="5.49785">
        <ele>560.59</ele>
        <time>2021-02-11T10:32:55Z</time>
      </trkpt>
      <trkpt lat="45.44732" lon="5.49785">
        <ele>557.7</ele>
        <time>2021-02-11T10:32:56Z</time>
      </trkpt>
      <trkpt lat="45.44732" lon="5.49784">
        <ele>552.41</ele>
        <time>2021-02-11T10:32:58Z</time>
      </trkpt>
      <trkpt lat="45.44732" lon="5.49783">
        <ele>561.07</ele>
        <time>2021-02-11T10:32:59Z</time>
      </trkpt>
      <trkpt lat="45.44732" lon="5.49782">
        <ele>557.7</ele>
        <time>2021-02-11T10:33:00Z</time>
      </trkpt>
      <trkpt lat="45.44732" lon="5.4978">
        <ele>553.86</ele>
        <time>2021-02-11T10:33:02Z</time>
      </trkpt>
      <trkpt lat="45.44732" lon="5.49779">
        <ele>558.66</ele>
        <time>2021-02-11T10:33:03Z</time>
      </trkpt>
      <trkpt lat="45.44732" lon="5.49778">
        <ele>553.86</ele>
        <time>2021-02-11T10:33:05Z</time>
      </trkpt>
      <trkpt lat="45.44732" lon="5.49778">
        <ele>561.55</ele>
        <time>2021-02-11T10:33:06Z</time>
      </trkpt>
      <trkpt lat="45.44732" lon="5.49778">
        <ele>557.7</ele>
        <time>2021-02-11T10:33:07Z</time>
      </trkpt>
      <trkpt lat="45.44732" lon="5.49778">
        <ele>548.09</ele>
        <time>2021-02-11T10:33:11Z</time>
      </trkpt>
      <trkpt lat="45.44732" lon="5.49778">
        <ele>564.91</ele>
        <time>2021-02-11T10:33:12Z</time>
      </trkpt>
      <trkpt lat="45.44732" lon="5.49778">
        <ele>548.57</ele>
        <time>2021-02-11T10:33:13Z</time>
      </trkpt>
      <trkpt lat="45.44732" lon="5.49778">
        <ele>567.32</ele>
        <time>2021-02-11T10:33:14Z</time>
      </trkpt>
      <trkpt lat="45.44732" lon="5.49778">
        <ele>557.7</ele>
        <time>2021-02-11T10:33:15Z</time>
      </trkpt>
      <trkpt lat="45.44732" lon="5.49778">
        <ele>557.7</ele>
        <time>2021-02-11T10:33:16Z</time>
      </trkpt>
      <trkpt lat="45.44729" lon="5.49766">
        <ele>557.7</ele>
        <time>2021-02-11T10:33:24Z</time>
      </trkpt>
      <trkpt lat="45.44726" lon="5.49757">
        <ele>558.18</ele>
        <time>2021-02-11T10:33:30Z</time>
      </trkpt>
      <trkpt lat="45.44723" lon="5.49741">
        <ele>559.14</ele>
        <time>2021-02-11T10:33:40Z</time>
      </trkpt>
      <trkpt lat="45.44714" lon="5.49715">
        <ele>561.55</ele>
        <time>2021-02-11T10:33:58Z</time>
      </trkpt>
      <trkpt lat="45.44705" lon="5.497">
        <ele>563.47</ele>
        <time>2021-02-11T10:34:11Z</time>
      </trkpt>
      <trkpt lat="45.44694" lon="5.49683">
        <ele>564.43</ele>
        <time>2021-02-11T10:34:26Z</time>
      </trkpt>
      <trkpt lat="45.44685" lon="5.49666">
        <ele>566.83</ele>
        <time>2021-02-11T10:34:40Z</time>
      </trkpt>
      <trkpt lat="45.44681" lon="5.49659">
        <ele>567.8</ele>
        <time>2021-02-11T10:34:47Z</time>
      </trkpt>
      <trkpt lat="45.44673" lon="5.49636">
        <ele>568.76</ele>
        <time>2021-02-11T10:35:02Z</time>
      </trkpt>
      <trkpt lat="45.44668" lon="5.49615">
        <ele>570.2</ele>
        <time>2021-02-11T10:35:16Z</time>
      </trkpt>
      <trkpt lat="45.44663" lon="5.49592">
        <ele>571.64</ele>
        <time>2021-02-11T10:35:31Z</time>
      </trkpt>
      <trkpt lat="45.44657" lon="5.49565">
        <ele>571.16</ele>
        <time>2021-02-11T10:35:48Z</time>
      </trkpt>
      <trkpt lat="45.44648" lon="5.49542">
        <ele>571.16</ele>
        <time>2021-02-11T10:36:03Z</time>
      </trkpt>
      <trkpt lat="45.44635" lon="5.49519">
        <ele>570.2</ele>
        <time>2021-02-11T10:36:20Z</time>
      </trkpt>
      <trkpt lat="45.44619" lon="5.49495">
        <ele>568.76</ele>
        <time>2021-02-11T10:36:38Z</time>
      </trkpt>
      <trkpt lat="45.44603" lon="5.49473">
        <ele>568.28</ele>
        <time>2021-02-11T10:36:55Z</time>
      </trkpt>
      <trkpt lat="45.44593" lon="5.49459">
        <ele>560.11</ele>
        <time>2021-02-11T10:37:07Z</time>
      </trkpt>
      <trkpt lat="45.44592" lon="5.49459">
        <ele>572.6</ele>
        <time>2021-02-11T10:37:08Z</time>
      </trkpt>
      <trkpt lat="45.44592" lon="5.49458">
        <ele>566.35</ele>
        <time>2021-02-11T10:37:09Z</time>
      </trkpt>
      <trkpt lat="45.44591" lon="5.49457">
        <ele>569.72</ele>
        <time>2021-02-11T10:37:10Z</time>
      </trkpt>
      <trkpt lat="45.44589" lon="5.49454">
        <ele>567.32</ele>
        <time>2021-02-11T10:37:13Z</time>
      </trkpt>
      <trkpt lat="45.44571" lon="5.49433">
        <ele>563.95</ele>
        <time>2021-02-11T10:37:31Z</time>
      </trkpt>
      <trkpt lat="45.44559" lon="5.49411">
        <ele>560.59</ele>
        <time>2021-02-11T10:37:47Z</time>
      </trkpt>
      <trkpt lat="45.44558" lon="5.49407">
        <ele>564.43</ele>
        <time>2021-02-11T10:37:49Z</time>
      </trkpt>
      <trkpt lat="45.44558" lon="5.49405">
        <ele>562.51</ele>
        <time>2021-02-11T10:37:50Z</time>
      </trkpt>
      <trkpt lat="45.44561" lon="5.4939">
        <ele>562.03</ele>
        <time>2021-02-11T10:37:59Z</time>
      </trkpt>
      <trkpt lat="45.44566" lon="5.49384">
        <ele>562.03</ele>
        <time>2021-02-11T10:38:04Z</time>
      </trkpt>
      <trkpt lat="45.44569" lon="5.49375">
        <ele>561.55</ele>
        <time>2021-02-11T10:38:09Z</time>
      </trkpt>
      <trkpt lat="45.44578" lon="5.49354">
        <ele>562.03</ele>
        <time>2021-02-11T10:38:23Z</time>
      </trkpt>
      <trkpt lat="45.44574" lon="5.49347">
        <ele>561.55</ele>
        <time>2021-02-11T10:38:29Z</time>
      </trkpt>
      <trkpt lat="45.44563" lon="5.49349">
        <ele>563.47</ele>
        <time>2021-02-11T10:38:45Z</time>
      </trkpt>
      <trkpt lat="45.44563" lon="5.4935">
        <ele>558.66</ele>
        <time>2021-02-11T10:38:49Z</time>
      </trkpt>
      <trkpt lat="45.44563" lon="5.49349">
        <ele>563.95</ele>
        <time>2021-02-11T10:38:50Z</time>
      </trkpt>
      <trkpt lat="45.44564" lon="5.49349">
        <ele>559.62</ele>
        <time>2021-02-11T10:38:54Z</time>
      </trkpt>
      <trkpt lat="45.44564" lon="5.49349">
        <ele>562.99</ele>
        <time>2021-02-11T10:38:55Z</time>
      </trkpt>
      <trkpt lat="45.44564" lon="5.49349">
        <ele>557.7</ele>
        <time>2021-02-11T10:38:56Z</time>
      </trkpt>
      <trkpt lat="45.44564" lon="5.49349">
        <ele>564.43</ele>
        <time>2021-02-11T10:38:57Z</time>
      </trkpt>
      <trkpt lat="45.44564" lon="5.49349">
        <ele>561.07</ele>
        <time>2021-02-11T10:38:59Z</time>
      </trkpt>
      <trkpt lat="45.44563" lon="5.4935">
        <ele>555.78</ele>
        <time>2021-02-11T10:39:10Z</time>
      </trkpt>
      <trkpt lat="45.44563" lon="5.4935">
        <ele>570.68</ele>
        <time>2021-02-11T10:39:11Z</time>
      </trkpt>
      <trkpt lat="45.44563" lon="5.4935">
        <ele>562.51</ele>
        <time>2021-02-11T10:39:12Z</time>
      </trkpt>
      <trkpt lat="45.44563" lon="5.4935">
        <ele>561.55</ele>
        <time>2021-02-11T10:39:14Z</time>
      </trkpt>
      <trkpt lat="45.44563" lon="5.4935">
        <ele>555.78</ele>
        <time>2021-02-11T10:39:15Z</time>
      </trkpt>
      <trkpt lat="45.44563" lon="5.4935">
        <ele>564.91</ele>
        <time>2021-02-11T10:39:16Z</time>
      </trkpt>
      <trkpt lat="45.44563" lon="5.4935">
        <ele>561.55</ele>
        <time>2021-02-11T10:39:17Z</time>
      </trkpt>
      <trkpt lat="45.44563" lon="5.4935">
        <ele>555.3</ele>
        <time>2021-02-11T10:39:20Z</time>
      </trkpt>
      <trkpt lat="45.44563" lon="5.4935">
        <ele>565.87</ele>
        <time>2021-02-11T10:39:21Z</time>
      </trkpt>
      <trkpt lat="45.44563" lon="5.4935">
        <ele>563.95</ele>
        <time>2021-02-11T10:39:22Z</time>
      </trkpt>
      <trkpt lat="45.44563" lon="5.4935">
        <ele>560.59</ele>
        <time>2021-02-11T10:39:23Z</time>
      </trkpt>
      <trkpt lat="45.44563" lon="5.4935">
        <ele>565.87</ele>
        <time>2021-02-11T10:39:25Z</time>
      </trkpt>
      <trkpt lat="45.44563" lon="5.4935">
        <ele>561.07</ele>
        <time>2021-02-11T10:39:26Z</time>
      </trkpt>
      <trkpt lat="45.44562" lon="5.4935">
        <ele>544.24</ele>
        <time>2021-02-11T10:39:32Z</time>
      </trkpt>
      <trkpt lat="45.44562" lon="5.4935">
        <ele>575.01</ele>
        <time>2021-02-11T10:39:33Z</time>
      </trkpt>
      <trkpt lat="45.44562" lon="5.4935">
        <ele>559.14</ele>
        <time>2021-02-11T10:39:34Z</time>
      </trkpt>
      <trkpt lat="45.44562" lon="5.4935">
        <ele>581.73</ele>
        <time>2021-02-11T10:39:35Z</time>
      </trkpt>
      <trkpt lat="45.44562" lon="5.4935">
        <ele>562.99</ele>
        <time>2021-02-11T10:39:36Z</time>
      </trkpt>
      <trkpt lat="45.44562" lon="5.4935">
        <ele>561.07</ele>
        <time>2021-02-11T10:39:38Z</time>
      </trkpt>
      <trkpt lat="45.44562" lon="5.4935">
        <ele>561.07</ele>
        <time>2021-02-11T10:39:43Z</time>
      </trkpt>
      <trkpt lat="45.44549" lon="5.49352">
        <ele>560.59</ele>
        <time>2021-02-11T10:39:55Z</time>
      </trkpt>
      <trkpt lat="45.44539" lon="5.49356">
        <ele>561.55</ele>
        <time>2021-02-11T10:40:03Z</time>
      </trkpt>
      <trkpt lat="45.44513" lon="5.49367">
        <ele>561.55</ele>
        <time>2021-02-11T10:40:23Z</time>
      </trkpt>
      <trkpt lat="45.44491" lon="5.49374">
        <ele>562.51</ele>
        <time>2021-02-11T10:40:42Z</time>
      </trkpt>
      <trkpt lat="45.44469" lon="5.49379">
        <ele>562.99</ele>
        <time>2021-02-11T10:40:59Z</time>
      </trkpt>
      <trkpt lat="45.44447" lon="5.4938">
        <ele>563.47</ele>
        <time>2021-02-11T10:41:17Z</time>
      </trkpt>
      <trkpt lat="45.44428" lon="5.49383">
        <ele>562.99</ele>
        <time>2021-02-11T10:41:32Z</time>
      </trkpt>
      <trkpt lat="45.44411" lon="5.49384">
        <ele>562.51</ele>
        <time>2021-02-11T10:41:46Z</time>
      </trkpt>
      <trkpt lat="45.44393" lon="5.49387">
        <ele>562.03</ele>
        <time>2021-02-11T10:41:59Z</time>
      </trkpt>
      <trkpt lat="45.44374" lon="5.49385">
        <ele>561.07</ele>
        <time>2021-02-11T10:42:13Z</time>
      </trkpt>
      <trkpt lat="45.44367" lon="5.49384">
        <ele>560.59</ele>
        <time>2021-02-11T10:44:08Z</time>
      </trkpt>
      <trkpt lat="45.44365" lon="5.49382">
        <ele>561.55</ele>
        <time>2021-02-11T10:44:10Z</time>
      </trkpt>
      <trkpt lat="45.44355" lon="5.4937">
        <ele>560.59</ele>
        <time>2021-02-11T10:44:22Z</time>
      </trkpt>
      <trkpt lat="45.44342" lon="5.49358">
        <ele>566.35</ele>
        <time>2021-02-11T10:44:34Z</time>
      </trkpt>
      <trkpt lat="45.44341" lon="5.49357">
        <ele>561.07</ele>
        <time>2021-02-11T10:44:35Z</time>
      </trkpt>
      <trkpt lat="45.44322" lon="5.49337">
        <ele>560.59</ele>
        <time>2021-02-11T10:44:52Z</time>
      </trkpt>
      <trkpt lat="45.44316" lon="5.4932">
        <ele>561.55</ele>
        <time>2021-02-11T10:45:03Z</time>
      </trkpt>
      <trkpt lat="45.44313" lon="5.49313">
        <ele>562.03</ele>
        <time>2021-02-11T10:45:10Z</time>
      </trkpt>
      <trkpt lat="45.44314" lon="5.49308">
        <ele>562.03</ele>
        <time>2021-02-11T10:45:13Z</time>
      </trkpt>
      <trkpt lat="45.44316" lon="5.49305">
        <ele>550.97</ele>
        <time>2021-02-11T10:45:16Z</time>
      </trkpt>
      <trkpt lat="45.44317" lon="5.49304">
        <ele>574.53</ele>
        <time>2021-02-11T10:45:17Z</time>
      </trkpt>
      <trkpt lat="45.44319" lon="5.493">
        <ele>562.03</ele>
        <time>2021-02-11T10:45:20Z</time>
      </trkpt>
      <trkpt lat="45.4433" lon="5.49282">
        <ele>563.47</ele>
        <time>2021-02-11T10:45:34Z</time>
      </trkpt>
      <trkpt lat="45.44342" lon="5.49268">
        <ele>563.47</ele>
        <time>2021-02-11T10:45:47Z</time>
      </trkpt>
      <trkpt lat="45.4435" lon="5.4926">
        <ele>563.47</ele>
        <time>2021-02-11T10:45:55Z</time>
      </trkpt>
      <trkpt lat="45.44364" lon="5.49242">
        <ele>564.91</ele>
        <time>2021-02-11T10:46:11Z</time>
      </trkpt>
      <trkpt lat="45.44368" lon="5.49238">
        <ele>565.39</ele>
        <time>2021-02-11T10:46:15Z</time>
      </trkpt>
      <trkpt lat="45.44373" lon="5.49229">
        <ele>566.35</ele>
        <time>2021-02-11T10:46:22Z</time>
      </trkpt>
      <trkpt lat="45.44383" lon="5.4921">
        <ele>567.8</ele>
        <time>2021-02-11T10:46:36Z</time>
      </trkpt>
      <trkpt lat="45.44385" lon="5.49203">
        <ele>568.28</ele>
        <time>2021-02-11T10:46:41Z</time>
      </trkpt>
      <trkpt lat="45.44391" lon="5.49179">
        <ele>569.24</ele>
        <time>2021-02-11T10:46:57Z</time>
      </trkpt>
      <trkpt lat="45.44392" lon="5.49167">
        <ele>576.93</ele>
        <time>2021-02-11T10:47:04Z</time>
      </trkpt>
      <trkpt lat="45.44391" lon="5.49166">
        <ele>570.2</ele>
        <time>2021-02-11T10:47:05Z</time>
      </trkpt>
      <trkpt lat="45.44388" lon="5.49141">
        <ele>570.68</ele>
        <time>2021-02-11T10:47:19Z</time>
      </trkpt>
      <trkpt lat="45.44389" lon="5.49115">
        <ele>571.64</ele>
        <time>2021-02-11T10:47:34Z</time>
      </trkpt>
      <trkpt lat="45.4439" lon="5.49097">
        <ele>571.64</ele>
        <time>2021-02-11T10:47:44Z</time>
      </trkpt>
      <trkpt lat="45.44396" lon="5.49078">
        <ele>571.64</ele>
        <time>2021-02-11T10:47:55Z</time>
      </trkpt>
      <trkpt lat="45.44402" lon="5.49057">
        <ele>570.68</ele>
        <time>2021-02-11T10:48:08Z</time>
      </trkpt>
      <trkpt lat="45.44404" lon="5.49048">
        <ele>570.68</ele>
        <time>2021-02-11T10:48:12Z</time>
      </trkpt>
      <trkpt lat="45.44405" lon="5.49038">
        <ele>570.68</ele>
        <time>2021-02-11T10:48:18Z</time>
      </trkpt>
      <trkpt lat="45.44404" lon="5.49021">
        <ele>570.2</ele>
        <time>2021-02-11T10:48:28Z</time>
      </trkpt>
      <trkpt lat="45.44404" lon="5.49009">
        <ele>570.2</ele>
        <time>2021-02-11T10:48:34Z</time>
      </trkpt>
      <trkpt lat="45.44405" lon="5.49002">
        <ele>566.83</ele>
        <time>2021-02-11T10:48:38Z</time>
      </trkpt>
      <trkpt lat="45.44405" lon="5.49001">
        <ele>570.2</ele>
        <time>2021-02-11T10:48:39Z</time>
      </trkpt>
      <trkpt lat="45.44401" lon="5.48975">
        <ele>569.72</ele>
        <time>2021-02-11T10:48:53Z</time>
      </trkpt>
      <trkpt lat="45.44406" lon="5.48954">
        <ele>569.24</ele>
        <time>2021-02-11T10:49:11Z</time>
      </trkpt>
      <trkpt lat="45.44406" lon="5.48954">
        <ele>569.24</ele>
        <time>2021-02-11T10:49:35Z</time>
      </trkpt>
      <trkpt lat="45.44406" lon="5.48954">
        <ele>568.76</ele>
        <time>2021-02-11T10:50:04Z</time>
      </trkpt>
      <trkpt lat="45.44406" lon="5.48954">
        <ele>569.24</ele>
        <time>2021-02-11T10:50:35Z</time>
      </trkpt>
      <trkpt lat="45.44406" lon="5.48953">
        <ele>569.24</ele>
        <time>2021-02-11T10:51:07Z</time>
      </trkpt>
      <trkpt lat="45.44407" lon="5.48953">
        <ele>569.24</ele>
        <time>2021-02-11T10:51:34Z</time>
      </trkpt>
      <trkpt lat="45.44407" lon="5.48953">
        <ele>569.24</ele>
        <time>2021-02-11T10:52:01Z</time>
      </trkpt>
      <trkpt lat="45.44407" lon="5.48952">
        <ele>569.24</ele>
        <time>2021-02-11T10:52:25Z</time>
      </trkpt>
      <trkpt lat="45.44407" lon="5.48952">
        <ele>569.24</ele>
        <time>2021-02-11T10:52:56Z</time>
      </trkpt>
      <trkpt lat="45.44408" lon="5.48951">
        <ele>569.24</ele>
        <time>2021-02-11T10:53:22Z</time>
      </trkpt>
      <trkpt lat="45.44412" lon="5.48951">
        <ele>568.76</ele>
        <time>2021-02-11T10:53:31Z</time>
      </trkpt>
      <trkpt lat="45.44417" lon="5.48952">
        <ele>569.72</ele>
        <time>2021-02-11T10:53:35Z</time>
      </trkpt>
      <trkpt lat="45.44433" lon="5.4896">
        <ele>568.76</ele>
        <time>2021-02-11T10:53:49Z</time>
      </trkpt>
      <trkpt lat="45.44437" lon="5.48959">
        <ele>569.24</ele>
        <time>2021-02-11T10:54:03Z</time>
      </trkpt>
      <trkpt lat="45.44437" lon="5.48956">
        <ele>569.24</ele>
        <time>2021-02-11T10:54:09Z</time>
      </trkpt>
      <trkpt lat="45.44439" lon="5.4895">
        <ele>570.2</ele>
        <time>2021-02-11T10:54:20Z</time>
      </trkpt>
      <trkpt lat="45.44442" lon="5.48952">
        <ele>569.72</ele>
        <time>2021-02-11T10:54:40Z</time>
      </trkpt>
      <trkpt lat="45.44441" lon="5.48954">
        <ele>569.72</ele>
        <time>2021-02-11T10:54:42Z</time>
      </trkpt>
      <trkpt lat="45.44436" lon="5.48959">
        <ele>569.24</ele>
        <time>2021-02-11T10:54:47Z</time>
      </trkpt>
      <trkpt lat="45.44429" lon="5.48951">
        <ele>568.76</ele>
        <time>2021-02-11T10:54:56Z</time>
      </trkpt>
      <trkpt lat="45.44431" lon="5.48941">
        <ele>568.28</ele>
        <time>2021-02-11T10:55:02Z</time>
      </trkpt>
      <trkpt lat="45.44436" lon="5.48932">
        <ele>567.32</ele>
        <time>2021-02-11T10:55:09Z</time>
      </trkpt>
      <trkpt lat="45.44444" lon="5.4892">
        <ele>566.83</ele>
        <time>2021-02-11T10:55:23Z</time>
      </trkpt>
      <trkpt lat="45.44452" lon="5.48923">
        <ele>566.83</ele>
        <time>2021-02-11T10:55:38Z</time>
      </trkpt>
      <trkpt lat="45.44451" lon="5.48922">
        <ele>566.83</ele>
        <time>2021-02-11T10:55:42Z</time>
      </trkpt>
      <trkpt lat="45.44445" lon="5.48929">
        <ele>576.45</ele>
        <time>2021-02-11T10:55:51Z</time>
      </trkpt>
      <trkpt lat="45.44443" lon="5.48927">
        <ele>567.32</ele>
        <time>2021-02-11T10:55:54Z</time>
      </trkpt>
      <trkpt lat="45.44427" lon="5.48916">
        <ele>567.32</ele>
        <time>2021-02-11T10:56:04Z</time>
      </trkpt>
      <trkpt lat="45.44409" lon="5.48904">
        <ele>567.8</ele>
        <time>2021-02-11T10:56:20Z</time>
      </trkpt>
      <trkpt lat="45.44405" lon="5.48903">
        <ele>568.28</ele>
        <time>2021-02-11T10:56:37Z</time>
      </trkpt>
      <trkpt lat="45.44405" lon="5.48904">
        <ele>568.28</ele>
        <time>2021-02-11T10:57:07Z</time>
      </trkpt>
      <trkpt lat="45.44403" lon="5.48901">
        <ele>561.55</ele>
        <time>2021-02-11T10:57:21Z</time>
      </trkpt>
      <trkpt lat="45.44403" lon="5.489">
        <ele>573.08</ele>
        <time>2021-02-11T10:57:22Z</time>
      </trkpt>
      <trkpt lat="45.44403" lon="5.48899">
        <ele>568.76</ele>
        <time>2021-02-11T10:57:23Z</time>
      </trkpt>
      <trkpt lat="45.44403" lon="5.48898">
        <ele>568.28</ele>
        <time>2021-02-11T10:57:24Z</time>
      </trkpt>
      <trkpt lat="45.44403" lon="5.48869">
        <ele>567.32</ele>
        <time>2021-02-11T10:57:42Z</time>
      </trkpt>
      <trkpt lat="45.44404" lon="5.48864">
        <ele>567.32</ele>
        <time>2021-02-11T10:57:45Z</time>
      </trkpt>
      <trkpt lat="45.44402" lon="5.48854">
        <ele>566.83</ele>
        <time>2021-02-11T10:57:51Z</time>
      </trkpt>
      <trkpt lat="45.44403" lon="5.4885">
        <ele>556.74</ele>
        <time>2021-02-11T10:57:53Z</time>
      </trkpt>
      <trkpt lat="45.44403" lon="5.48849">
        <ele>574.04</ele>
        <time>2021-02-11T10:57:54Z</time>
      </trkpt>
      <trkpt lat="45.44404" lon="5.48847">
        <ele>567.32</ele>
        <time>2021-02-11T10:57:55Z</time>
      </trkpt>
      <trkpt lat="45.44404" lon="5.48845">
        <ele>566.35</ele>
        <time>2021-02-11T10:57:57Z</time>
      </trkpt>
      <trkpt lat="45.44405" lon="5.48836">
        <ele>565.87</ele>
        <time>2021-02-11T10:58:02Z</time>
      </trkpt>
      <trkpt lat="45.44401" lon="5.48824">
        <ele>561.07</ele>
        <time>2021-02-11T11:11:03Z</time>
      </trkpt>
      <trkpt lat="45.44401" lon="5.48822">
        <ele>571.64</ele>
        <time>2021-02-11T11:11:04Z</time>
      </trkpt>
      <trkpt lat="45.44401" lon="5.48821">
        <ele>565.87</ele>
        <time>2021-02-11T11:11:05Z</time>
      </trkpt>
      <trkpt lat="45.44399" lon="5.4882">
        <ele>565.39</ele>
        <time>2021-02-11T11:11:07Z</time>
      </trkpt>
      <trkpt lat="45.44393" lon="5.48809">
        <ele>565.39</ele>
        <time>2021-02-11T11:11:14Z</time>
      </trkpt>
      <trkpt lat="45.4438" lon="5.48791">
        <ele>565.87</ele>
        <time>2021-02-11T11:11:29Z</time>
      </trkpt>
      <trkpt lat="45.44375" lon="5.48783">
        <ele>565.87</ele>
        <time>2021-02-11T11:11:35Z</time>
      </trkpt>
      <trkpt lat="45.44368" lon="5.48775">
        <ele>565.87</ele>
        <time>2021-02-11T11:11:42Z</time>
      </trkpt>
      <trkpt lat="45.44349" lon="5.48756">
        <ele>565.39</ele>
        <time>2021-02-11T11:12:00Z</time>
      </trkpt>
      <trkpt lat="45.44332" lon="5.48741">
        <ele>565.39</ele>
        <time>2021-02-11T11:12:16Z</time>
      </trkpt>
      <trkpt lat="45.44324" lon="5.48735">
        <ele>565.39</ele>
        <time>2021-02-11T11:12:24Z</time>
      </trkpt>
      <trkpt lat="45.44306" lon="5.48722">
        <ele>565.39</ele>
        <time>2021-02-11T11:12:39Z</time>
      </trkpt>
      <trkpt lat="45.44291" lon="5.48707">
        <ele>565.87</ele>
        <time>2021-02-11T11:12:53Z</time>
      </trkpt>
      <trkpt lat="45.44287" lon="5.48701">
        <ele>566.35</ele>
        <time>2021-02-11T11:12:59Z</time>
      </trkpt>
      <trkpt lat="45.44273" lon="5.48682">
        <ele>567.8</ele>
        <time>2021-02-11T11:13:14Z</time>
      </trkpt>
      <trkpt lat="45.44266" lon="5.4867">
        <ele>568.76</ele>
        <time>2021-02-11T11:13:25Z</time>
      </trkpt>
      <trkpt lat="45.44264" lon="5.48664">
        <ele>569.24</ele>
        <time>2021-02-11T11:13:30Z</time>
      </trkpt>
      <trkpt lat="45.4426" lon="5.48655">
        <ele>571.16</ele>
        <time>2021-02-11T11:13:37Z</time>
      </trkpt>
      <trkpt lat="45.44251" lon="5.48641">
        <ele>571.64</ele>
        <time>2021-02-11T11:13:49Z</time>
      </trkpt>
      <trkpt lat="45.44238" lon="5.48628">
        <ele>573.56</ele>
        <time>2021-02-11T11:14:01Z</time>
      </trkpt>
      <trkpt lat="45.44227" lon="5.48618">
        <ele>575.49</ele>
        <time>2021-02-11T11:14:13Z</time>
      </trkpt>
      <trkpt lat="45.44216" lon="5.48605">
        <ele>577.41</ele>
        <time>2021-02-11T11:14:29Z</time>
      </trkpt>
      <trkpt lat="45.44203" lon="5.48598">
        <ele>578.85</ele>
        <time>2021-02-11T11:14:42Z</time>
      </trkpt>
      <trkpt lat="45.44188" lon="5.48585">
        <ele>580.77</ele>
        <time>2021-02-11T11:14:57Z</time>
      </trkpt>
      <trkpt lat="45.44187" lon="5.48584">
        <ele>580.77</ele>
        <time>2021-02-11T11:14:58Z</time>
      </trkpt>
      <trkpt lat="45.44171" lon="5.4857">
        <ele>582.22</ele>
        <time>2021-02-11T11:15:13Z</time>
      </trkpt>
      <trkpt lat="45.44165" lon="5.48565">
        <ele>583.18</ele>
        <time>2021-02-11T11:15:19Z</time>
      </trkpt>
      <trkpt lat="45.44161" lon="5.4856">
        <ele>583.66</ele>
        <time>2021-02-11T11:15:24Z</time>
      </trkpt>
      <trkpt lat="45.44147" lon="5.48543">
        <ele>585.1</ele>
        <time>2021-02-11T11:15:40Z</time>
      </trkpt>
      <trkpt lat="45.44136" lon="5.48529">
        <ele>585.58</ele>
        <time>2021-02-11T11:15:53Z</time>
      </trkpt>
      <trkpt lat="45.44121" lon="5.48511">
        <ele>586.06</ele>
        <time>2021-02-11T11:16:09Z</time>
      </trkpt>
      <trkpt lat="45.44108" lon="5.48494">
        <ele>586.06</ele>
        <time>2021-02-11T11:16:24Z</time>
      </trkpt>
      <trkpt lat="45.44096" lon="5.48478">
        <ele>585.58</ele>
        <time>2021-02-11T11:16:38Z</time>
      </trkpt>
      <trkpt lat="45.44095" lon="5.48476">
        <ele>578.37</ele>
        <time>2021-02-11T11:16:39Z</time>
      </trkpt>
      <trkpt lat="45.44094" lon="5.48475">
        <ele>590.39</ele>
        <time>2021-02-11T11:16:40Z</time>
      </trkpt>
      <trkpt lat="45.44093" lon="5.48474">
        <ele>586.06</ele>
        <time>2021-02-11T11:16:41Z</time>
      </trkpt>
      <trkpt lat="45.4408" lon="5.48456">
        <ele>585.1</ele>
        <time>2021-02-11T11:16:55Z</time>
      </trkpt>
      <trkpt lat="45.44079" lon="5.48455">
        <ele>585.1</ele>
        <time>2021-02-11T11:16:56Z</time>
      </trkpt>
      <trkpt lat="45.44066" lon="5.48437">
        <ele>585.1</ele>
        <time>2021-02-11T11:17:10Z</time>
      </trkpt>
      <trkpt lat="45.44065" lon="5.48434">
        <ele>584.62</ele>
        <time>2021-02-11T11:17:12Z</time>
      </trkpt>
      <trkpt lat="45.44056" lon="5.48417">
        <ele>585.1</ele>
        <time>2021-02-11T11:17:27Z</time>
      </trkpt>
      <trkpt lat="45.44052" lon="5.48411">
        <ele>584.62</ele>
        <time>2021-02-11T11:17:43Z</time>
      </trkpt>
      <trkpt lat="45.44052" lon="5.48407">
        <ele>589.91</ele>
        <time>2021-02-11T11:17:53Z</time>
      </trkpt>
      <trkpt lat="45.44052" lon="5.48406">
        <ele>585.1</ele>
        <time>2021-02-11T11:17:54Z</time>
      </trkpt>
      <trkpt lat="45.44053" lon="5.48405">
        <ele>581.25</ele>
        <time>2021-02-11T11:17:56Z</time>
      </trkpt>
      <trkpt lat="45.44053" lon="5.48405">
        <ele>588.95</ele>
        <time>2021-02-11T11:17:57Z</time>
      </trkpt>
      <trkpt lat="45.44053" lon="5.48405">
        <ele>580.77</ele>
        <time>2021-02-11T11:17:58Z</time>
      </trkpt>
      <trkpt lat="45.44053" lon="5.48405">
        <ele>587.98</ele>
        <time>2021-02-11T11:17:59Z</time>
      </trkpt>
      <trkpt lat="45.44053" lon="5.48404">
        <ele>565.87</ele>
        <time>2021-02-11T11:18:01Z</time>
      </trkpt>
      <trkpt lat="45.44053" lon="5.48404">
        <ele>586.06</ele>
        <time>2021-02-11T11:18:02Z</time>
      </trkpt>
      <trkpt lat="45.44053" lon="5.48404">
        <ele>579.33</ele>
        <time>2021-02-11T11:18:03Z</time>
      </trkpt>
      <trkpt lat="45.44053" lon="5.48404">
        <ele>588.95</ele>
        <time>2021-02-11T11:18:04Z</time>
      </trkpt>
      <trkpt lat="45.44053" lon="5.48404">
        <ele>585.58</ele>
        <time>2021-02-11T11:18:05Z</time>
      </trkpt>
      <trkpt lat="45.44054" lon="5.48406">
        <ele>585.1</ele>
        <time>2021-02-11T11:18:23Z</time>
      </trkpt>
      <trkpt lat="45.44054" lon="5.48406">
        <ele>581.25</ele>
        <time>2021-02-11T11:18:27Z</time>
      </trkpt>
      <trkpt lat="45.44054" lon="5.48407">
        <ele>573.56</ele>
        <time>2021-02-11T11:18:28Z</time>
      </trkpt>
      <trkpt lat="45.44054" lon="5.48407">
        <ele>597.12</ele>
        <time>2021-02-11T11:18:29Z</time>
      </trkpt>
      <trkpt lat="45.44054" lon="5.48407">
        <ele>586.06</ele>
        <time>2021-02-11T11:18:30Z</time>
      </trkpt>
      <trkpt lat="45.44054" lon="5.48407">
        <ele>585.1</ele>
        <time>2021-02-11T11:18:32Z</time>
      </trkpt>
      <trkpt lat="45.44053" lon="5.48407">
        <ele>577.89</ele>
        <time>2021-02-11T11:18:34Z</time>
      </trkpt>
      <trkpt lat="45.44054" lon="5.48407">
        <ele>589.91</ele>
        <time>2021-02-11T11:18:35Z</time>
      </trkpt>
      <trkpt lat="45.44054" lon="5.48407">
        <ele>585.58</ele>
        <time>2021-02-11T11:18:36Z</time>
      </trkpt>
      <trkpt lat="45.44054" lon="5.48407">
        <ele>574.04</ele>
        <time>2021-02-11T11:18:38Z</time>
      </trkpt>
      <trkpt lat="45.44054" lon="5.48407">
        <ele>594.23</ele>
        <time>2021-02-11T11:18:39Z</time>
      </trkpt>
      <trkpt lat="45.44054" lon="5.48407">
        <ele>586.06</ele>
        <time>2021-02-11T11:18:40Z</time>
      </trkpt>
      <trkpt lat="45.44054" lon="5.48407">
        <ele>585.1</ele>
        <time>2021-02-11T11:18:42Z</time>
      </trkpt>
      <trkpt lat="45.44054" lon="5.48407">
        <ele>585.1</ele>
        <time>2021-02-11T11:19:00Z</time>
      </trkpt>
      <trkpt lat="45.44054" lon="5.48405">
        <ele>582.22</ele>
        <time>2021-02-11T11:19:08Z</time>
      </trkpt>
      <trkpt lat="45.44054" lon="5.48405">
        <ele>589.91</ele>
        <time>2021-02-11T11:19:09Z</time>
      </trkpt>
      <trkpt lat="45.44054" lon="5.48405">
        <ele>585.58</ele>
        <time>2021-02-11T11:19:10Z</time>
      </trkpt>
      <trkpt lat="45.44054" lon="5.48405">
        <ele>585.1</ele>
        <time>2021-02-11T11:19:12Z</time>
      </trkpt>
      <trkpt lat="45.44056" lon="5.48383">
        <ele>584.62</ele>
        <time>2021-02-11T11:19:28Z</time>
      </trkpt>
      <trkpt lat="45.44054" lon="5.48368">
        <ele>585.58</ele>
        <time>2021-02-11T11:19:44Z</time>
      </trkpt>
      <trkpt lat="45.44055" lon="5.48352">
        <ele>585.1</ele>
        <time>2021-02-11T11:19:54Z</time>
      </trkpt>
      <trkpt lat="45.44055" lon="5.48347">
        <ele>585.1</ele>
        <time>2021-02-11T11:19:57Z</time>
      </trkpt>
      <trkpt lat="45.44051" lon="5.48321">
        <ele>585.58</ele>
        <time>2021-02-11T11:20:11Z</time>
      </trkpt>
      <trkpt lat="45.44051" lon="5.48313">
        <ele>585.58</ele>
        <time>2021-02-11T11:20:16Z</time>
      </trkpt>
      <trkpt lat="45.44052" lon="5.48295">
        <ele>585.58</ele>
        <time>2021-02-11T11:20:27Z</time>
      </trkpt>
      <trkpt lat="45.44052" lon="5.4827">
        <ele>585.58</ele>
        <time>2021-02-11T11:20:41Z</time>
      </trkpt>
      <trkpt lat="45.44051" lon="5.48254">
        <ele>586.06</ele>
        <time>2021-02-11T11:20:51Z</time>
      </trkpt>
      <trkpt lat="45.44051" lon="5.48249">
        <ele>586.06</ele>
        <time>2021-02-11T11:20:54Z</time>
      </trkpt>
      <trkpt lat="45.44051" lon="5.48239">
        <ele>585.58</ele>
        <time>2021-02-11T11:21:01Z</time>
      </trkpt>
      <trkpt lat="45.4405" lon="5.48229">
        <ele>586.06</ele>
        <time>2021-02-11T11:21:06Z</time>
      </trkpt>
      <trkpt lat="45.44048" lon="5.4821">
        <ele>585.58</ele>
        <time>2021-02-11T11:21:18Z</time>
      </trkpt>
      <trkpt lat="45.44047" lon="5.48201">
        <ele>585.58</ele>
        <time>2021-02-11T11:21:23Z</time>
      </trkpt>
      <trkpt lat="45.44044" lon="5.4818">
        <ele>586.06</ele>
        <time>2021-02-11T11:21:35Z</time>
      </trkpt>
      <trkpt lat="45.44043" lon="5.48162">
        <ele>586.06</ele>
        <time>2021-02-11T11:21:46Z</time>
      </trkpt>
      <trkpt lat="45.44037" lon="5.48139">
        <ele>586.06</ele>
        <time>2021-02-11T11:22:02Z</time>
      </trkpt>
      <trkpt lat="45.44036" lon="5.48126">
        <ele>586.06</ele>
        <time>2021-02-11T11:22:10Z</time>
      </trkpt>
      <trkpt lat="45.44035" lon="5.48117">
        <ele>586.06</ele>
        <time>2021-02-11T11:22:16Z</time>
      </trkpt>
      <trkpt lat="45.44031" lon="5.48105">
        <ele>586.06</ele>
        <time>2021-02-11T11:22:23Z</time>
      </trkpt>
      <trkpt lat="45.4403" lon="5.48102">
        <ele>577.89</ele>
        <time>2021-02-11T11:22:25Z</time>
      </trkpt>
      <trkpt lat="45.4403" lon="5.48101">
        <ele>591.35</ele>
        <time>2021-02-11T11:22:26Z</time>
      </trkpt>
      <trkpt lat="45.44029" lon="5.48099">
        <ele>586.54</ele>
        <time>2021-02-11T11:22:27Z</time>
      </trkpt>
      <trkpt lat="45.44027" lon="5.48094">
        <ele>586.06</ele>
        <time>2021-02-11T11:22:31Z</time>
      </trkpt>
      <trkpt lat="45.44013" lon="5.48089">
        <ele>586.06</ele>
        <time>2021-02-11T11:22:46Z</time>
      </trkpt>
      <trkpt lat="45.44" lon="5.48087">
        <ele>586.54</ele>
        <time>2021-02-11T11:22:58Z</time>
      </trkpt>
      <trkpt lat="45.43993" lon="5.48089">
        <ele>587.5</ele>
        <time>2021-02-11T11:23:04Z</time>
      </trkpt>
      <trkpt lat="45.43988" lon="5.48089">
        <ele>587.02</ele>
        <time>2021-02-11T11:23:08Z</time>
      </trkpt>
      <trkpt lat="45.4397" lon="5.48092">
        <ele>587.98</ele>
        <time>2021-02-11T11:23:23Z</time>
      </trkpt>
      <trkpt lat="45.43953" lon="5.48092">
        <ele>589.43</ele>
        <time>2021-02-11T11:23:39Z</time>
      </trkpt>
      <trkpt lat="45.4394" lon="5.48094">
        <ele>589.91</ele>
        <time>2021-02-11T11:23:50Z</time>
      </trkpt>
      <trkpt lat="45.43936" lon="5.48096">
        <ele>590.39</ele>
        <time>2021-02-11T11:23:53Z</time>
      </trkpt>
      <trkpt lat="45.43929" lon="5.48094">
        <ele>586.54</ele>
        <time>2021-02-11T11:24:00Z</time>
      </trkpt>
      <trkpt lat="45.43928" lon="5.48094">
        <ele>593.75</ele>
        <time>2021-02-11T11:24:01Z</time>
      </trkpt>
      <trkpt lat="45.43917" lon="5.48094">
        <ele>591.35</ele>
        <time>2021-02-11T11:24:11Z</time>
      </trkpt>
      <trkpt lat="45.43899" lon="5.48089">
        <ele>592.31</ele>
        <time>2021-02-11T11:24:27Z</time>
      </trkpt>
      <trkpt lat="45.43883" lon="5.4808">
        <ele>594.23</ele>
        <time>2021-02-11T11:24:42Z</time>
      </trkpt>
      <trkpt lat="45.4387" lon="5.48068">
        <ele>594.71</ele>
        <time>2021-02-11T11:24:56Z</time>
      </trkpt>
      <trkpt lat="45.43867" lon="5.48064">
        <ele>591.83</ele>
        <time>2021-02-11T11:25:00Z</time>
      </trkpt>
      <trkpt lat="45.43866" lon="5.48063">
        <ele>587.02</ele>
        <time>2021-02-11T11:25:01Z</time>
      </trkpt>
      <trkpt lat="45.43865" lon="5.48062">
        <ele>603.85</ele>
        <time>2021-02-11T11:25:02Z</time>
      </trkpt>
      <trkpt lat="45.43864" lon="5.48061">
        <ele>596.15</ele>
        <time>2021-02-11T11:25:03Z</time>
      </trkpt>
      <trkpt lat="45.43862" lon="5.48059">
        <ele>595.19</ele>
        <time>2021-02-11T11:25:05Z</time>
      </trkpt>
      <trkpt lat="45.43848" lon="5.48038">
        <ele>595.67</ele>
        <time>2021-02-11T11:25:21Z</time>
      </trkpt>
      <trkpt lat="45.43836" lon="5.48018">
        <ele>595.67</ele>
        <time>2021-02-11T11:25:35Z</time>
      </trkpt>
      <trkpt lat="45.43822" lon="5.47997">
        <ele>594.71</ele>
        <time>2021-02-11T11:25:52Z</time>
      </trkpt>
      <trkpt lat="45.43808" lon="5.47974">
        <ele>594.23</ele>
        <time>2021-02-11T11:26:09Z</time>
      </trkpt>
      <trkpt lat="45.43795" lon="5.47956">
        <ele>593.75</ele>
        <time>2021-02-11T11:26:23Z</time>
      </trkpt>
      <trkpt lat="45.43783" lon="5.47939">
        <ele>593.27</ele>
        <time>2021-02-11T11:26:37Z</time>
      </trkpt>
      <trkpt lat="45.43771" lon="5.4792">
        <ele>592.79</ele>
        <time>2021-02-11T11:26:51Z</time>
      </trkpt>
      <trkpt lat="45.43755" lon="5.479">
        <ele>592.31</ele>
        <time>2021-02-11T11:27:08Z</time>
      </trkpt>
      <trkpt lat="45.43742" lon="5.47882">
        <ele>592.31</ele>
        <time>2021-02-11T11:27:23Z</time>
      </trkpt>
      <trkpt lat="45.43726" lon="5.47859">
        <ele>591.83</ele>
        <time>2021-02-11T11:27:41Z</time>
      </trkpt>
      <trkpt lat="45.43712" lon="5.47839">
        <ele>592.31</ele>
        <time>2021-02-11T11:27:57Z</time>
      </trkpt>
      <trkpt lat="45.43696" lon="5.47817">
        <ele>591.83</ele>
        <time>2021-02-11T11:28:15Z</time>
      </trkpt>
      <trkpt lat="45.43692" lon="5.47811">
        <ele>587.98</ele>
        <time>2021-02-11T11:28:20Z</time>
      </trkpt>
      <trkpt lat="45.43691" lon="5.4781">
        <ele>598.56</ele>
        <time>2021-02-11T11:28:21Z</time>
      </trkpt>
      <trkpt lat="45.4369" lon="5.47809">
        <ele>583.18</ele>
        <time>2021-02-11T11:28:22Z</time>
      </trkpt>
      <trkpt lat="45.43689" lon="5.47807">
        <ele>601.44</ele>
        <time>2021-02-11T11:28:23Z</time>
      </trkpt>
      <trkpt lat="45.43688" lon="5.47806">
        <ele>584.62</ele>
        <time>2021-02-11T11:28:24Z</time>
      </trkpt>
      <trkpt lat="45.43687" lon="5.47805">
        <ele>600</ele>
        <time>2021-02-11T11:28:25Z</time>
      </trkpt>
      <trkpt lat="45.43686" lon="5.47804">
        <ele>592.79</ele>
        <time>2021-02-11T11:28:26Z</time>
      </trkpt>
      <trkpt lat="45.43673" lon="5.47783">
        <ele>591.35</ele>
        <time>2021-02-11T11:28:42Z</time>
      </trkpt>
      <trkpt lat="45.43659" lon="5.47765">
        <ele>590.87</ele>
        <time>2021-02-11T11:28:56Z</time>
      </trkpt>
      <trkpt lat="45.43647" lon="5.47744">
        <ele>590.39</ele>
        <time>2021-02-11T11:29:11Z</time>
      </trkpt>
      <trkpt lat="45.43632" lon="5.47724">
        <ele>589.91</ele>
        <time>2021-02-11T11:29:28Z</time>
      </trkpt>
      <trkpt lat="45.43627" lon="5.47717">
        <ele>589.43</ele>
        <time>2021-02-11T11:29:33Z</time>
      </trkpt>
      <trkpt lat="45.43617" lon="5.47703">
        <ele>588.95</ele>
        <time>2021-02-11T11:29:49Z</time>
      </trkpt>
      <trkpt lat="45.43611" lon="5.47695">
        <ele>588.95</ele>
        <time>2021-02-11T11:30:02Z</time>
      </trkpt>
      <trkpt lat="45.43609" lon="5.47689">
        <ele>584.14</ele>
        <time>2021-02-11T11:30:06Z</time>
      </trkpt>
      <trkpt lat="45.43607" lon="5.47686">
        <ele>590.87</ele>
        <time>2021-02-11T11:30:08Z</time>
      </trkpt>
      <trkpt lat="45.43594" lon="5.47666">
        <ele>587.5</ele>
        <time>2021-02-11T11:30:23Z</time>
      </trkpt>
      <trkpt lat="45.43577" lon="5.47642">
        <ele>587.02</ele>
        <time>2021-02-11T11:30:42Z</time>
      </trkpt>
      <trkpt lat="45.43564" lon="5.47623">
        <ele>586.06</ele>
        <time>2021-02-11T11:30:57Z</time>
      </trkpt>
      <trkpt lat="45.4355" lon="5.47603">
        <ele>585.1</ele>
        <time>2021-02-11T11:31:12Z</time>
      </trkpt>
      <trkpt lat="45.43543" lon="5.47593">
        <ele>582.22</ele>
        <time>2021-02-11T11:31:20Z</time>
      </trkpt>
      <trkpt lat="45.43542" lon="5.47592">
        <ele>592.31</ele>
        <time>2021-02-11T11:31:22Z</time>
      </trkpt>
      <trkpt lat="45.43542" lon="5.47592">
        <ele>566.35</ele>
        <time>2021-02-11T11:31:23Z</time>
      </trkpt>
      <trkpt lat="45.43542" lon="5.47592">
        <ele>586.06</ele>
        <time>2021-02-11T11:31:26Z</time>
      </trkpt>
      <trkpt lat="45.43542" lon="5.47592">
        <ele>575.97</ele>
        <time>2021-02-11T11:31:27Z</time>
      </trkpt>
      <trkpt lat="45.43542" lon="5.47592">
        <ele>591.35</ele>
        <time>2021-02-11T11:31:28Z</time>
      </trkpt>
      <trkpt lat="45.43542" lon="5.47592">
        <ele>585.58</ele>
        <time>2021-02-11T11:31:29Z</time>
      </trkpt>
      <trkpt lat="45.43541" lon="5.4759">
        <ele>584.62</ele>
        <time>2021-02-11T11:31:31Z</time>
      </trkpt>
      <trkpt lat="45.43536" lon="5.47583">
        <ele>577.41</ele>
        <time>2021-02-11T11:31:37Z</time>
      </trkpt>
      <trkpt lat="45.43535" lon="5.47582">
        <ele>593.75</ele>
        <time>2021-02-11T11:31:38Z</time>
      </trkpt>
      <trkpt lat="45.43534" lon="5.4758">
        <ele>587.02</ele>
        <time>2021-02-11T11:31:39Z</time>
      </trkpt>
      <trkpt lat="45.43532" lon="5.47577">
        <ele>584.14</ele>
        <time>2021-02-11T11:31:42Z</time>
      </trkpt>
      <trkpt lat="45.43529" lon="5.47572">
        <ele>577.41</ele>
        <time>2021-02-11T11:31:46Z</time>
      </trkpt>
      <trkpt lat="45.43528" lon="5.47571">
        <ele>589.91</ele>
        <time>2021-02-11T11:31:47Z</time>
      </trkpt>
      <trkpt lat="45.43527" lon="5.4757">
        <ele>584.62</ele>
        <time>2021-02-11T11:31:48Z</time>
      </trkpt>
      <trkpt lat="45.43525" lon="5.47568">
        <ele>584.14</ele>
        <time>2021-02-11T11:31:50Z</time>
      </trkpt>
      <trkpt lat="45.43512" lon="5.47551">
        <ele>583.18</ele>
        <time>2021-02-11T11:32:05Z</time>
      </trkpt>
      <trkpt lat="45.435" lon="5.47537">
        <ele>574.53</ele>
        <time>2021-02-11T11:32:17Z</time>
      </trkpt>
      <trkpt lat="45.435" lon="5.47536">
        <ele>588.46</ele>
        <time>2021-02-11T11:32:18Z</time>
      </trkpt>
      <trkpt lat="45.43499" lon="5.47535">
        <ele>583.18</ele>
        <time>2021-02-11T11:32:19Z</time>
      </trkpt>
      <trkpt lat="45.43497" lon="5.47533">
        <ele>582.22</ele>
        <time>2021-02-11T11:32:21Z</time>
      </trkpt>
      <trkpt lat="45.43489" lon="5.47519">
        <ele>575.01</ele>
        <time>2021-02-11T11:32:31Z</time>
      </trkpt>
      <trkpt lat="45.43489" lon="5.47518">
        <ele>591.35</ele>
        <time>2021-02-11T11:32:32Z</time>
      </trkpt>
      <trkpt lat="45.43488" lon="5.47517">
        <ele>583.66</ele>
        <time>2021-02-11T11:32:33Z</time>
      </trkpt>
      <trkpt lat="45.43486" lon="5.47515">
        <ele>581.73</ele>
        <time>2021-02-11T11:32:35Z</time>
      </trkpt>
      <trkpt lat="45.43486" lon="5.47514">
        <ele>566.83</ele>
        <time>2021-02-11T11:32:36Z</time>
      </trkpt>
      <trkpt lat="45.43486" lon="5.47513">
        <ele>592.31</ele>
        <time>2021-02-11T11:32:37Z</time>
      </trkpt>
      <trkpt lat="45.43486" lon="5.47512">
        <ele>581.73</ele>
        <time>2021-02-11T11:32:38Z</time>
      </trkpt>
      <trkpt lat="45.43486" lon="5.47512">
        <ele>582.22</ele>
        <time>2021-02-11T11:32:54Z</time>
      </trkpt>
      <trkpt lat="45.43486" lon="5.47512">
        <ele>581.73</ele>
        <time>2021-02-11T11:32:56Z</time>
      </trkpt>
      <trkpt lat="45.43487" lon="5.47517">
        <ele>581.25</ele>
        <time>2021-02-11T11:32:59Z</time>
      </trkpt>
      <trkpt lat="45.43486" lon="5.47521">
        <ele>581.73</ele>
        <time>2021-02-11T11:33:02Z</time>
      </trkpt>
      <trkpt lat="45.43484" lon="5.47523">
        <ele>581.73</ele>
        <time>2021-02-11T11:33:04Z</time>
      </trkpt>
      <trkpt lat="45.43474" lon="5.47524">
        <ele>575.97</ele>
        <time>2021-02-11T11:33:15Z</time>
      </trkpt>
      <trkpt lat="45.43473" lon="5.47524">
        <ele>587.5</ele>
        <time>2021-02-11T11:33:16Z</time>
      </trkpt>
      <trkpt lat="45.43469" lon="5.47523">
        <ele>581.73</ele>
        <time>2021-02-11T11:33:19Z</time>
      </trkpt>
      <trkpt lat="45.43457" lon="5.47519">
        <ele>585.58</ele>
        <time>2021-02-11T11:33:29Z</time>
      </trkpt>
      <trkpt lat="45.43456" lon="5.47519">
        <ele>582.22</ele>
        <time>2021-02-11T11:33:30Z</time>
      </trkpt>
      <trkpt lat="45.43455" lon="5.47518">
        <ele>569.72</ele>
        <time>2021-02-11T11:33:31Z</time>
      </trkpt>
      <trkpt lat="45.43454" lon="5.47518">
        <ele>589.91</ele>
        <time>2021-02-11T11:33:32Z</time>
      </trkpt>
      <trkpt lat="45.43453" lon="5.47517">
        <ele>582.22</ele>
        <time>2021-02-11T11:33:33Z</time>
      </trkpt>
      <trkpt lat="45.43451" lon="5.47516">
        <ele>580.77</ele>
        <time>2021-02-11T11:33:35Z</time>
      </trkpt>
      <trkpt lat="45.43433" lon="5.47508">
        <ele>580.77</ele>
        <time>2021-02-11T11:33:51Z</time>
      </trkpt>
      <trkpt lat="45.4342" lon="5.47502">
        <ele>570.68</ele>
        <time>2021-02-11T11:34:01Z</time>
      </trkpt>
      <trkpt lat="45.43419" lon="5.47502">
        <ele>584.62</ele>
        <time>2021-02-11T11:34:02Z</time>
      </trkpt>
      <trkpt lat="45.43417" lon="5.475">
        <ele>569.72</ele>
        <time>2021-02-11T11:34:04Z</time>
      </trkpt>
      <trkpt lat="45.43416" lon="5.475">
        <ele>590.87</ele>
        <time>2021-02-11T11:34:05Z</time>
      </trkpt>
      <trkpt lat="45.43415" lon="5.475">
        <ele>581.25</ele>
        <time>2021-02-11T11:34:06Z</time>
      </trkpt>
      <trkpt lat="45.43413" lon="5.47499">
        <ele>580.29</ele>
        <time>2021-02-11T11:34:08Z</time>
      </trkpt>
      <trkpt lat="45.43393" lon="5.47487">
        <ele>579.33</ele>
        <time>2021-02-11T11:34:25Z</time>
      </trkpt>
      <trkpt lat="45.43381" lon="5.47477">
        <ele>572.6</ele>
        <time>2021-02-11T11:34:36Z</time>
      </trkpt>
      <trkpt lat="45.4338" lon="5.47477">
        <ele>583.18</ele>
        <time>2021-02-11T11:34:37Z</time>
      </trkpt>
      <trkpt lat="45.43379" lon="5.47476">
        <ele>572.12</ele>
        <time>2021-02-11T11:34:38Z</time>
      </trkpt>
      <trkpt lat="45.43378" lon="5.47475">
        <ele>583.66</ele>
        <time>2021-02-11T11:34:39Z</time>
      </trkpt>
      <trkpt lat="45.43376" lon="5.47474">
        <ele>579.33</ele>
        <time>2021-02-11T11:34:40Z</time>
      </trkpt>
      <trkpt lat="45.43358" lon="5.47457">
        <ele>578.37</ele>
        <time>2021-02-11T11:34:56Z</time>
      </trkpt>
      <trkpt lat="45.4334" lon="5.47439">
        <ele>577.41</ele>
        <time>2021-02-11T11:35:13Z</time>
      </trkpt>
      <trkpt lat="45.43325" lon="5.47423">
        <ele>576.93</ele>
        <time>2021-02-11T11:35:28Z</time>
      </trkpt>
      <trkpt lat="45.43305" lon="5.47401">
        <ele>575.97</ele>
        <time>2021-02-11T11:35:46Z</time>
      </trkpt>
      <trkpt lat="45.43287" lon="5.47381">
        <ele>575.49</ele>
        <time>2021-02-11T11:36:04Z</time>
      </trkpt>
      <trkpt lat="45.4327" lon="5.47364">
        <ele>575.01</ele>
        <time>2021-02-11T11:36:20Z</time>
      </trkpt>
      <trkpt lat="45.43253" lon="5.47346">
        <ele>574.04</ele>
        <time>2021-02-11T11:36:35Z</time>
      </trkpt>
      <trkpt lat="45.43237" lon="5.4733">
        <ele>573.56</ele>
        <time>2021-02-11T11:36:50Z</time>
      </trkpt>
      <trkpt lat="45.43235" lon="5.47326">
        <ele>573.56</ele>
        <time>2021-02-11T11:36:52Z</time>
      </trkpt>
      <trkpt lat="45.43222" lon="5.47309">
        <ele>573.08</ele>
        <time>2021-02-11T11:37:06Z</time>
      </trkpt>
      <trkpt lat="45.43204" lon="5.4729">
        <ele>572.12</ele>
        <time>2021-02-11T11:37:23Z</time>
      </trkpt>
      <trkpt lat="45.43188" lon="5.47274">
        <ele>571.64</ele>
        <time>2021-02-11T11:37:38Z</time>
      </trkpt>
      <trkpt lat="45.43186" lon="5.47273">
        <ele>571.64</ele>
        <time>2021-02-11T11:37:39Z</time>
      </trkpt>
      <trkpt lat="45.43167" lon="5.47262">
        <ele>570.68</ele>
        <time>2021-02-11T11:37:56Z</time>
      </trkpt>
      <trkpt lat="45.43144" lon="5.4726">
        <ele>570.2</ele>
        <time>2021-02-11T11:38:12Z</time>
      </trkpt>
      <trkpt lat="45.43125" lon="5.47255">
        <ele>569.72</ele>
        <time>2021-02-11T11:38:28Z</time>
      </trkpt>
      <trkpt lat="45.43124" lon="5.47255">
        <ele>561.55</ele>
        <time>2021-02-11T11:38:29Z</time>
      </trkpt>
      <trkpt lat="45.43123" lon="5.47255">
        <ele>573.08</ele>
        <time>2021-02-11T11:38:30Z</time>
      </trkpt>
      <trkpt lat="45.43122" lon="5.47255">
        <ele>558.66</ele>
        <time>2021-02-11T11:38:31Z</time>
      </trkpt>
      <trkpt lat="45.43122" lon="5.47254">
        <ele>558.66</ele>
        <time>2021-02-11T11:38:32Z</time>
      </trkpt>
      <trkpt lat="45.43121" lon="5.47254">
        <ele>580.77</ele>
        <time>2021-02-11T11:38:34Z</time>
      </trkpt>
      <trkpt lat="45.43122" lon="5.47254">
        <ele>569.72</ele>
        <time>2021-02-11T11:38:35Z</time>
      </trkpt>
      <trkpt lat="45.43122" lon="5.47254">
        <ele>564.43</ele>
        <time>2021-02-11T11:38:37Z</time>
      </trkpt>
      <trkpt lat="45.43122" lon="5.47254">
        <ele>576.93</ele>
        <time>2021-02-11T11:38:38Z</time>
      </trkpt>
      <trkpt lat="45.43122" lon="5.47254">
        <ele>570.2</ele>
        <time>2021-02-11T11:38:39Z</time>
      </trkpt>
      <trkpt lat="45.43121" lon="5.47254">
        <ele>569.72</ele>
        <time>2021-02-11T11:38:41Z</time>
      </trkpt>
      <trkpt lat="45.43105" lon="5.4725">
        <ele>568.76</ele>
        <time>2021-02-11T11:38:55Z</time>
      </trkpt>
      <trkpt lat="45.43084" lon="5.47241">
        <ele>567.8</ele>
        <time>2021-02-11T11:39:12Z</time>
      </trkpt>
      <trkpt lat="45.43079" lon="5.4724">
        <ele>567.8</ele>
        <time>2021-02-11T11:39:16Z</time>
      </trkpt>
      <trkpt lat="45.43074" lon="5.47238">
        <ele>567.32</ele>
        <time>2021-02-11T11:39:21Z</time>
      </trkpt>
      <trkpt lat="45.43052" lon="5.47226">
        <ele>566.35</ele>
        <time>2021-02-11T11:39:38Z</time>
      </trkpt>
      <trkpt lat="45.43038" lon="5.47219">
        <ele>560.59</ele>
        <time>2021-02-11T11:39:49Z</time>
      </trkpt>
      <trkpt lat="45.43037" lon="5.47218">
        <ele>570.2</ele>
        <time>2021-02-11T11:39:50Z</time>
      </trkpt>
      <trkpt lat="45.43036" lon="5.47217">
        <ele>566.35</ele>
        <time>2021-02-11T11:39:51Z</time>
      </trkpt>
      <trkpt lat="45.43016" lon="5.47203">
        <ele>565.39</ele>
        <time>2021-02-11T11:40:08Z</time>
      </trkpt>
      <trkpt lat="45.42999" lon="5.47193">
        <ele>564.91</ele>
        <time>2021-02-11T11:40:23Z</time>
      </trkpt>
      <trkpt lat="45.42975" lon="5.47181">
        <ele>564.91</ele>
        <time>2021-02-11T11:40:43Z</time>
      </trkpt>
      <trkpt lat="45.42959" lon="5.47175">
        <ele>564.43</ele>
        <time>2021-02-11T11:40:56Z</time>
      </trkpt>
      <trkpt lat="45.42935" lon="5.47165">
        <ele>563.47</ele>
        <time>2021-02-11T11:41:15Z</time>
      </trkpt>
      <trkpt lat="45.42917" lon="5.47156">
        <ele>562.99</ele>
        <time>2021-02-11T11:41:29Z</time>
      </trkpt>
      <trkpt lat="45.42912" lon="5.47154">
        <ele>559.62</ele>
        <time>2021-02-11T11:41:33Z</time>
      </trkpt>
      <trkpt lat="45.42911" lon="5.47153">
        <ele>565.39</ele>
        <time>2021-02-11T11:41:34Z</time>
      </trkpt>
      <trkpt lat="45.42891" lon="5.47143">
        <ele>562.51</ele>
        <time>2021-02-11T11:41:50Z</time>
      </trkpt>
      <trkpt lat="45.42869" lon="5.47131">
        <ele>562.51</ele>
        <time>2021-02-11T11:42:09Z</time>
      </trkpt>
      <trkpt lat="45.42858" lon="5.47125">
        <ele>562.51</ele>
        <time>2021-02-11T11:42:18Z</time>
      </trkpt>
      <trkpt lat="45.42855" lon="5.47123">
        <ele>559.14</ele>
        <time>2021-02-11T11:42:21Z</time>
      </trkpt>
      <trkpt lat="45.42844" lon="5.47128">
        <ele>561.55</ele>
        <time>2021-02-11T11:42:31Z</time>
      </trkpt>
      <trkpt lat="45.42824" lon="5.47142">
        <ele>560.59</ele>
        <time>2021-02-11T11:42:48Z</time>
      </trkpt>
      <trkpt lat="45.42803" lon="5.47154">
        <ele>559.62</ele>
        <time>2021-02-11T11:43:06Z</time>
      </trkpt>
      <trkpt lat="45.42777" lon="5.47165">
        <ele>558.66</ele>
        <time>2021-02-11T11:43:25Z</time>
      </trkpt>
      <trkpt lat="45.42752" lon="5.47167">
        <ele>558.18</ele>
        <time>2021-02-11T11:43:45Z</time>
      </trkpt>
      <trkpt lat="45.42733" lon="5.47171">
        <ele>557.22</ele>
        <time>2021-02-11T11:44:00Z</time>
      </trkpt>
      <trkpt lat="45.42709" lon="5.4717">
        <ele>556.74</ele>
        <time>2021-02-11T11:44:18Z</time>
      </trkpt>
      <trkpt lat="45.42692" lon="5.47171">
        <ele>546.17</ele>
        <time>2021-02-11T11:44:31Z</time>
      </trkpt>
      <trkpt lat="45.42691" lon="5.47171">
        <ele>563.47</ele>
        <time>2021-02-11T11:44:32Z</time>
      </trkpt>
      <trkpt lat="45.4269" lon="5.47172">
        <ele>557.22</ele>
        <time>2021-02-11T11:44:33Z</time>
      </trkpt>
      <trkpt lat="45.42688" lon="5.47172">
        <ele>556.74</ele>
        <time>2021-02-11T11:44:35Z</time>
      </trkpt>
      <trkpt lat="45.42671" lon="5.47169">
        <ele>556.26</ele>
        <time>2021-02-11T11:44:50Z</time>
      </trkpt>
      <trkpt lat="45.42668" lon="5.47168">
        <ele>545.69</ele>
        <time>2021-02-11T11:44:55Z</time>
      </trkpt>
      <trkpt lat="45.42668" lon="5.47168">
        <ele>564.91</ele>
        <time>2021-02-11T11:44:56Z</time>
      </trkpt>
      <trkpt lat="45.42668" lon="5.47168">
        <ele>556.26</ele>
        <time>2021-02-11T11:44:57Z</time>
      </trkpt>
      <trkpt lat="45.42667" lon="5.47169">
        <ele>556.26</ele>
        <time>2021-02-11T11:45:01Z</time>
      </trkpt>
      <trkpt lat="45.42665" lon="5.4717">
        <ele>556.26</ele>
        <time>2021-02-11T11:45:03Z</time>
      </trkpt>
      <trkpt lat="45.42643" lon="5.47171">
        <ele>555.78</ele>
        <time>2021-02-11T11:45:20Z</time>
      </trkpt>
      <trkpt lat="45.4262" lon="5.47166">
        <ele>554.34</ele>
        <time>2021-02-11T11:45:38Z</time>
      </trkpt>
      <trkpt lat="45.42614" lon="5.47164">
        <ele>554.34</ele>
        <time>2021-02-11T11:45:43Z</time>
      </trkpt>
      <trkpt lat="45.42606" lon="5.47168">
        <ele>547.61</ele>
        <time>2021-02-11T11:45:50Z</time>
      </trkpt>
      <trkpt lat="45.42605" lon="5.47168">
        <ele>559.14</ele>
        <time>2021-02-11T11:45:51Z</time>
      </trkpt>
      <trkpt lat="45.42604" lon="5.47168">
        <ele>554.34</ele>
        <time>2021-02-11T11:45:52Z</time>
      </trkpt>
      <trkpt lat="45.42582" lon="5.47155">
        <ele>553.86</ele>
        <time>2021-02-11T11:46:11Z</time>
      </trkpt>
      <trkpt lat="45.42565" lon="5.47141">
        <ele>548.09</ele>
        <time>2021-02-11T11:46:27Z</time>
      </trkpt>
      <trkpt lat="45.42564" lon="5.47139">
        <ele>553.38</ele>
        <time>2021-02-11T11:46:28Z</time>
      </trkpt>
      <trkpt lat="45.42546" lon="5.4713">
        <ele>551.93</ele>
        <time>2021-02-11T11:46:43Z</time>
      </trkpt>
      <trkpt lat="45.42521" lon="5.47133">
        <ele>551.45</ele>
        <time>2021-02-11T11:47:02Z</time>
      </trkpt>
      <trkpt lat="45.42517" lon="5.47135">
        <ele>545.69</ele>
        <time>2021-02-11T11:47:05Z</time>
      </trkpt>
      <trkpt lat="45.42516" lon="5.47135">
        <ele>548.57</ele>
        <time>2021-02-11T11:47:06Z</time>
      </trkpt>
      <trkpt lat="45.42515" lon="5.47135">
        <ele>557.7</ele>
        <time>2021-02-11T11:47:07Z</time>
      </trkpt>
      <trkpt lat="45.42513" lon="5.47136">
        <ele>551.45</ele>
        <time>2021-02-11T11:47:08Z</time>
      </trkpt>
      <trkpt lat="45.42495" lon="5.47142">
        <ele>550.01</ele>
        <time>2021-02-11T11:47:22Z</time>
      </trkpt>
      <trkpt lat="45.42471" lon="5.47151">
        <ele>548.57</ele>
        <time>2021-02-11T11:47:42Z</time>
      </trkpt>
      <trkpt lat="45.42447" lon="5.47159">
        <ele>547.61</ele>
        <time>2021-02-11T11:48:00Z</time>
      </trkpt>
      <trkpt lat="45.42423" lon="5.47168">
        <ele>547.13</ele>
        <time>2021-02-11T11:48:19Z</time>
      </trkpt>
      <trkpt lat="45.42394" lon="5.47181">
        <ele>546.17</ele>
        <time>2021-02-11T11:48:42Z</time>
      </trkpt>
      <trkpt lat="45.42371" lon="5.47188">
        <ele>546.17</ele>
        <time>2021-02-11T11:49:01Z</time>
      </trkpt>
      <trkpt lat="45.4237" lon="5.47189">
        <ele>546.17</ele>
        <time>2021-02-11T11:49:02Z</time>
      </trkpt>
      <trkpt lat="45.42346" lon="5.47198">
        <ele>546.17</ele>
        <time>2021-02-11T11:49:21Z</time>
      </trkpt>
      <trkpt lat="45.42319" lon="5.47207">
        <ele>547.13</ele>
        <time>2021-02-11T11:49:41Z</time>
      </trkpt>
      <trkpt lat="45.42306" lon="5.47212">
        <ele>546.17</ele>
        <time>2021-02-11T11:49:53Z</time>
      </trkpt>
      <trkpt lat="45.42287" lon="5.47218">
        <ele>546.65</ele>
        <time>2021-02-11T11:50:08Z</time>
      </trkpt>
      <trkpt lat="45.42263" lon="5.47225">
        <ele>547.13</ele>
        <time>2021-02-11T11:50:26Z</time>
      </trkpt>
      <trkpt lat="45.42246" lon="5.4723">
        <ele>548.09</ele>
        <time>2021-02-11T11:50:41Z</time>
      </trkpt>
      <trkpt lat="45.42234" lon="5.47235">
        <ele>540.4</ele>
        <time>2021-02-11T11:50:53Z</time>
      </trkpt>
      <trkpt lat="45.42233" lon="5.47236">
        <ele>553.86</ele>
        <time>2021-02-11T11:50:54Z</time>
      </trkpt>
      <trkpt lat="45.42231" lon="5.47236">
        <ele>549.05</ele>
        <time>2021-02-11T11:50:55Z</time>
      </trkpt>
      <trkpt lat="45.42213" lon="5.47247">
        <ele>549.05</ele>
        <time>2021-02-11T11:51:08Z</time>
      </trkpt>
      <trkpt lat="45.42201" lon="5.47261">
        <ele>550.01</ele>
        <time>2021-02-11T11:51:21Z</time>
      </trkpt>
      <trkpt lat="45.42202" lon="5.47292">
        <ele>550.97</ele>
        <time>2021-02-11T11:51:39Z</time>
      </trkpt>
      <trkpt lat="45.42205" lon="5.47314">
        <ele>551.93</ele>
        <time>2021-02-11T11:51:52Z</time>
      </trkpt>
      <trkpt lat="45.42211" lon="5.47345">
        <ele>552.9</ele>
        <time>2021-02-11T11:52:10Z</time>
      </trkpt>
      <trkpt lat="45.42214" lon="5.47355">
        <ele>552.9</ele>
        <time>2021-02-11T11:52:16Z</time>
      </trkpt>
      <trkpt lat="45.42214" lon="5.47358">
        <ele>554.82</ele>
        <time>2021-02-11T11:52:18Z</time>
      </trkpt>
      <trkpt lat="45.42217" lon="5.47385">
        <ele>553.86</ele>
        <time>2021-02-11T11:52:33Z</time>
      </trkpt>
      <trkpt lat="45.4222" lon="5.47412">
        <ele>554.82</ele>
        <time>2021-02-11T11:52:49Z</time>
      </trkpt>
      <trkpt lat="45.42223" lon="5.47432">
        <ele>556.26</ele>
        <time>2021-02-11T11:53:03Z</time>
      </trkpt>
      <trkpt lat="45.42228" lon="5.47454">
        <ele>557.22</ele>
        <time>2021-02-11T11:53:16Z</time>
      </trkpt>
      <trkpt lat="45.42229" lon="5.47462">
        <ele>557.7</ele>
        <time>2021-02-11T11:53:20Z</time>
      </trkpt>
      <trkpt lat="45.42231" lon="5.47473">
        <ele>557.7</ele>
        <time>2021-02-11T11:53:27Z</time>
      </trkpt>
      <trkpt lat="45.42234" lon="5.47501">
        <ele>559.14</ele>
        <time>2021-02-11T11:53:44Z</time>
      </trkpt>
      <trkpt lat="45.42237" lon="5.47524">
        <ele>555.3</ele>
        <time>2021-02-11T11:53:58Z</time>
      </trkpt>
      <trkpt lat="45.42237" lon="5.47526">
        <ele>563.95</ele>
        <time>2021-02-11T11:53:59Z</time>
      </trkpt>
      <trkpt lat="45.42237" lon="5.47527">
        <ele>560.59</ele>
        <time>2021-02-11T11:54:00Z</time>
      </trkpt>
      <trkpt lat="45.42241" lon="5.47542">
        <ele>561.55</ele>
        <time>2021-02-11T11:54:12Z</time>
      </trkpt>
      <trkpt lat="45.4224" lon="5.47542">
        <ele>554.82</ele>
        <time>2021-02-11T11:54:15Z</time>
      </trkpt>
      <trkpt lat="45.4224" lon="5.47542">
        <ele>566.83</ele>
        <time>2021-02-11T11:54:16Z</time>
      </trkpt>
      <trkpt lat="45.4224" lon="5.47542">
        <ele>558.18</ele>
        <time>2021-02-11T11:54:17Z</time>
      </trkpt>
      <trkpt lat="45.4224" lon="5.47543">
        <ele>565.39</ele>
        <time>2021-02-11T11:54:18Z</time>
      </trkpt>
      <trkpt lat="45.4224" lon="5.47543">
        <ele>561.55</ele>
        <time>2021-02-11T11:54:19Z</time>
      </trkpt>
      <trkpt lat="45.4224" lon="5.47546">
        <ele>561.07</ele>
        <time>2021-02-11T11:54:22Z</time>
      </trkpt>
      <trkpt lat="45.42239" lon="5.47551">
        <ele>558.18</ele>
        <time>2021-02-11T11:54:27Z</time>
      </trkpt>
      <trkpt lat="45.42239" lon="5.47552">
        <ele>559.62</ele>
        <time>2021-02-11T11:54:28Z</time>
      </trkpt>
      <trkpt lat="45.42239" lon="5.47551">
        <ele>565.87</ele>
        <time>2021-02-11T11:54:29Z</time>
      </trkpt>
      <trkpt lat="45.42239" lon="5.47551">
        <ele>560.11</ele>
        <time>2021-02-11T11:54:30Z</time>
      </trkpt>
      <trkpt lat="45.42239" lon="5.47551">
        <ele>566.35</ele>
        <time>2021-02-11T11:54:33Z</time>
      </trkpt>
      <trkpt lat="45.42239" lon="5.47551">
        <ele>558.18</ele>
        <time>2021-02-11T11:54:34Z</time>
      </trkpt>
      <trkpt lat="45.42239" lon="5.47551">
        <ele>566.35</ele>
        <time>2021-02-11T11:54:35Z</time>
      </trkpt>
      <trkpt lat="45.42239" lon="5.47551">
        <ele>562.03</ele>
        <time>2021-02-11T11:54:36Z</time>
      </trkpt>
      <trkpt lat="45.4224" lon="5.47548">
        <ele>558.18</ele>
        <time>2021-02-11T11:54:46Z</time>
      </trkpt>
      <trkpt lat="45.4224" lon="5.47548">
        <ele>564.43</ele>
        <time>2021-02-11T11:54:47Z</time>
      </trkpt>
      <trkpt lat="45.42239" lon="5.47548">
        <ele>550.97</ele>
        <time>2021-02-11T11:54:48Z</time>
      </trkpt>
      <trkpt lat="45.42239" lon="5.47548">
        <ele>562.03</ele>
        <time>2021-02-11T11:54:49Z</time>
      </trkpt>
      <trkpt lat="45.42239" lon="5.47548">
        <ele>558.18</ele>
        <time>2021-02-11T11:54:50Z</time>
      </trkpt>
      <trkpt lat="45.4224" lon="5.47548">
        <ele>565.87</ele>
        <time>2021-02-11T11:54:51Z</time>
      </trkpt>
      <trkpt lat="45.4224" lon="5.47548">
        <ele>562.03</ele>
        <time>2021-02-11T11:54:52Z</time>
      </trkpt>
      <trkpt lat="45.42241" lon="5.47546">
        <ele>561.07</ele>
        <time>2021-02-11T11:55:06Z</time>
      </trkpt>
      <trkpt lat="45.42241" lon="5.47545">
        <ele>557.7</ele>
        <time>2021-02-11T11:55:10Z</time>
      </trkpt>
      <trkpt lat="45.42241" lon="5.47545">
        <ele>565.87</ele>
        <time>2021-02-11T11:55:11Z</time>
      </trkpt>
      <trkpt lat="45.42241" lon="5.47545">
        <ele>561.55</ele>
        <time>2021-02-11T11:55:12Z</time>
      </trkpt>
      <trkpt lat="45.42241" lon="5.47543">
        <ele>560.59</ele>
        <time>2021-02-11T11:55:30Z</time>
      </trkpt>
      <trkpt lat="45.42242" lon="5.4754">
        <ele>560.59</ele>
        <time>2021-02-11T11:55:54Z</time>
      </trkpt>
      <trkpt lat="45.42242" lon="5.47541">
        <ele>560.59</ele>
        <time>2021-02-11T11:56:21Z</time>
      </trkpt>
      <trkpt lat="45.42243" lon="5.47541">
        <ele>560.59</ele>
        <time>2021-02-11T11:56:59Z</time>
      </trkpt>
      <trkpt lat="45.42242" lon="5.47541">
        <ele>560.59</ele>
        <time>2021-02-11T11:57:36Z</time>
      </trkpt>
      <trkpt lat="45.4224" lon="5.47541">
        <ele>560.59</ele>
        <time>2021-02-11T11:58:15Z</time>
      </trkpt>
      <trkpt lat="45.4224" lon="5.4754">
        <ele>560.59</ele>
        <time>2021-02-11T11:58:48Z</time>
      </trkpt>
      <trkpt lat="45.4224" lon="5.4754">
        <ele>560.59</ele>
        <time>2021-02-11T11:59:19Z</time>
      </trkpt>
      <trkpt lat="45.42239" lon="5.4754">
        <ele>561.07</ele>
        <time>2021-02-11T11:59:52Z</time>
      </trkpt>
      <trkpt lat="45.42238" lon="5.47539">
        <ele>561.07</ele>
        <time>2021-02-11T12:00:25Z</time>
      </trkpt>
      <trkpt lat="45.42238" lon="5.47537">
        <ele>561.55</ele>
        <time>2021-02-11T12:01:03Z</time>
      </trkpt>
      <trkpt lat="45.42238" lon="5.47537">
        <ele>561.55</ele>
        <time>2021-02-11T12:01:33Z</time>
      </trkpt>
      <trkpt lat="45.42238" lon="5.47537">
        <ele>561.55</ele>
        <time>2021-02-11T12:02:06Z</time>
      </trkpt>
      <trkpt lat="45.42237" lon="5.47534">
        <ele>561.55</ele>
        <time>2021-02-11T12:02:41Z</time>
      </trkpt>
      <trkpt lat="45.42236" lon="5.47534">
        <ele>561.55</ele>
        <time>2021-02-11T12:03:23Z</time>
      </trkpt>
      <trkpt lat="45.42236" lon="5.47535">
        <ele>561.55</ele>
        <time>2021-02-11T12:04:00Z</time>
      </trkpt>
      <trkpt lat="45.42236" lon="5.47536">
        <ele>561.55</ele>
        <time>2021-02-11T12:04:35Z</time>
      </trkpt>
      <trkpt lat="45.42236" lon="5.47536">
        <ele>561.55</ele>
        <time>2021-02-11T12:05:11Z</time>
      </trkpt>
      <trkpt lat="45.42236" lon="5.47536">
        <ele>562.03</ele>
        <time>2021-02-11T12:05:48Z</time>
      </trkpt>
      <trkpt lat="45.42236" lon="5.47537">
        <ele>561.55</ele>
        <time>2021-02-11T12:06:22Z</time>
      </trkpt>
      <trkpt lat="45.42236" lon="5.47537">
        <ele>561.55</ele>
        <time>2021-02-11T12:06:53Z</time>
      </trkpt>
      <trkpt lat="45.42236" lon="5.47538">
        <ele>562.03</ele>
        <time>2021-02-11T12:07:31Z</time>
      </trkpt>
      <trkpt lat="45.42237" lon="5.47538">
        <ele>562.03</ele>
        <time>2021-02-11T12:07:56Z</time>
      </trkpt>
      <trkpt lat="45.42237" lon="5.47539">
        <ele>562.03</ele>
        <time>2021-02-11T12:08:19Z</time>
      </trkpt>
      <trkpt lat="45.42238" lon="5.47541">
        <ele>562.03</ele>
        <time>2021-02-11T12:08:56Z</time>
      </trkpt>
      <trkpt lat="45.42238" lon="5.47541">
        <ele>562.51</ele>
        <time>2021-02-11T12:09:32Z</time>
      </trkpt>
      <trkpt lat="45.42238" lon="5.47542">
        <ele>562.51</ele>
        <time>2021-02-11T12:10:03Z</time>
      </trkpt>
      <trkpt lat="45.42239" lon="5.47541">
        <ele>562.51</ele>
        <time>2021-02-11T12:10:34Z</time>
      </trkpt>
      <trkpt lat="45.4224" lon="5.47541">
        <ele>562.99</ele>
        <time>2021-02-11T12:11:03Z</time>
      </trkpt>
      <trkpt lat="45.42239" lon="5.47542">
        <ele>563.47</ele>
        <time>2021-02-11T12:11:15Z</time>
      </trkpt>
      <trkpt lat="45.4224" lon="5.47545">
        <ele>559.62</ele>
        <time>2021-02-11T12:11:25Z</time>
      </trkpt>
      <trkpt lat="45.4224" lon="5.47546">
        <ele>573.08</ele>
        <time>2021-02-11T12:11:27Z</time>
      </trkpt>
      <trkpt lat="45.4224" lon="5.47546">
        <ele>564.43</ele>
        <time>2021-02-11T12:11:28Z</time>
      </trkpt>
      <trkpt lat="45.4224" lon="5.47546">
        <ele>562.99</ele>
        <time>2021-02-11T12:11:30Z</time>
      </trkpt>
      <trkpt lat="45.42241" lon="5.47547">
        <ele>558.66</ele>
        <time>2021-02-11T12:11:34Z</time>
      </trkpt>
      <trkpt lat="45.42241" lon="5.47547">
        <ele>546.17</ele>
        <time>2021-02-11T12:11:35Z</time>
      </trkpt>
      <trkpt lat="45.42241" lon="5.47547">
        <ele>578.37</ele>
        <time>2021-02-11T12:11:36Z</time>
      </trkpt>
      <trkpt lat="45.42241" lon="5.47547">
        <ele>560.11</ele>
        <time>2021-02-11T12:11:37Z</time>
      </trkpt>
      <trkpt lat="45.4224" lon="5.47547">
        <ele>566.83</ele>
        <time>2021-02-11T12:11:38Z</time>
      </trkpt>
      <trkpt lat="45.4224" lon="5.47547">
        <ele>563.47</ele>
        <time>2021-02-11T12:11:39Z</time>
      </trkpt>
      <trkpt lat="45.4224" lon="5.47548">
        <ele>572.6</ele>
        <time>2021-02-11T12:11:43Z</time>
      </trkpt>
      <trkpt lat="45.4224" lon="5.47548">
        <ele>555.78</ele>
        <time>2021-02-11T12:11:44Z</time>
      </trkpt>
      <trkpt lat="45.4224" lon="5.47548">
        <ele>569.24</ele>
        <time>2021-02-11T12:11:45Z</time>
      </trkpt>
      <trkpt lat="45.4224" lon="5.47548">
        <ele>539.44</ele>
        <time>2021-02-11T12:11:46Z</time>
      </trkpt>
      <trkpt lat="45.4224" lon="5.47549">
        <ele>587.98</ele>
        <time>2021-02-11T12:11:47Z</time>
      </trkpt>
      <trkpt lat="45.4224" lon="5.47549">
        <ele>565.87</ele>
        <time>2021-02-11T12:11:48Z</time>
      </trkpt>
      <trkpt lat="45.4224" lon="5.47549">
        <ele>555.78</ele>
        <time>2021-02-11T12:11:49Z</time>
      </trkpt>
      <trkpt lat="45.4224" lon="5.47549">
        <ele>572.12</ele>
        <time>2021-02-11T12:11:50Z</time>
      </trkpt>
      <trkpt lat="45.4224" lon="5.47549">
        <ele>558.18</ele>
        <time>2021-02-11T12:11:51Z</time>
      </trkpt>
      <trkpt lat="45.4224" lon="5.47549">
        <ele>571.16</ele>
        <time>2021-02-11T12:11:52Z</time>
      </trkpt>
      <trkpt lat="45.4224" lon="5.47549">
        <ele>563.95</ele>
        <time>2021-02-11T12:11:53Z</time>
      </trkpt>
      <trkpt lat="45.4224" lon="5.47547">
        <ele>562.51</ele>
        <time>2021-02-11T12:12:04Z</time>
      </trkpt>
      <trkpt lat="45.42242" lon="5.47558">
        <ele>563.95</ele>
        <time>2021-02-11T12:12:17Z</time>
      </trkpt>
      <trkpt lat="45.42244" lon="5.47572">
        <ele>560.59</ele>
        <time>2021-02-11T12:12:28Z</time>
      </trkpt>
      <trkpt lat="45.42244" lon="5.47574">
        <ele>566.83</ele>
        <time>2021-02-11T12:12:29Z</time>
      </trkpt>
      <trkpt lat="45.42244" lon="5.47578">
        <ele>563.95</ele>
        <time>2021-02-11T12:12:32Z</time>
      </trkpt>
      <trkpt lat="45.42248" lon="5.47604">
        <ele>564.43</ele>
        <time>2021-02-11T12:12:48Z</time>
      </trkpt>
      <trkpt lat="45.42252" lon="5.47625">
        <ele>565.39</ele>
        <time>2021-02-11T12:13:02Z</time>
      </trkpt>
      <trkpt lat="45.42252" lon="5.47633">
        <ele>561.55</ele>
        <time>2021-02-11T12:13:06Z</time>
      </trkpt>
      <trkpt lat="45.42253" lon="5.47635">
        <ele>568.28</ele>
        <time>2021-02-11T12:13:07Z</time>
      </trkpt>
      <trkpt lat="45.42258" lon="5.4766">
        <ele>565.87</ele>
        <time>2021-02-11T12:13:21Z</time>
      </trkpt>
      <trkpt lat="45.42261" lon="5.47683">
        <ele>566.35</ele>
        <time>2021-02-11T12:13:35Z</time>
      </trkpt>
      <trkpt lat="45.42264" lon="5.47706">
        <ele>566.35</ele>
        <time>2021-02-11T12:13:48Z</time>
      </trkpt>
      <trkpt lat="45.42267" lon="5.47734">
        <ele>567.32</ele>
        <time>2021-02-11T12:14:05Z</time>
      </trkpt>
      <trkpt lat="45.42271" lon="5.47755">
        <ele>567.8</ele>
        <time>2021-02-11T12:14:17Z</time>
      </trkpt>
      <trkpt lat="45.42274" lon="5.47769">
        <ele>568.28</ele>
        <time>2021-02-11T12:14:26Z</time>
      </trkpt>
      <trkpt lat="45.4228" lon="5.47791">
        <ele>569.72</ele>
        <time>2021-02-11T12:14:41Z</time>
      </trkpt>
      <trkpt lat="45.4228" lon="5.47792">
        <ele>568.76</ele>
        <time>2021-02-11T12:14:42Z</time>
      </trkpt>
      <trkpt lat="45.42281" lon="5.47795">
        <ele>562.51</ele>
        <time>2021-02-11T12:14:44Z</time>
      </trkpt>
      <trkpt lat="45.4228" lon="5.47797">
        <ele>572.6</ele>
        <time>2021-02-11T12:14:45Z</time>
      </trkpt>
      <trkpt lat="45.4228" lon="5.47799">
        <ele>569.24</ele>
        <time>2021-02-11T12:14:46Z</time>
      </trkpt>
      <trkpt lat="45.4228" lon="5.47804">
        <ele>568.76</ele>
        <time>2021-02-11T12:14:49Z</time>
      </trkpt>
      <trkpt lat="45.42281" lon="5.47827">
        <ele>569.72</ele>
        <time>2021-02-11T12:15:03Z</time>
      </trkpt>
      <trkpt lat="45.4228" lon="5.47831">
        <ele>569.72</ele>
        <time>2021-02-11T12:15:06Z</time>
      </trkpt>
      <trkpt lat="45.42265" lon="5.47846">
        <ele>569.72</ele>
        <time>2021-02-11T12:15:21Z</time>
      </trkpt>
      <trkpt lat="45.42249" lon="5.47859">
        <ele>570.68</ele>
        <time>2021-02-11T12:15:37Z</time>
      </trkpt>
      <trkpt lat="45.42232" lon="5.4787">
        <ele>572.6</ele>
        <time>2021-02-11T12:15:53Z</time>
      </trkpt>
      <trkpt lat="45.42216" lon="5.4788">
        <ele>574.53</ele>
        <time>2021-02-11T12:16:09Z</time>
      </trkpt>
      <trkpt lat="45.42206" lon="5.47886">
        <ele>575.97</ele>
        <time>2021-02-11T12:16:21Z</time>
      </trkpt>
      <trkpt lat="45.42203" lon="5.47888">
        <ele>576.45</ele>
        <time>2021-02-11T12:16:24Z</time>
      </trkpt>
      <trkpt lat="45.42196" lon="5.4789">
        <ele>570.2</ele>
        <time>2021-02-11T12:16:32Z</time>
      </trkpt>
      <trkpt lat="45.42195" lon="5.47891">
        <ele>587.5</ele>
        <time>2021-02-11T12:16:33Z</time>
      </trkpt>
      <trkpt lat="45.42195" lon="5.47891">
        <ele>578.37</ele>
        <time>2021-02-11T12:16:34Z</time>
      </trkpt>
      <trkpt lat="45.42186" lon="5.47898">
        <ele>579.33</ele>
        <time>2021-02-11T12:16:48Z</time>
      </trkpt>
      <trkpt lat="45.42177" lon="5.47907">
        <ele>580.29</ele>
        <time>2021-02-11T12:16:57Z</time>
      </trkpt>
      <trkpt lat="45.42166" lon="5.47918">
        <ele>582.22</ele>
        <time>2021-02-11T12:17:12Z</time>
      </trkpt>
      <trkpt lat="45.42157" lon="5.47927">
        <ele>585.1</ele>
        <time>2021-02-11T12:17:25Z</time>
      </trkpt>
      <trkpt lat="45.42156" lon="5.47928">
        <ele>583.66</ele>
        <time>2021-02-11T12:17:26Z</time>
      </trkpt>
      <trkpt lat="45.42147" lon="5.47942">
        <ele>585.58</ele>
        <time>2021-02-11T12:17:40Z</time>
      </trkpt>
      <trkpt lat="45.42138" lon="5.47954">
        <ele>586.54</ele>
        <time>2021-02-11T12:17:53Z</time>
      </trkpt>
      <trkpt lat="45.4213" lon="5.47966">
        <ele>587.5</ele>
        <time>2021-02-11T12:18:04Z</time>
      </trkpt>
      <trkpt lat="45.42124" lon="5.47975">
        <ele>588.46</ele>
        <time>2021-02-11T12:18:12Z</time>
      </trkpt>
      <trkpt lat="45.42115" lon="5.47985">
        <ele>589.91</ele>
        <time>2021-02-11T12:18:25Z</time>
      </trkpt>
      <trkpt lat="45.42107" lon="5.47993">
        <ele>591.35</ele>
        <time>2021-02-11T12:18:37Z</time>
      </trkpt>
      <trkpt lat="45.42101" lon="5.47998">
        <ele>592.31</ele>
        <time>2021-02-11T12:18:49Z</time>
      </trkpt>
      <trkpt lat="45.42095" lon="5.48008">
        <ele>594.23</ele>
        <time>2021-02-11T12:19:03Z</time>
      </trkpt>
      <trkpt lat="45.42087" lon="5.48017">
        <ele>595.19</ele>
        <time>2021-02-11T12:19:11Z</time>
      </trkpt>
      <trkpt lat="45.42079" lon="5.48029">
        <ele>596.15</ele>
        <time>2021-02-11T12:19:19Z</time>
      </trkpt>
      <trkpt lat="45.4207" lon="5.48049">
        <ele>597.12</ele>
        <time>2021-02-11T12:19:33Z</time>
      </trkpt>
      <trkpt lat="45.42069" lon="5.48067">
        <ele>598.56</ele>
        <time>2021-02-11T12:19:47Z</time>
      </trkpt>
      <trkpt lat="45.42064" lon="5.48088">
        <ele>599.52</ele>
        <time>2021-02-11T12:20:01Z</time>
      </trkpt>
      <trkpt lat="45.42064" lon="5.48092">
        <ele>600</ele>
        <time>2021-02-11T12:20:04Z</time>
      </trkpt>
      <trkpt lat="45.42065" lon="5.48111">
        <ele>601.44</ele>
        <time>2021-02-11T12:20:17Z</time>
      </trkpt>
      <trkpt lat="45.42064" lon="5.48123">
        <ele>602.4</ele>
        <time>2021-02-11T12:20:29Z</time>
      </trkpt>
      <trkpt lat="45.42062" lon="5.48143">
        <ele>603.85</ele>
        <time>2021-02-11T12:20:41Z</time>
      </trkpt>
      <trkpt lat="45.42059" lon="5.48169">
        <ele>604.81</ele>
        <time>2021-02-11T12:20:54Z</time>
      </trkpt>
      <trkpt lat="45.4206" lon="5.48186">
        <ele>606.25</ele>
        <time>2021-02-11T12:21:06Z</time>
      </trkpt>
      <trkpt lat="45.42061" lon="5.48202">
        <ele>607.69</ele>
        <time>2021-02-11T12:21:19Z</time>
      </trkpt>
      <trkpt lat="45.4206" lon="5.48219">
        <ele>609.13</ele>
        <time>2021-02-11T12:21:32Z</time>
      </trkpt>
      <trkpt lat="45.42063" lon="5.48228">
        <ele>610.57</ele>
        <time>2021-02-11T12:21:43Z</time>
      </trkpt>
      <trkpt lat="45.42059" lon="5.48242">
        <ele>612.02</ele>
        <time>2021-02-11T12:21:55Z</time>
      </trkpt>
      <trkpt lat="45.42056" lon="5.48254">
        <ele>613.46</ele>
        <time>2021-02-11T12:22:11Z</time>
      </trkpt>
      <trkpt lat="45.42051" lon="5.48271">
        <ele>615.38</ele>
        <time>2021-02-11T12:22:25Z</time>
      </trkpt>
      <trkpt lat="45.42045" lon="5.48294">
        <ele>616.82</ele>
        <time>2021-02-11T12:22:39Z</time>
      </trkpt>
      <trkpt lat="45.42037" lon="5.48318">
        <ele>618.75</ele>
        <time>2021-02-11T12:22:54Z</time>
      </trkpt>
      <trkpt lat="45.42033" lon="5.48332">
        <ele>620.67</ele>
        <time>2021-02-11T12:23:07Z</time>
      </trkpt>
      <trkpt lat="45.42028" lon="5.48349">
        <ele>622.59</ele>
        <time>2021-02-11T12:23:21Z</time>
      </trkpt>
      <trkpt lat="45.42027" lon="5.48356">
        <ele>626.44</ele>
        <time>2021-02-11T12:23:26Z</time>
      </trkpt>
      <trkpt lat="45.42024" lon="5.48362">
        <ele>624.03</ele>
        <time>2021-02-11T12:23:31Z</time>
      </trkpt>
      <trkpt lat="45.4202" lon="5.48374">
        <ele>625.96</ele>
        <time>2021-02-11T12:23:44Z</time>
      </trkpt>
      <trkpt lat="45.42016" lon="5.48385">
        <ele>627.4</ele>
        <time>2021-02-11T12:23:55Z</time>
      </trkpt>
      <trkpt lat="45.42011" lon="5.484">
        <ele>629.32</ele>
        <time>2021-02-11T12:24:08Z</time>
      </trkpt>
      <trkpt lat="45.42007" lon="5.48415">
        <ele>631.24</ele>
        <time>2021-02-11T12:24:23Z</time>
      </trkpt>
      <trkpt lat="45.42006" lon="5.48429">
        <ele>633.65</ele>
        <time>2021-02-11T12:24:35Z</time>
      </trkpt>
      <trkpt lat="45.42007" lon="5.48445">
        <ele>635.57</ele>
        <time>2021-02-11T12:24:48Z</time>
      </trkpt>
      <trkpt lat="45.42007" lon="5.48466">
        <ele>637.97</ele>
        <time>2021-02-11T12:25:06Z</time>
      </trkpt>
      <trkpt lat="45.42006" lon="5.48482">
        <ele>639.89</ele>
        <time>2021-02-11T12:25:18Z</time>
      </trkpt>
      <trkpt lat="45.42005" lon="5.48493">
        <ele>641.82</ele>
        <time>2021-02-11T12:25:29Z</time>
      </trkpt>
      <trkpt lat="45.42004" lon="5.48506">
        <ele>643.26</ele>
        <time>2021-02-11T12:25:41Z</time>
      </trkpt>
      <trkpt lat="45.42003" lon="5.48516">
        <ele>644.7</ele>
        <time>2021-02-11T12:25:50Z</time>
      </trkpt>
      <trkpt lat="45.42004" lon="5.48533">
        <ele>646.62</ele>
        <time>2021-02-11T12:26:03Z</time>
      </trkpt>
      <trkpt lat="45.42001" lon="5.4855">
        <ele>647.59</ele>
        <time>2021-02-11T12:26:15Z</time>
      </trkpt>
      <trkpt lat="45.41997" lon="5.48565">
        <ele>649.03</ele>
        <time>2021-02-11T12:26:28Z</time>
      </trkpt>
      <trkpt lat="45.41993" lon="5.48577">
        <ele>650.47</ele>
        <time>2021-02-11T12:26:39Z</time>
      </trkpt>
      <trkpt lat="45.41988" lon="5.48597">
        <ele>652.39</ele>
        <time>2021-02-11T12:26:53Z</time>
      </trkpt>
      <trkpt lat="45.41983" lon="5.48611">
        <ele>654.31</ele>
        <time>2021-02-11T12:27:05Z</time>
      </trkpt>
      <trkpt lat="45.41978" lon="5.48627">
        <ele>655.28</ele>
        <time>2021-02-11T12:27:18Z</time>
      </trkpt>
      <trkpt lat="45.41972" lon="5.48644">
        <ele>656.72</ele>
        <time>2021-02-11T12:27:33Z</time>
      </trkpt>
      <trkpt lat="45.41971" lon="5.48648">
        <ele>650.95</ele>
        <time>2021-02-11T12:27:37Z</time>
      </trkpt>
      <trkpt lat="45.41971" lon="5.48648">
        <ele>661.52</ele>
        <time>2021-02-11T12:27:38Z</time>
      </trkpt>
      <trkpt lat="45.4197" lon="5.48649">
        <ele>657.68</ele>
        <time>2021-02-11T12:27:39Z</time>
      </trkpt>
      <trkpt lat="45.41963" lon="5.48664">
        <ele>661.04</ele>
        <time>2021-02-11T12:27:52Z</time>
      </trkpt>
      <trkpt lat="45.41963" lon="5.48665">
        <ele>660.08</ele>
        <time>2021-02-11T12:27:53Z</time>
      </trkpt>
      <trkpt lat="45.41959" lon="5.48675">
        <ele>659.6</ele>
        <time>2021-02-11T12:28:09Z</time>
      </trkpt>
      <trkpt lat="45.41959" lon="5.48676">
        <ele>659.6</ele>
        <time>2021-02-11T12:28:29Z</time>
      </trkpt>
      <trkpt lat="45.41959" lon="5.48675">
        <ele>659.6</ele>
        <time>2021-02-11T12:29:04Z</time>
      </trkpt>
      <trkpt lat="45.41958" lon="5.48677">
        <ele>659.6</ele>
        <time>2021-02-11T12:29:18Z</time>
      </trkpt>
      <trkpt lat="45.41957" lon="5.48677">
        <ele>659.6</ele>
        <time>2021-02-11T12:29:20Z</time>
      </trkpt>
      <trkpt lat="45.41952" lon="5.48686">
        <ele>660.08</ele>
        <time>2021-02-11T12:29:30Z</time>
      </trkpt>
      <trkpt lat="45.41944" lon="5.48701">
        <ele>659.6</ele>
        <time>2021-02-11T12:29:44Z</time>
      </trkpt>
      <trkpt lat="45.41933" lon="5.48719">
        <ele>659.6</ele>
        <time>2021-02-11T12:29:57Z</time>
      </trkpt>
      <trkpt lat="45.41929" lon="5.48728">
        <ele>659.12</ele>
        <time>2021-02-11T12:30:04Z</time>
      </trkpt>
      <trkpt lat="45.4192" lon="5.48753">
        <ele>658.16</ele>
        <time>2021-02-11T12:30:20Z</time>
      </trkpt>
      <trkpt lat="45.41916" lon="5.48777">
        <ele>657.68</ele>
        <time>2021-02-11T12:30:34Z</time>
      </trkpt>
      <trkpt lat="45.41915" lon="5.48804">
        <ele>658.16</ele>
        <time>2021-02-11T12:30:49Z</time>
      </trkpt>
      <trkpt lat="45.41914" lon="5.48828">
        <ele>659.12</ele>
        <time>2021-02-11T12:31:05Z</time>
      </trkpt>
      <trkpt lat="45.41915" lon="5.48836">
        <ele>644.22</ele>
        <time>2021-02-11T12:31:10Z</time>
      </trkpt>
      <trkpt lat="45.41915" lon="5.48838">
        <ele>672.1</ele>
        <time>2021-02-11T12:31:11Z</time>
      </trkpt>
      <trkpt lat="45.41915" lon="5.48838">
        <ele>661.04</ele>
        <time>2021-02-11T12:31:12Z</time>
      </trkpt>
      <trkpt lat="45.41915" lon="5.48838">
        <ele>654.31</ele>
        <time>2021-02-11T12:31:15Z</time>
      </trkpt>
      <trkpt lat="45.41915" lon="5.48839">
        <ele>664.89</ele>
        <time>2021-02-11T12:31:16Z</time>
      </trkpt>
      <trkpt lat="45.41915" lon="5.48839">
        <ele>656.72</ele>
        <time>2021-02-11T12:31:17Z</time>
      </trkpt>
      <trkpt lat="45.41915" lon="5.48839">
        <ele>663.45</ele>
        <time>2021-02-11T12:31:18Z</time>
      </trkpt>
      <trkpt lat="45.41916" lon="5.48839">
        <ele>660.08</ele>
        <time>2021-02-11T12:31:20Z</time>
      </trkpt>
      <trkpt lat="45.41915" lon="5.48841">
        <ele>657.2</ele>
        <time>2021-02-11T12:31:25Z</time>
      </trkpt>
      <trkpt lat="45.41916" lon="5.48842">
        <ele>662.49</ele>
        <time>2021-02-11T12:31:26Z</time>
      </trkpt>
      <trkpt lat="45.41916" lon="5.48844">
        <ele>656.72</ele>
        <time>2021-02-11T12:31:27Z</time>
      </trkpt>
      <trkpt lat="45.41916" lon="5.48846">
        <ele>663.45</ele>
        <time>2021-02-11T12:31:28Z</time>
      </trkpt>
      <trkpt lat="45.41916" lon="5.48847">
        <ele>655.76</ele>
        <time>2021-02-11T12:31:29Z</time>
      </trkpt>
      <trkpt lat="45.41916" lon="5.48849">
        <ele>663.45</ele>
        <time>2021-02-11T12:31:30Z</time>
      </trkpt>
      <trkpt lat="45.41916" lon="5.4885">
        <ele>660.56</ele>
        <time>2021-02-11T12:31:31Z</time>
      </trkpt>
      <trkpt lat="45.41916" lon="5.48868">
        <ele>659.6</ele>
        <time>2021-02-11T12:31:43Z</time>
      </trkpt>
      <trkpt lat="45.41913" lon="5.48891">
        <ele>658.64</ele>
        <time>2021-02-11T12:31:59Z</time>
      </trkpt>
      <trkpt lat="45.4191" lon="5.48902">
        <ele>658.16</ele>
        <time>2021-02-11T12:32:15Z</time>
      </trkpt>
      <trkpt lat="45.41903" lon="5.48927">
        <ele>655.76</ele>
        <time>2021-02-11T12:32:30Z</time>
      </trkpt>
      <trkpt lat="45.41893" lon="5.48941">
        <ele>654.8</ele>
        <time>2021-02-11T12:32:43Z</time>
      </trkpt>
      <trkpt lat="45.41893" lon="5.48942">
        <ele>650.95</ele>
        <time>2021-02-11T12:32:44Z</time>
      </trkpt>
      <trkpt lat="45.41892" lon="5.48942">
        <ele>657.68</ele>
        <time>2021-02-11T12:32:45Z</time>
      </trkpt>
      <trkpt lat="45.41892" lon="5.48943">
        <ele>647.1</ele>
        <time>2021-02-11T12:32:46Z</time>
      </trkpt>
      <trkpt lat="45.41892" lon="5.48943">
        <ele>660.56</ele>
        <time>2021-02-11T12:32:47Z</time>
      </trkpt>
      <trkpt lat="45.41892" lon="5.48943">
        <ele>655.28</ele>
        <time>2021-02-11T12:32:48Z</time>
      </trkpt>
      <trkpt lat="45.41889" lon="5.48943">
        <ele>654.8</ele>
        <time>2021-02-11T12:32:51Z</time>
      </trkpt>
      <trkpt lat="45.4187" lon="5.48942">
        <ele>654.8</ele>
        <time>2021-02-11T12:33:07Z</time>
      </trkpt>
      <trkpt lat="45.41866" lon="5.48943">
        <ele>654.8</ele>
        <time>2021-02-11T12:33:11Z</time>
      </trkpt>
      <trkpt lat="45.41847" lon="5.48947">
        <ele>655.76</ele>
        <time>2021-02-11T12:33:27Z</time>
      </trkpt>
      <trkpt lat="45.41833" lon="5.48952">
        <ele>656.72</ele>
        <time>2021-02-11T12:33:41Z</time>
      </trkpt>
      <trkpt lat="45.41819" lon="5.48957">
        <ele>658.16</ele>
        <time>2021-02-11T12:33:55Z</time>
      </trkpt>
      <trkpt lat="45.41808" lon="5.4896">
        <ele>662.01</ele>
        <time>2021-02-11T12:34:09Z</time>
      </trkpt>
      <trkpt lat="45.41794" lon="5.48968">
        <ele>662.49</ele>
        <time>2021-02-11T12:34:25Z</time>
      </trkpt>
      <trkpt lat="45.41793" lon="5.4897">
        <ele>666.33</ele>
        <time>2021-02-11T12:34:27Z</time>
      </trkpt>
      <trkpt lat="45.41792" lon="5.48971">
        <ele>659.12</ele>
        <time>2021-02-11T12:34:28Z</time>
      </trkpt>
      <trkpt lat="45.41791" lon="5.48973">
        <ele>673.06</ele>
        <time>2021-02-11T12:34:30Z</time>
      </trkpt>
      <trkpt lat="45.4179" lon="5.48974">
        <ele>664.41</ele>
        <time>2021-02-11T12:34:31Z</time>
      </trkpt>
      <trkpt lat="45.41778" lon="5.48989">
        <ele>665.37</ele>
        <time>2021-02-11T12:34:46Z</time>
      </trkpt>
      <trkpt lat="45.4177" lon="5.49004">
        <ele>666.81</ele>
        <time>2021-02-11T12:35:00Z</time>
      </trkpt>
      <trkpt lat="45.41768" lon="5.49006">
        <ele>652.87</ele>
        <time>2021-02-11T12:35:04Z</time>
      </trkpt>
      <trkpt lat="45.41768" lon="5.49006">
        <ele>678.83</ele>
        <time>2021-02-11T12:35:05Z</time>
      </trkpt>
      <trkpt lat="45.41768" lon="5.49006">
        <ele>668.25</ele>
        <time>2021-02-11T12:35:06Z</time>
      </trkpt>
      <trkpt lat="45.41768" lon="5.49007">
        <ele>667.29</ele>
        <time>2021-02-11T12:35:07Z</time>
      </trkpt>
      <trkpt lat="45.41767" lon="5.4901">
        <ele>667.29</ele>
        <time>2021-02-11T12:35:10Z</time>
      </trkpt>
      <trkpt lat="45.41758" lon="5.49026">
        <ele>667.77</ele>
        <time>2021-02-11T12:35:25Z</time>
      </trkpt>
      <trkpt lat="45.41746" lon="5.49042">
        <ele>665.37</ele>
        <time>2021-02-11T12:35:40Z</time>
      </trkpt>
      <trkpt lat="45.4174" lon="5.49051">
        <ele>661.04</ele>
        <time>2021-02-11T12:35:47Z</time>
      </trkpt>
      <trkpt lat="45.4174" lon="5.49053">
        <ele>667.29</ele>
        <time>2021-02-11T12:35:48Z</time>
      </trkpt>
      <trkpt lat="45.41739" lon="5.49056">
        <ele>663.93</ele>
        <time>2021-02-11T12:35:50Z</time>
      </trkpt>
      <trkpt lat="45.41738" lon="5.49057">
        <ele>663.45</ele>
        <time>2021-02-11T12:35:51Z</time>
      </trkpt>
      <trkpt lat="45.41729" lon="5.49076">
        <ele>661.52</ele>
        <time>2021-02-11T12:36:04Z</time>
      </trkpt>
      <trkpt lat="45.41719" lon="5.49093">
        <ele>659.12</ele>
        <time>2021-02-11T12:36:17Z</time>
      </trkpt>
      <trkpt lat="45.41708" lon="5.49106">
        <ele>656.72</ele>
        <time>2021-02-11T12:36:30Z</time>
      </trkpt>
      <trkpt lat="45.41703" lon="5.49113">
        <ele>655.76</ele>
        <time>2021-02-11T12:36:35Z</time>
      </trkpt>
      <trkpt lat="45.41693" lon="5.49126">
        <ele>653.35</ele>
        <time>2021-02-11T12:36:48Z</time>
      </trkpt>
      <trkpt lat="45.41685" lon="5.49139">
        <ele>651.43</ele>
        <time>2021-02-11T12:36:58Z</time>
      </trkpt>
      <trkpt lat="45.41673" lon="5.49154">
        <ele>649.03</ele>
        <time>2021-02-11T12:37:12Z</time>
      </trkpt>
      <trkpt lat="45.41668" lon="5.49166">
        <ele>647.59</ele>
        <time>2021-02-11T12:37:18Z</time>
      </trkpt>
      <trkpt lat="45.41664" lon="5.49174">
        <ele>646.62</ele>
        <time>2021-02-11T12:37:23Z</time>
      </trkpt>
      <trkpt lat="45.41662" lon="5.49177">
        <ele>642.3</ele>
        <time>2021-02-11T12:37:28Z</time>
      </trkpt>
      <trkpt lat="45.41662" lon="5.49177">
        <ele>649.51</ele>
        <time>2021-02-11T12:37:29Z</time>
      </trkpt>
      <trkpt lat="45.41662" lon="5.49177">
        <ele>642.78</ele>
        <time>2021-02-11T12:37:30Z</time>
      </trkpt>
      <trkpt lat="45.41662" lon="5.49176">
        <ele>636.05</ele>
        <time>2021-02-11T12:37:31Z</time>
      </trkpt>
      <trkpt lat="45.41663" lon="5.49176">
        <ele>652.87</ele>
        <time>2021-02-11T12:37:32Z</time>
      </trkpt>
      <trkpt lat="45.41663" lon="5.49176">
        <ele>639.41</ele>
        <time>2021-02-11T12:37:33Z</time>
      </trkpt>
      <trkpt lat="45.41663" lon="5.49176">
        <ele>653.35</ele>
        <time>2021-02-11T12:37:34Z</time>
      </trkpt>
      <trkpt lat="45.41663" lon="5.49176">
        <ele>646.62</ele>
        <time>2021-02-11T12:37:35Z</time>
      </trkpt>
      <trkpt lat="45.41663" lon="5.49176">
        <ele>641.82</ele>
        <time>2021-02-11T12:37:36Z</time>
      </trkpt>
      <trkpt lat="45.41663" lon="5.49176">
        <ele>649.03</ele>
        <time>2021-02-11T12:37:37Z</time>
      </trkpt>
      <trkpt lat="45.41663" lon="5.49176">
        <ele>644.7</ele>
        <time>2021-02-11T12:37:40Z</time>
      </trkpt>
      <trkpt lat="45.41663" lon="5.49176">
        <ele>648.07</ele>
        <time>2021-02-11T12:37:41Z</time>
      </trkpt>
      <trkpt lat="45.41663" lon="5.49176">
        <ele>640.86</ele>
        <time>2021-02-11T12:37:42Z</time>
      </trkpt>
      <trkpt lat="45.41663" lon="5.49176">
        <ele>649.99</ele>
        <time>2021-02-11T12:37:43Z</time>
      </trkpt>
      <trkpt lat="45.41663" lon="5.49176">
        <ele>645.66</ele>
        <time>2021-02-11T12:37:44Z</time>
      </trkpt>
      <trkpt lat="45.41662" lon="5.49178">
        <ele>646.14</ele>
        <time>2021-02-11T12:37:46Z</time>
      </trkpt>
      <trkpt lat="45.41661" lon="5.49181">
        <ele>645.66</ele>
        <time>2021-02-11T12:37:48Z</time>
      </trkpt>
      <trkpt lat="45.41656" lon="5.49188">
        <ele>644.7</ele>
        <time>2021-02-11T12:37:53Z</time>
      </trkpt>
      <trkpt lat="45.41643" lon="5.49206">
        <ele>642.78</ele>
        <time>2021-02-11T12:38:08Z</time>
      </trkpt>
      <trkpt lat="45.41633" lon="5.49217">
        <ele>637.49</ele>
        <time>2021-02-11T12:38:18Z</time>
      </trkpt>
      <trkpt lat="45.41632" lon="5.49218">
        <ele>641.34</ele>
        <time>2021-02-11T12:38:19Z</time>
      </trkpt>
      <trkpt lat="45.41615" lon="5.49234">
        <ele>638.93</ele>
        <time>2021-02-11T12:38:34Z</time>
      </trkpt>
      <trkpt lat="45.41612" lon="5.49236">
        <ele>634.61</ele>
        <time>2021-02-11T12:38:36Z</time>
      </trkpt>
      <trkpt lat="45.41611" lon="5.49237">
        <ele>641.82</ele>
        <time>2021-02-11T12:38:37Z</time>
      </trkpt>
      <trkpt lat="45.41609" lon="5.49239">
        <ele>638.93</ele>
        <time>2021-02-11T12:38:39Z</time>
      </trkpt>
      <trkpt lat="45.41592" lon="5.49253">
        <ele>637.49</ele>
        <time>2021-02-11T12:38:55Z</time>
      </trkpt>
      <trkpt lat="45.41579" lon="5.49259">
        <ele>636.53</ele>
        <time>2021-02-11T12:39:09Z</time>
      </trkpt>
      <trkpt lat="45.41575" lon="5.49258">
        <ele>640.38</ele>
        <time>2021-02-11T12:39:19Z</time>
      </trkpt>
      <trkpt lat="45.41575" lon="5.49258">
        <ele>637.01</ele>
        <time>2021-02-11T12:39:20Z</time>
      </trkpt>
      <trkpt lat="45.41574" lon="5.49259">
        <ele>636.53</ele>
        <time>2021-02-11T12:39:22Z</time>
      </trkpt>
      <trkpt lat="45.41567" lon="5.4926">
        <ele>636.53</ele>
        <time>2021-02-11T12:39:34Z</time>
      </trkpt>
      <trkpt lat="45.41567" lon="5.49262">
        <ele>636.05</ele>
        <time>2021-02-11T12:39:40Z</time>
      </trkpt>
      <trkpt lat="45.41567" lon="5.49271">
        <ele>631.24</ele>
        <time>2021-02-11T12:39:46Z</time>
      </trkpt>
      <trkpt lat="45.41567" lon="5.49272">
        <ele>631.72</ele>
        <time>2021-02-11T12:39:47Z</time>
      </trkpt>
      <trkpt lat="45.41567" lon="5.49274">
        <ele>644.22</ele>
        <time>2021-02-11T12:39:48Z</time>
      </trkpt>
      <trkpt lat="45.41566" lon="5.49275">
        <ele>637.49</ele>
        <time>2021-02-11T12:39:49Z</time>
      </trkpt>
      <trkpt lat="45.41566" lon="5.49279">
        <ele>636.53</ele>
        <time>2021-02-11T12:39:51Z</time>
      </trkpt>
      <trkpt lat="45.41566" lon="5.4929">
        <ele>627.4</ele>
        <time>2021-02-11T12:39:58Z</time>
      </trkpt>
      <trkpt lat="45.41565" lon="5.49292">
        <ele>643.26</ele>
        <time>2021-02-11T12:39:59Z</time>
      </trkpt>
      <trkpt lat="45.41564" lon="5.49294">
        <ele>619.23</ele>
        <time>2021-02-11T12:40:01Z</time>
      </trkpt>
      <trkpt lat="45.41563" lon="5.49296">
        <ele>648.55</ele>
        <time>2021-02-11T12:40:02Z</time>
      </trkpt>
      <trkpt lat="45.41562" lon="5.49297">
        <ele>628.84</ele>
        <time>2021-02-11T12:40:03Z</time>
      </trkpt>
      <trkpt lat="45.41561" lon="5.49299">
        <ele>636.53</ele>
        <time>2021-02-11T12:40:05Z</time>
      </trkpt>
      <trkpt lat="45.4156" lon="5.493">
        <ele>636.53</ele>
        <time>2021-02-11T12:40:06Z</time>
      </trkpt>
      <trkpt lat="45.41553" lon="5.49312">
        <ele>636.05</ele>
        <time>2021-02-11T12:40:16Z</time>
      </trkpt>
      <trkpt lat="45.41541" lon="5.49325">
        <ele>635.57</ele>
        <time>2021-02-11T12:40:29Z</time>
      </trkpt>
      <trkpt lat="45.41535" lon="5.49329">
        <ele>636.05</ele>
        <time>2021-02-11T12:40:35Z</time>
      </trkpt>
      <trkpt lat="45.41529" lon="5.49332">
        <ele>636.05</ele>
        <time>2021-02-11T12:40:42Z</time>
      </trkpt>
      <trkpt lat="45.41512" lon="5.49343">
        <ele>636.05</ele>
        <time>2021-02-11T12:40:57Z</time>
      </trkpt>
      <trkpt lat="45.41495" lon="5.49351">
        <ele>636.05</ele>
        <time>2021-02-11T12:41:12Z</time>
      </trkpt>
      <trkpt lat="45.41491" lon="5.49354">
        <ele>636.05</ele>
        <time>2021-02-11T12:41:15Z</time>
      </trkpt>
      <trkpt lat="45.41473" lon="5.49364">
        <ele>636.05</ele>
        <time>2021-02-11T12:41:30Z</time>
      </trkpt>
      <trkpt lat="45.41469" lon="5.49367">
        <ele>636.05</ele>
        <time>2021-02-11T12:41:34Z</time>
      </trkpt>
      <trkpt lat="45.41467" lon="5.49369">
        <ele>636.05</ele>
        <time>2021-02-11T12:41:36Z</time>
      </trkpt>
      <trkpt lat="45.41451" lon="5.49379">
        <ele>636.53</ele>
        <time>2021-02-11T12:41:50Z</time>
      </trkpt>
      <trkpt lat="45.41435" lon="5.49393">
        <ele>636.53</ele>
        <time>2021-02-11T12:42:05Z</time>
      </trkpt>
      <trkpt lat="45.41431" lon="5.49396">
        <ele>636.53</ele>
        <time>2021-02-11T12:42:10Z</time>
      </trkpt>
      <trkpt lat="45.41424" lon="5.494">
        <ele>636.53</ele>
        <time>2021-02-11T12:42:16Z</time>
      </trkpt>
      <trkpt lat="45.41419" lon="5.49404">
        <ele>637.01</ele>
        <time>2021-02-11T12:42:21Z</time>
      </trkpt>
      <trkpt lat="45.41402" lon="5.49418">
        <ele>637.01</ele>
        <time>2021-02-11T12:42:37Z</time>
      </trkpt>
      <trkpt lat="45.41395" lon="5.49423">
        <ele>637.01</ele>
        <time>2021-02-11T12:42:44Z</time>
      </trkpt>
      <trkpt lat="45.41387" lon="5.49425">
        <ele>637.49</ele>
        <time>2021-02-11T12:42:50Z</time>
      </trkpt>
      <trkpt lat="45.41376" lon="5.49437">
        <ele>638.45</ele>
        <time>2021-02-11T12:43:03Z</time>
      </trkpt>
      <trkpt lat="45.41368" lon="5.49443">
        <ele>631.72</ele>
        <time>2021-02-11T12:43:15Z</time>
      </trkpt>
      <trkpt lat="45.41368" lon="5.49443">
        <ele>644.7</ele>
        <time>2021-02-11T12:43:16Z</time>
      </trkpt>
      <trkpt lat="45.41368" lon="5.49443">
        <ele>639.41</ele>
        <time>2021-02-11T12:43:17Z</time>
      </trkpt>
      <trkpt lat="45.41361" lon="5.49436">
        <ele>638.93</ele>
        <time>2021-02-11T12:43:30Z</time>
      </trkpt>
      <trkpt lat="45.41361" lon="5.49437">
        <ele>638.93</ele>
        <time>2021-02-11T12:43:41Z</time>
      </trkpt>
      <trkpt lat="45.4136" lon="5.49447">
        <ele>639.41</ele>
        <time>2021-02-11T12:43:53Z</time>
      </trkpt>
      <trkpt lat="45.41356" lon="5.4945">
        <ele>639.89</ele>
        <time>2021-02-11T12:43:58Z</time>
      </trkpt>
      <trkpt lat="45.41345" lon="5.4946">
        <ele>640.86</ele>
        <time>2021-02-11T12:44:12Z</time>
      </trkpt>
      <trkpt lat="45.41337" lon="5.49466">
        <ele>640.86</ele>
        <time>2021-02-11T12:44:24Z</time>
      </trkpt>
      <trkpt lat="45.41327" lon="5.49473">
        <ele>641.34</ele>
        <time>2021-02-11T12:44:38Z</time>
      </trkpt>
      <trkpt lat="45.41312" lon="5.49484">
        <ele>641.82</ele>
        <time>2021-02-11T12:44:51Z</time>
      </trkpt>
      <trkpt lat="45.41294" lon="5.49495">
        <ele>642.3</ele>
        <time>2021-02-11T12:45:06Z</time>
      </trkpt>
      <trkpt lat="45.41289" lon="5.49495">
        <ele>642.3</ele>
        <time>2021-02-11T12:45:10Z</time>
      </trkpt>
      <trkpt lat="45.41285" lon="5.49497">
        <ele>642.3</ele>
        <time>2021-02-11T12:45:13Z</time>
      </trkpt>
      <trkpt lat="45.41283" lon="5.49498">
        <ele>642.3</ele>
        <time>2021-02-11T12:45:15Z</time>
      </trkpt>
      <trkpt lat="45.41278" lon="5.495">
        <ele>642.78</ele>
        <time>2021-02-11T12:45:20Z</time>
      </trkpt>
      <trkpt lat="45.41274" lon="5.495">
        <ele>642.78</ele>
        <time>2021-02-11T12:45:23Z</time>
      </trkpt>
      <trkpt lat="45.41258" lon="5.49506">
        <ele>636.53</ele>
        <time>2021-02-11T12:45:37Z</time>
      </trkpt>
      <trkpt lat="45.41257" lon="5.49506">
        <ele>648.07</ele>
        <time>2021-02-11T12:45:38Z</time>
      </trkpt>
      <trkpt lat="45.41256" lon="5.49506">
        <ele>643.74</ele>
        <time>2021-02-11T12:45:39Z</time>
      </trkpt>
      <trkpt lat="45.41242" lon="5.49506">
        <ele>643.74</ele>
        <time>2021-02-11T12:45:53Z</time>
      </trkpt>
      <trkpt lat="45.4124" lon="5.49508">
        <ele>635.57</ele>
        <time>2021-02-11T12:46:05Z</time>
      </trkpt>
      <trkpt lat="45.4124" lon="5.49508">
        <ele>651.91</ele>
        <time>2021-02-11T12:46:06Z</time>
      </trkpt>
      <trkpt lat="45.4124" lon="5.49508">
        <ele>644.7</ele>
        <time>2021-02-11T12:46:07Z</time>
      </trkpt>
      <trkpt lat="45.4124" lon="5.49508">
        <ele>638.45</ele>
        <time>2021-02-11T12:46:08Z</time>
      </trkpt>
      <trkpt lat="45.4124" lon="5.49508">
        <ele>651.91</ele>
        <time>2021-02-11T12:46:09Z</time>
      </trkpt>
      <trkpt lat="45.4124" lon="5.49508">
        <ele>631.72</ele>
        <time>2021-02-11T12:46:10Z</time>
      </trkpt>
      <trkpt lat="45.4124" lon="5.49508">
        <ele>645.66</ele>
        <time>2021-02-11T12:46:11Z</time>
      </trkpt>
      <trkpt lat="45.4124" lon="5.49508">
        <ele>651.43</ele>
        <time>2021-02-11T12:46:12Z</time>
      </trkpt>
      <trkpt lat="45.4124" lon="5.49508">
        <ele>644.7</ele>
        <time>2021-02-11T12:46:13Z</time>
      </trkpt>
      <trkpt lat="45.4124" lon="5.49508">
        <ele>637.49</ele>
        <time>2021-02-11T12:46:15Z</time>
      </trkpt>
      <trkpt lat="45.4124" lon="5.49508">
        <ele>650.95</ele>
        <time>2021-02-11T12:46:16Z</time>
      </trkpt>
      <trkpt lat="45.4124" lon="5.49508">
        <ele>646.62</ele>
        <time>2021-02-11T12:46:17Z</time>
      </trkpt>
      <trkpt lat="45.4124" lon="5.49509">
        <ele>640.38</ele>
        <time>2021-02-11T12:46:34Z</time>
      </trkpt>
      <trkpt lat="45.4124" lon="5.49509">
        <ele>648.55</ele>
        <time>2021-02-11T12:46:35Z</time>
      </trkpt>
      <trkpt lat="45.41239" lon="5.49509">
        <ele>646.62</ele>
        <time>2021-02-11T12:46:36Z</time>
      </trkpt>
      <trkpt lat="45.41239" lon="5.49509">
        <ele>644.7</ele>
        <time>2021-02-11T12:46:38Z</time>
      </trkpt>
      <trkpt lat="45.41237" lon="5.49514">
        <ele>645.66</ele>
        <time>2021-02-11T12:46:46Z</time>
      </trkpt>
      <trkpt lat="45.41237" lon="5.49531">
        <ele>647.59</ele>
        <time>2021-02-11T12:46:58Z</time>
      </trkpt>
      <trkpt lat="45.41241" lon="5.49549">
        <ele>650.47</ele>
        <time>2021-02-11T12:47:15Z</time>
      </trkpt>
      <trkpt lat="45.41241" lon="5.49562">
        <ele>653.35</ele>
        <time>2021-02-11T12:47:29Z</time>
      </trkpt>
      <trkpt lat="45.4124" lon="5.49571">
        <ele>654.31</ele>
        <time>2021-02-11T12:47:42Z</time>
      </trkpt>
      <trkpt lat="45.41237" lon="5.49581">
        <ele>656.24</ele>
        <time>2021-02-11T12:47:54Z</time>
      </trkpt>
      <trkpt lat="45.41235" lon="5.49597">
        <ele>658.64</ele>
        <time>2021-02-11T12:48:09Z</time>
      </trkpt>
      <trkpt lat="45.41234" lon="5.49607">
        <ele>661.04</ele>
        <time>2021-02-11T12:48:23Z</time>
      </trkpt>
      <trkpt lat="45.41231" lon="5.49618">
        <ele>663.45</ele>
        <time>2021-02-11T12:48:38Z</time>
      </trkpt>
      <trkpt lat="45.41226" lon="5.4963">
        <ele>665.37</ele>
        <time>2021-02-11T12:48:51Z</time>
      </trkpt>
      <trkpt lat="45.41224" lon="5.49641">
        <ele>666.81</ele>
        <time>2021-02-11T12:49:01Z</time>
      </trkpt>
      <trkpt lat="45.41219" lon="5.49652">
        <ele>668.25</ele>
        <time>2021-02-11T12:49:14Z</time>
      </trkpt>
      <trkpt lat="45.41217" lon="5.49665">
        <ele>669.22</ele>
        <time>2021-02-11T12:49:26Z</time>
      </trkpt>
      <trkpt lat="45.41216" lon="5.49669">
        <ele>669.7</ele>
        <time>2021-02-11T12:49:30Z</time>
      </trkpt>
      <trkpt lat="45.41214" lon="5.49688">
        <ele>671.14</ele>
        <time>2021-02-11T12:49:44Z</time>
      </trkpt>
      <trkpt lat="45.41211" lon="5.49706">
        <ele>672.58</ele>
        <time>2021-02-11T12:49:58Z</time>
      </trkpt>
      <trkpt lat="45.4121" lon="5.49713">
        <ele>667.77</ele>
        <time>2021-02-11T12:50:05Z</time>
      </trkpt>
      <trkpt lat="45.4121" lon="5.49714">
        <ele>674.02</ele>
        <time>2021-02-11T12:50:06Z</time>
      </trkpt>
      <trkpt lat="45.4121" lon="5.49714">
        <ele>667.77</ele>
        <time>2021-02-11T12:50:08Z</time>
      </trkpt>
      <trkpt lat="45.4121" lon="5.49713">
        <ele>667.77</ele>
        <time>2021-02-11T12:50:09Z</time>
      </trkpt>
      <trkpt lat="45.4121" lon="5.49713">
        <ele>671.14</ele>
        <time>2021-02-11T12:50:10Z</time>
      </trkpt>
      <trkpt lat="45.4121" lon="5.49713">
        <ele>677.39</ele>
        <time>2021-02-11T12:50:11Z</time>
      </trkpt>
      <trkpt lat="45.4121" lon="5.49713">
        <ele>674.5</ele>
        <time>2021-02-11T12:50:12Z</time>
      </trkpt>
      <trkpt lat="45.41207" lon="5.49721">
        <ele>674.98</ele>
        <time>2021-02-11T12:50:25Z</time>
      </trkpt>
      <trkpt lat="45.41205" lon="5.49737">
        <ele>675.94</ele>
        <time>2021-02-11T12:50:37Z</time>
      </trkpt>
      <trkpt lat="45.41202" lon="5.49752">
        <ele>677.87</ele>
        <time>2021-02-11T12:50:49Z</time>
      </trkpt>
      <trkpt lat="45.412" lon="5.49764">
        <ele>679.79</ele>
        <time>2021-02-11T12:51:01Z</time>
      </trkpt>
      <trkpt lat="45.41196" lon="5.4978">
        <ele>681.23</ele>
        <time>2021-02-11T12:51:13Z</time>
      </trkpt>
      <trkpt lat="45.41189" lon="5.49808">
        <ele>687</ele>
        <time>2021-02-11T12:51:44Z</time>
      </trkpt>
      <trkpt lat="45.41187" lon="5.49821">
        <ele>688.44</ele>
        <time>2021-02-11T12:51:56Z</time>
      </trkpt>
      <trkpt lat="45.41187" lon="5.49829">
        <ele>683.15</ele>
        <time>2021-02-11T12:52:03Z</time>
      </trkpt>
      <trkpt lat="45.41187" lon="5.49829">
        <ele>693.73</ele>
        <time>2021-02-11T12:52:04Z</time>
      </trkpt>
      <trkpt lat="45.41187" lon="5.49829">
        <ele>689.88</ele>
        <time>2021-02-11T12:52:05Z</time>
      </trkpt>
      <trkpt lat="45.41187" lon="5.49829">
        <ele>686.04</ele>
        <time>2021-02-11T12:52:09Z</time>
      </trkpt>
      <trkpt lat="45.41187" lon="5.4983">
        <ele>692.29</ele>
        <time>2021-02-11T12:52:10Z</time>
      </trkpt>
      <trkpt lat="45.41187" lon="5.4983">
        <ele>675.46</ele>
        <time>2021-02-11T12:52:11Z</time>
      </trkpt>
      <trkpt lat="45.41187" lon="5.4983">
        <ele>703.34</ele>
        <time>2021-02-11T12:52:12Z</time>
      </trkpt>
      <trkpt lat="45.41187" lon="5.4983">
        <ele>690.84</ele>
        <time>2021-02-11T12:52:13Z</time>
      </trkpt>
      <trkpt lat="45.41187" lon="5.4983">
        <ele>686.52</ele>
        <time>2021-02-11T12:52:14Z</time>
      </trkpt>
      <trkpt lat="45.41187" lon="5.4983">
        <ele>689.88</ele>
        <time>2021-02-11T12:52:15Z</time>
      </trkpt>
      <trkpt lat="45.41187" lon="5.4983">
        <ele>684.12</ele>
        <time>2021-02-11T12:52:32Z</time>
      </trkpt>
      <trkpt lat="45.41187" lon="5.4983">
        <ele>684.12</ele>
        <time>2021-02-11T12:52:33Z</time>
      </trkpt>
      <trkpt lat="45.41187" lon="5.4983">
        <ele>691.33</ele>
        <time>2021-02-11T12:52:35Z</time>
      </trkpt>
      <trkpt lat="45.41187" lon="5.4983">
        <ele>691.33</ele>
        <time>2021-02-11T12:52:36Z</time>
      </trkpt>
      <trkpt lat="45.41187" lon="5.4983">
        <ele>689.4</ele>
        <time>2021-02-11T12:52:39Z</time>
      </trkpt>
      <trkpt lat="45.41188" lon="5.49819">
        <ele>688.44</ele>
        <time>2021-02-11T12:52:49Z</time>
      </trkpt>
      <trkpt lat="45.4119" lon="5.49801">
        <ele>685.08</ele>
        <time>2021-02-11T12:53:04Z</time>
      </trkpt>
      <trkpt lat="45.41189" lon="5.49811">
        <ele>687</ele>
        <time>2021-02-11T13:00:37Z</time>
      </trkpt>
      <trkpt lat="45.41189" lon="5.49815">
        <ele>689.88</ele>
        <time>2021-02-11T13:00:43Z</time>
      </trkpt>
      <trkpt lat="45.41189" lon="5.49815">
        <ele>686.04</ele>
        <time>2021-02-11T13:00:44Z</time>
      </trkpt>
      <trkpt lat="45.41189" lon="5.49814">
        <ele>681.23</ele>
        <time>2021-02-11T13:00:45Z</time>
      </trkpt>
      <trkpt lat="45.41189" lon="5.49814">
        <ele>695.17</ele>
        <time>2021-02-11T13:00:46Z</time>
      </trkpt>
      <trkpt lat="45.41189" lon="5.49814">
        <ele>689.4</ele>
        <time>2021-02-11T13:00:47Z</time>
      </trkpt>
      <trkpt lat="45.41188" lon="5.49816">
        <ele>687.48</ele>
        <time>2021-02-11T13:00:49Z</time>
      </trkpt>
      <trkpt lat="45.41188" lon="5.49824">
        <ele>685.56</ele>
        <time>2021-02-11T13:00:58Z</time>
      </trkpt>
      <trkpt lat="45.41188" lon="5.49825">
        <ele>681.71</ele>
        <time>2021-02-11T13:00:59Z</time>
      </trkpt>
      <trkpt lat="45.41188" lon="5.49825">
        <ele>695.65</ele>
        <time>2021-02-11T13:01:00Z</time>
      </trkpt>
      <trkpt lat="45.41188" lon="5.49825">
        <ele>689.88</ele>
        <time>2021-02-11T13:01:01Z</time>
      </trkpt>
      <trkpt lat="45.41187" lon="5.49825">
        <ele>688.92</ele>
        <time>2021-02-11T13:01:03Z</time>
      </trkpt>
      <trkpt lat="45.41187" lon="5.4983">
        <ele>689.4</ele>
        <time>2021-02-11T13:01:11Z</time>
      </trkpt>
      <trkpt lat="45.41184" lon="5.49839">
        <ele>687.96</ele>
        <time>2021-02-11T13:01:22Z</time>
      </trkpt>
      <trkpt lat="45.41183" lon="5.4984">
        <ele>692.29</ele>
        <time>2021-02-11T13:01:23Z</time>
      </trkpt>
      <trkpt lat="45.41184" lon="5.4984">
        <ele>691.33</ele>
        <time>2021-02-11T13:01:24Z</time>
      </trkpt>
      <trkpt lat="45.41182" lon="5.49845">
        <ele>687</ele>
        <time>2021-02-11T13:01:29Z</time>
      </trkpt>
      <trkpt lat="45.41182" lon="5.49845">
        <ele>688.44</ele>
        <time>2021-02-11T13:01:30Z</time>
      </trkpt>
      <trkpt lat="45.41182" lon="5.49846">
        <ele>698.53</ele>
        <time>2021-02-11T13:01:31Z</time>
      </trkpt>
      <trkpt lat="45.41181" lon="5.49847">
        <ele>692.77</ele>
        <time>2021-02-11T13:01:32Z</time>
      </trkpt>
      <trkpt lat="45.41181" lon="5.49857">
        <ele>693.25</ele>
        <time>2021-02-11T13:01:43Z</time>
      </trkpt>
      <trkpt lat="45.4118" lon="5.49866">
        <ele>695.17</ele>
        <time>2021-02-11T13:01:54Z</time>
      </trkpt>
      <trkpt lat="45.4118" lon="5.49867">
        <ele>697.57</ele>
        <time>2021-02-11T13:02:06Z</time>
      </trkpt>
      <trkpt lat="45.4118" lon="5.49868">
        <ele>695.65</ele>
        <time>2021-02-11T13:02:07Z</time>
      </trkpt>
      <trkpt lat="45.4118" lon="5.49868">
        <ele>704.3</ele>
        <time>2021-02-11T13:02:09Z</time>
      </trkpt>
      <trkpt lat="45.4118" lon="5.49868">
        <ele>689.4</ele>
        <time>2021-02-11T13:02:10Z</time>
      </trkpt>
      <trkpt lat="45.4118" lon="5.49868">
        <ele>700.94</ele>
        <time>2021-02-11T13:02:11Z</time>
      </trkpt>
      <trkpt lat="45.4118" lon="5.49868">
        <ele>693.25</ele>
        <time>2021-02-11T13:02:12Z</time>
      </trkpt>
      <trkpt lat="45.4118" lon="5.49868">
        <ele>689.4</ele>
        <time>2021-02-11T13:02:13Z</time>
      </trkpt>
      <trkpt lat="45.4118" lon="5.49868">
        <ele>701.42</ele>
        <time>2021-02-11T13:02:14Z</time>
      </trkpt>
      <trkpt lat="45.4118" lon="5.49867">
        <ele>690.36</ele>
        <time>2021-02-11T13:02:15Z</time>
      </trkpt>
      <trkpt lat="45.4118" lon="5.49867">
        <ele>699.98</ele>
        <time>2021-02-11T13:02:16Z</time>
      </trkpt>
      <trkpt lat="45.4118" lon="5.49867">
        <ele>696.13</ele>
        <time>2021-02-11T13:02:17Z</time>
      </trkpt>
      <trkpt lat="45.4118" lon="5.49867">
        <ele>691.81</ele>
        <time>2021-02-11T13:02:19Z</time>
      </trkpt>
      <trkpt lat="45.4118" lon="5.49867">
        <ele>698.53</ele>
        <time>2021-02-11T13:02:20Z</time>
      </trkpt>
      <trkpt lat="45.4118" lon="5.49867">
        <ele>689.88</ele>
        <time>2021-02-11T13:02:21Z</time>
      </trkpt>
      <trkpt lat="45.4118" lon="5.49867">
        <ele>700.46</ele>
        <time>2021-02-11T13:02:22Z</time>
      </trkpt>
      <trkpt lat="45.4118" lon="5.49867">
        <ele>696.13</ele>
        <time>2021-02-11T13:02:23Z</time>
      </trkpt>
      <trkpt lat="45.4118" lon="5.49868">
        <ele>692.29</ele>
        <time>2021-02-11T13:02:34Z</time>
      </trkpt>
      <trkpt lat="45.4118" lon="5.49868">
        <ele>696.61</ele>
        <time>2021-02-11T13:02:35Z</time>
      </trkpt>
      <trkpt lat="45.4118" lon="5.49878">
        <ele>697.57</ele>
        <time>2021-02-11T13:02:46Z</time>
      </trkpt>
      <trkpt lat="45.4118" lon="5.49882">
        <ele>689.88</ele>
        <time>2021-02-11T13:02:51Z</time>
      </trkpt>
      <trkpt lat="45.4118" lon="5.49882">
        <ele>705.75</ele>
        <time>2021-02-11T13:02:52Z</time>
      </trkpt>
      <trkpt lat="45.4118" lon="5.49882">
        <ele>689.88</ele>
        <time>2021-02-11T13:02:53Z</time>
      </trkpt>
      <trkpt lat="45.4118" lon="5.49882">
        <ele>707.19</ele>
        <time>2021-02-11T13:02:54Z</time>
      </trkpt>
      <trkpt lat="45.4118" lon="5.49882">
        <ele>691.81</ele>
        <time>2021-02-11T13:02:55Z</time>
      </trkpt>
      <trkpt lat="45.4118" lon="5.49882">
        <ele>703.82</ele>
        <time>2021-02-11T13:02:56Z</time>
      </trkpt>
      <trkpt lat="45.4118" lon="5.49882">
        <ele>699.02</ele>
        <time>2021-02-11T13:02:57Z</time>
      </trkpt>
      <trkpt lat="45.41181" lon="5.49895">
        <ele>700.46</ele>
        <time>2021-02-11T13:03:12Z</time>
      </trkpt>
      <trkpt lat="45.4118" lon="5.49909">
        <ele>702.38</ele>
        <time>2021-02-11T13:03:27Z</time>
      </trkpt>
      <trkpt lat="45.41179" lon="5.49914">
        <ele>703.34</ele>
        <time>2021-02-11T13:03:32Z</time>
      </trkpt>
      <trkpt lat="45.41179" lon="5.49921">
        <ele>703.82</ele>
        <time>2021-02-11T13:03:36Z</time>
      </trkpt>
      <trkpt lat="45.41177" lon="5.49938">
        <ele>706.71</ele>
        <time>2021-02-11T13:03:51Z</time>
      </trkpt>
      <trkpt lat="45.41174" lon="5.49951">
        <ele>708.63</ele>
        <time>2021-02-11T13:04:03Z</time>
      </trkpt>
      <trkpt lat="45.41172" lon="5.49957">
        <ele>711.99</ele>
        <time>2021-02-11T13:04:11Z</time>
      </trkpt>
      <trkpt lat="45.41165" lon="5.49959">
        <ele>711.51</ele>
        <time>2021-02-11T13:04:24Z</time>
      </trkpt>
      <trkpt lat="45.41163" lon="5.49954">
        <ele>711.99</ele>
        <time>2021-02-11T13:04:29Z</time>
      </trkpt>
      <trkpt lat="45.41158" lon="5.49947">
        <ele>712.47</ele>
        <time>2021-02-11T13:04:37Z</time>
      </trkpt>
      <trkpt lat="45.41152" lon="5.49945">
        <ele>706.71</ele>
        <time>2021-02-11T13:04:46Z</time>
      </trkpt>
      <trkpt lat="45.41151" lon="5.49945">
        <ele>719.2</ele>
        <time>2021-02-11T13:04:47Z</time>
      </trkpt>
      <trkpt lat="45.4115" lon="5.49945">
        <ele>714.88</ele>
        <time>2021-02-11T13:04:48Z</time>
      </trkpt>
      <trkpt lat="45.41138" lon="5.49943">
        <ele>716.32</ele>
        <time>2021-02-11T13:05:02Z</time>
      </trkpt>
      <trkpt lat="45.41127" lon="5.49939">
        <ele>718.24</ele>
        <time>2021-02-11T13:05:16Z</time>
      </trkpt>
      <trkpt lat="45.41126" lon="5.49938">
        <ele>712.95</ele>
        <time>2021-02-11T13:05:18Z</time>
      </trkpt>
      <trkpt lat="45.41125" lon="5.49938">
        <ele>722.57</ele>
        <time>2021-02-11T13:05:19Z</time>
      </trkpt>
      <trkpt lat="45.41124" lon="5.49937">
        <ele>719.2</ele>
        <time>2021-02-11T13:05:20Z</time>
      </trkpt>
      <trkpt lat="45.41113" lon="5.49937">
        <ele>721.61</ele>
        <time>2021-02-11T13:05:34Z</time>
      </trkpt>
      <trkpt lat="45.41103" lon="5.4994">
        <ele>724.49</ele>
        <time>2021-02-11T13:05:48Z</time>
      </trkpt>
      <trkpt lat="45.41095" lon="5.49946">
        <ele>729.78</ele>
        <time>2021-02-11T13:06:00Z</time>
      </trkpt>
      <trkpt lat="45.41092" lon="5.49953">
        <ele>721.13</ele>
        <time>2021-02-11T13:06:09Z</time>
      </trkpt>
      <trkpt lat="45.41091" lon="5.49954">
        <ele>735.55</ele>
        <time>2021-02-11T13:06:10Z</time>
      </trkpt>
      <trkpt lat="45.41091" lon="5.49955">
        <ele>729.3</ele>
        <time>2021-02-11T13:06:11Z</time>
      </trkpt>
      <trkpt lat="45.41091" lon="5.49956">
        <ele>728.82</ele>
        <time>2021-02-11T13:06:12Z</time>
      </trkpt>
      <trkpt lat="45.41085" lon="5.49968">
        <ele>730.74</ele>
        <time>2021-02-11T13:06:25Z</time>
      </trkpt>
      <trkpt lat="45.41082" lon="5.49983">
        <ele>732.66</ele>
        <time>2021-02-11T13:06:39Z</time>
      </trkpt>
      <trkpt lat="45.41079" lon="5.49998">
        <ele>735.07</ele>
        <time>2021-02-11T13:06:54Z</time>
      </trkpt>
      <trkpt lat="45.41076" lon="5.50007">
        <ele>729.3</ele>
        <time>2021-02-11T13:07:04Z</time>
      </trkpt>
      <trkpt lat="45.41076" lon="5.50008">
        <ele>741.31</ele>
        <time>2021-02-11T13:07:05Z</time>
      </trkpt>
      <trkpt lat="45.41076" lon="5.50009">
        <ele>736.99</ele>
        <time>2021-02-11T13:07:06Z</time>
      </trkpt>
      <trkpt lat="45.4107" lon="5.50021">
        <ele>738.43</ele>
        <time>2021-02-11T13:07:19Z</time>
      </trkpt>
      <trkpt lat="45.41063" lon="5.50032">
        <ele>740.83</ele>
        <time>2021-02-11T13:07:31Z</time>
      </trkpt>
      <trkpt lat="45.41054" lon="5.50037">
        <ele>736.51</ele>
        <time>2021-02-11T13:07:41Z</time>
      </trkpt>
      <trkpt lat="45.41054" lon="5.50038">
        <ele>740.83</ele>
        <time>2021-02-11T13:07:42Z</time>
      </trkpt>
      <trkpt lat="45.41053" lon="5.50038">
        <ele>748.04</ele>
        <time>2021-02-11T13:07:43Z</time>
      </trkpt>
      <trkpt lat="45.41052" lon="5.50038">
        <ele>741.79</ele>
        <time>2021-02-11T13:07:44Z</time>
      </trkpt>
      <trkpt lat="45.41047" lon="5.50039">
        <ele>733.14</ele>
        <time>2021-02-11T13:07:50Z</time>
      </trkpt>
      <trkpt lat="45.41046" lon="5.50039">
        <ele>749</ele>
        <time>2021-02-11T13:07:51Z</time>
      </trkpt>
      <trkpt lat="45.41045" lon="5.50039">
        <ele>742.28</ele>
        <time>2021-02-11T13:07:52Z</time>
      </trkpt>
      <trkpt lat="45.41044" lon="5.5004">
        <ele>741.79</ele>
        <time>2021-02-11T13:07:54Z</time>
      </trkpt>
      <trkpt lat="45.41042" lon="5.5004">
        <ele>741.31</ele>
        <time>2021-02-11T13:07:56Z</time>
      </trkpt>
      <trkpt lat="45.41032" lon="5.50041">
        <ele>741.79</ele>
        <time>2021-02-11T13:08:09Z</time>
      </trkpt>
      <trkpt lat="45.4102" lon="5.50048">
        <ele>742.28</ele>
        <time>2021-02-11T13:08:24Z</time>
      </trkpt>
      <trkpt lat="45.41019" lon="5.50053">
        <ele>732.18</ele>
        <time>2021-02-11T13:08:29Z</time>
      </trkpt>
      <trkpt lat="45.41018" lon="5.50054">
        <ele>751.89</ele>
        <time>2021-02-11T13:08:30Z</time>
      </trkpt>
      <trkpt lat="45.41018" lon="5.50054">
        <ele>743.24</ele>
        <time>2021-02-11T13:08:31Z</time>
      </trkpt>
      <trkpt lat="45.41018" lon="5.50054">
        <ele>742.28</ele>
        <time>2021-02-11T13:08:33Z</time>
      </trkpt>
      <trkpt lat="45.41018" lon="5.50055">
        <ele>742.76</ele>
        <time>2021-02-11T13:08:35Z</time>
      </trkpt>
      <trkpt lat="45.4102" lon="5.50074">
        <ele>744.2</ele>
        <time>2021-02-11T13:08:49Z</time>
      </trkpt>
      <trkpt lat="45.41024" lon="5.50093">
        <ele>746.12</ele>
        <time>2021-02-11T13:09:04Z</time>
      </trkpt>
      <trkpt lat="45.41025" lon="5.50109">
        <ele>748.04</ele>
        <time>2021-02-11T13:09:17Z</time>
      </trkpt>
      <trkpt lat="45.41023" lon="5.50124">
        <ele>749.49</ele>
        <time>2021-02-11T13:09:28Z</time>
      </trkpt>
      <trkpt lat="45.4102" lon="5.50138">
        <ele>750.93</ele>
        <time>2021-02-11T13:09:40Z</time>
      </trkpt>
      <trkpt lat="45.41016" lon="5.50153">
        <ele>746.12</ele>
        <time>2021-02-11T13:09:54Z</time>
      </trkpt>
      <trkpt lat="45.41016" lon="5.50153">
        <ele>760.54</ele>
        <time>2021-02-11T13:09:55Z</time>
      </trkpt>
      <trkpt lat="45.41016" lon="5.50154">
        <ele>748.52</ele>
        <time>2021-02-11T13:09:56Z</time>
      </trkpt>
      <trkpt lat="45.41016" lon="5.50154">
        <ele>758.14</ele>
        <time>2021-02-11T13:09:57Z</time>
      </trkpt>
      <trkpt lat="45.41016" lon="5.50154">
        <ele>753.81</ele>
        <time>2021-02-11T13:09:58Z</time>
      </trkpt>
      <trkpt lat="45.41016" lon="5.50155">
        <ele>748.52</ele>
        <time>2021-02-11T13:10:01Z</time>
      </trkpt>
      <trkpt lat="45.41016" lon="5.50155">
        <ele>758.14</ele>
        <time>2021-02-11T13:10:02Z</time>
      </trkpt>
      <trkpt lat="45.41016" lon="5.50155">
        <ele>754.77</ele>
        <time>2021-02-11T13:10:03Z</time>
      </trkpt>
      <trkpt lat="45.41016" lon="5.50156">
        <ele>753.33</ele>
        <time>2021-02-11T13:10:05Z</time>
      </trkpt>
      <trkpt lat="45.41012" lon="5.50172">
        <ele>754.77</ele>
        <time>2021-02-11T13:10:18Z</time>
      </trkpt>
      <trkpt lat="45.41009" lon="5.50182">
        <ele>756.21</ele>
        <time>2021-02-11T13:10:32Z</time>
      </trkpt>
      <trkpt lat="45.41008" lon="5.50199">
        <ele>757.18</ele>
        <time>2021-02-11T13:10:42Z</time>
      </trkpt>
      <trkpt lat="45.41015" lon="5.50215">
        <ele>759.1</ele>
        <time>2021-02-11T13:10:56Z</time>
      </trkpt>
      <trkpt lat="45.41021" lon="5.50224">
        <ele>760.54</ele>
        <time>2021-02-11T13:11:08Z</time>
      </trkpt>
      <trkpt lat="45.41033" lon="5.50238">
        <ele>761.98</ele>
        <time>2021-02-11T13:11:22Z</time>
      </trkpt>
      <trkpt lat="45.41036" lon="5.50241">
        <ele>761.98</ele>
        <time>2021-02-11T13:11:25Z</time>
      </trkpt>
      <trkpt lat="45.41045" lon="5.50254">
        <ele>763.42</ele>
        <time>2021-02-11T13:11:38Z</time>
      </trkpt>
      <trkpt lat="45.41046" lon="5.50255">
        <ele>759.1</ele>
        <time>2021-02-11T13:11:40Z</time>
      </trkpt>
      <trkpt lat="45.41047" lon="5.50256">
        <ele>769.67</ele>
        <time>2021-02-11T13:11:41Z</time>
      </trkpt>
      <trkpt lat="45.41048" lon="5.50256">
        <ele>764.39</ele>
        <time>2021-02-11T13:11:42Z</time>
      </trkpt>
      <trkpt lat="45.41048" lon="5.50257">
        <ele>758.14</ele>
        <time>2021-02-11T13:11:43Z</time>
      </trkpt>
      <trkpt lat="45.41049" lon="5.50258">
        <ele>769.19</ele>
        <time>2021-02-11T13:11:44Z</time>
      </trkpt>
      <trkpt lat="45.4105" lon="5.50258">
        <ele>765.83</ele>
        <time>2021-02-11T13:11:45Z</time>
      </trkpt>
      <trkpt lat="45.41051" lon="5.5026">
        <ele>763.9</ele>
        <time>2021-02-11T13:11:47Z</time>
      </trkpt>
      <trkpt lat="45.41064" lon="5.50274">
        <ele>764.87</ele>
        <time>2021-02-11T13:12:02Z</time>
      </trkpt>
      <trkpt lat="45.41076" lon="5.50282">
        <ele>765.83</ele>
        <time>2021-02-11T13:12:11Z</time>
      </trkpt>
      <trkpt lat="45.41083" lon="5.50298">
        <ele>766.79</ele>
        <time>2021-02-11T13:12:25Z</time>
      </trkpt>
      <trkpt lat="45.41088" lon="5.50313">
        <ele>768.23</ele>
        <time>2021-02-11T13:12:38Z</time>
      </trkpt>
      <trkpt lat="45.4109" lon="5.50318">
        <ele>768.23</ele>
        <time>2021-02-11T13:12:42Z</time>
      </trkpt>
      <trkpt lat="45.41097" lon="5.50341">
        <ele>768.71</ele>
        <time>2021-02-11T13:12:58Z</time>
      </trkpt>
      <trkpt lat="45.41098" lon="5.50347">
        <ele>768.71</ele>
        <time>2021-02-11T13:13:02Z</time>
      </trkpt>
      <trkpt lat="45.411" lon="5.5035">
        <ele>760.54</ele>
        <time>2021-02-11T13:13:09Z</time>
      </trkpt>
      <trkpt lat="45.411" lon="5.5035">
        <ele>777.36</ele>
        <time>2021-02-11T13:13:10Z</time>
      </trkpt>
      <trkpt lat="45.411" lon="5.5035">
        <ele>764.87</ele>
        <time>2021-02-11T13:13:11Z</time>
      </trkpt>
      <trkpt lat="45.41101" lon="5.5035">
        <ele>773.04</ele>
        <time>2021-02-11T13:13:12Z</time>
      </trkpt>
      <trkpt lat="45.41101" lon="5.50351">
        <ele>762.46</ele>
        <time>2021-02-11T13:13:13Z</time>
      </trkpt>
      <trkpt lat="45.41102" lon="5.50351">
        <ele>775.44</ele>
        <time>2021-02-11T13:13:14Z</time>
      </trkpt>
      <trkpt lat="45.41103" lon="5.50352">
        <ele>769.19</ele>
        <time>2021-02-11T13:13:15Z</time>
      </trkpt>
      <trkpt lat="45.41105" lon="5.50355">
        <ele>768.71</ele>
        <time>2021-02-11T13:13:18Z</time>
      </trkpt>
      <trkpt lat="45.41106" lon="5.50357">
        <ele>768.71</ele>
        <time>2021-02-11T13:13:20Z</time>
      </trkpt>
      <trkpt lat="45.41118" lon="5.50375">
        <ele>768.23</ele>
        <time>2021-02-11T13:13:35Z</time>
      </trkpt>
      <trkpt lat="45.41129" lon="5.50388">
        <ele>768.23</ele>
        <time>2021-02-11T13:13:49Z</time>
      </trkpt>
      <trkpt lat="45.4113" lon="5.50388">
        <ele>768.23</ele>
        <time>2021-02-11T13:13:50Z</time>
      </trkpt>
      <trkpt lat="45.41132" lon="5.50389">
        <ele>768.23</ele>
        <time>2021-02-11T13:13:52Z</time>
      </trkpt>
      <trkpt lat="45.41141" lon="5.504">
        <ele>768.23</ele>
        <time>2021-02-11T13:14:06Z</time>
      </trkpt>
      <trkpt lat="45.41148" lon="5.50403">
        <ele>768.23</ele>
        <time>2021-02-11T13:14:14Z</time>
      </trkpt>
      <trkpt lat="45.41163" lon="5.50414">
        <ele>767.75</ele>
        <time>2021-02-11T13:14:29Z</time>
      </trkpt>
      <trkpt lat="45.41177" lon="5.50425">
        <ele>767.75</ele>
        <time>2021-02-11T13:14:42Z</time>
      </trkpt>
      <trkpt lat="45.4119" lon="5.50439">
        <ele>767.27</ele>
        <time>2021-02-11T13:14:56Z</time>
      </trkpt>
      <trkpt lat="45.41205" lon="5.50453">
        <ele>767.75</ele>
        <time>2021-02-11T13:15:11Z</time>
      </trkpt>
      <trkpt lat="45.4122" lon="5.50466">
        <ele>767.75</ele>
        <time>2021-02-11T13:15:27Z</time>
      </trkpt>
      <trkpt lat="45.41234" lon="5.50475">
        <ele>767.75</ele>
        <time>2021-02-11T13:15:41Z</time>
      </trkpt>
      <trkpt lat="45.41237" lon="5.50479">
        <ele>767.75</ele>
        <time>2021-02-11T13:15:45Z</time>
      </trkpt>
      <trkpt lat="45.41249" lon="5.50484">
        <ele>767.75</ele>
        <time>2021-02-11T13:15:58Z</time>
      </trkpt>
      <trkpt lat="45.41266" lon="5.50482">
        <ele>768.71</ele>
        <time>2021-02-11T13:16:12Z</time>
      </trkpt>
      <trkpt lat="45.41269" lon="5.50483">
        <ele>760.06</ele>
        <time>2021-02-11T13:16:16Z</time>
      </trkpt>
      <trkpt lat="45.41269" lon="5.50482">
        <ele>775.44</ele>
        <time>2021-02-11T13:16:17Z</time>
      </trkpt>
      <trkpt lat="45.41269" lon="5.50482">
        <ele>765.83</ele>
        <time>2021-02-11T13:16:18Z</time>
      </trkpt>
      <trkpt lat="45.41269" lon="5.50482">
        <ele>773.52</ele>
        <time>2021-02-11T13:16:20Z</time>
      </trkpt>
      <trkpt lat="45.41269" lon="5.50482">
        <ele>764.39</ele>
        <time>2021-02-11T13:16:21Z</time>
      </trkpt>
      <trkpt lat="45.41269" lon="5.50482">
        <ele>773.52</ele>
        <time>2021-02-11T13:16:22Z</time>
      </trkpt>
      <trkpt lat="45.4127" lon="5.50482">
        <ele>769.19</ele>
        <time>2021-02-11T13:16:23Z</time>
      </trkpt>
      <trkpt lat="45.4127" lon="5.50482">
        <ele>762.94</ele>
        <time>2021-02-11T13:16:24Z</time>
      </trkpt>
      <trkpt lat="45.4127" lon="5.50482">
        <ele>770.63</ele>
        <time>2021-02-11T13:16:25Z</time>
      </trkpt>
      <trkpt lat="45.4127" lon="5.50482">
        <ele>764.39</ele>
        <time>2021-02-11T13:16:26Z</time>
      </trkpt>
      <trkpt lat="45.4127" lon="5.50482">
        <ele>775.92</ele>
        <time>2021-02-11T13:16:27Z</time>
      </trkpt>
      <trkpt lat="45.4127" lon="5.50482">
        <ele>765.35</ele>
        <time>2021-02-11T13:16:28Z</time>
      </trkpt>
      <trkpt lat="45.4127" lon="5.50482">
        <ele>772.56</ele>
        <time>2021-02-11T13:16:29Z</time>
      </trkpt>
      <trkpt lat="45.4127" lon="5.50482">
        <ele>769.67</ele>
        <time>2021-02-11T13:16:30Z</time>
      </trkpt>
      <trkpt lat="45.41271" lon="5.50481">
        <ele>769.19</ele>
        <time>2021-02-11T13:16:31Z</time>
      </trkpt>
      <trkpt lat="45.41283" lon="5.5047">
        <ele>771.11</ele>
        <time>2021-02-11T13:16:46Z</time>
      </trkpt>
      <trkpt lat="45.41293" lon="5.50455">
        <ele>773.04</ele>
        <time>2021-02-11T13:17:01Z</time>
      </trkpt>
      <trkpt lat="45.41294" lon="5.50453">
        <ele>769.67</ele>
        <time>2021-02-11T13:17:03Z</time>
      </trkpt>
      <trkpt lat="45.41295" lon="5.50451">
        <ele>773.04</ele>
        <time>2021-02-11T13:17:05Z</time>
      </trkpt>
      <trkpt lat="45.41301" lon="5.50439">
        <ele>774</ele>
        <time>2021-02-11T13:17:14Z</time>
      </trkpt>
      <trkpt lat="45.41303" lon="5.50434">
        <ele>774</ele>
        <time>2021-02-11T13:17:18Z</time>
      </trkpt>
      <trkpt lat="45.41307" lon="5.50425">
        <ele>760.54</ele>
        <time>2021-02-11T13:17:26Z</time>
      </trkpt>
      <trkpt lat="45.41308" lon="5.50425">
        <ele>784.57</ele>
        <time>2021-02-11T13:17:27Z</time>
      </trkpt>
      <trkpt lat="45.41309" lon="5.50424">
        <ele>775.44</ele>
        <time>2021-02-11T13:17:28Z</time>
      </trkpt>
      <trkpt lat="45.4131" lon="5.50421">
        <ele>774.96</ele>
        <time>2021-02-11T13:17:30Z</time>
      </trkpt>
      <trkpt lat="45.41317" lon="5.50405">
        <ele>774.48</ele>
        <time>2021-02-11T13:17:43Z</time>
      </trkpt>
      <trkpt lat="45.41323" lon="5.50391">
        <ele>775.92</ele>
        <time>2021-02-11T13:17:53Z</time>
      </trkpt>
      <trkpt lat="45.41331" lon="5.5037">
        <ele>776.4</ele>
        <time>2021-02-11T13:18:07Z</time>
      </trkpt>
      <trkpt lat="45.41333" lon="5.50366">
        <ele>776.4</ele>
        <time>2021-02-11T13:18:10Z</time>
      </trkpt>
      <trkpt lat="45.41339" lon="5.50347">
        <ele>775.92</ele>
        <time>2021-02-11T13:18:23Z</time>
      </trkpt>
      <trkpt lat="45.4135" lon="5.50314">
        <ele>774.96</ele>
        <time>2021-02-11T13:18:45Z</time>
      </trkpt>
      <trkpt lat="45.41351" lon="5.50314">
        <ele>775.92</ele>
        <time>2021-02-11T13:18:50Z</time>
      </trkpt>
      <trkpt lat="45.41351" lon="5.50314">
        <ele>775.44</ele>
        <time>2021-02-11T13:18:52Z</time>
      </trkpt>
      <trkpt lat="45.41351" lon="5.50315">
        <ele>775.44</ele>
        <time>2021-02-11T13:19:01Z</time>
      </trkpt>
      <trkpt lat="45.4135" lon="5.50315">
        <ele>774</ele>
        <time>2021-02-11T13:19:15Z</time>
      </trkpt>
      <trkpt lat="45.41351" lon="5.50315">
        <ele>774</ele>
        <time>2021-02-11T13:19:46Z</time>
      </trkpt>
      <trkpt lat="45.41351" lon="5.50314">
        <ele>774</ele>
        <time>2021-02-11T13:20:33Z</time>
      </trkpt>
      <trkpt lat="45.41351" lon="5.50314">
        <ele>774</ele>
        <time>2021-02-11T13:21:14Z</time>
      </trkpt>
      <trkpt lat="45.41351" lon="5.50313">
        <ele>774</ele>
        <time>2021-02-11T13:21:31Z</time>
      </trkpt>
      <trkpt lat="45.41352" lon="5.50315">
        <ele>774.48</ele>
        <time>2021-02-11T13:21:40Z</time>
      </trkpt>
      <trkpt lat="45.41352" lon="5.50313">
        <ele>774.96</ele>
        <time>2021-02-11T13:21:45Z</time>
      </trkpt>
      <trkpt lat="45.41358" lon="5.50299">
        <ele>775.92</ele>
        <time>2021-02-11T13:21:58Z</time>
      </trkpt>
      <trkpt lat="45.4136" lon="5.50295">
        <ele>772.08</ele>
        <time>2021-02-11T13:22:08Z</time>
      </trkpt>
      <trkpt lat="45.4136" lon="5.50295">
        <ele>763.42</ele>
        <time>2021-02-11T13:22:09Z</time>
      </trkpt>
      <trkpt lat="45.4136" lon="5.50295">
        <ele>789.38</ele>
        <time>2021-02-11T13:22:10Z</time>
      </trkpt>
      <trkpt lat="45.4136" lon="5.50295">
        <ele>768.71</ele>
        <time>2021-02-11T13:22:11Z</time>
      </trkpt>
      <trkpt lat="45.4136" lon="5.50295">
        <ele>779.29</ele>
        <time>2021-02-11T13:22:12Z</time>
      </trkpt>
      <trkpt lat="45.4136" lon="5.50295">
        <ele>774</ele>
        <time>2021-02-11T13:22:13Z</time>
      </trkpt>
      <trkpt lat="45.4136" lon="5.50295">
        <ele>768.71</ele>
        <time>2021-02-11T13:22:15Z</time>
      </trkpt>
      <trkpt lat="45.41361" lon="5.50295">
        <ele>778.81</ele>
        <time>2021-02-11T13:22:16Z</time>
      </trkpt>
      <trkpt lat="45.41361" lon="5.50295">
        <ele>774.48</ele>
        <time>2021-02-11T13:22:17Z</time>
      </trkpt>
      <trkpt lat="45.41361" lon="5.50295">
        <ele>766.79</ele>
        <time>2021-02-11T13:22:19Z</time>
      </trkpt>
      <trkpt lat="45.4136" lon="5.50295">
        <ele>781.21</ele>
        <time>2021-02-11T13:22:20Z</time>
      </trkpt>
      <trkpt lat="45.4136" lon="5.50295">
        <ele>774.48</ele>
        <time>2021-02-11T13:22:21Z</time>
      </trkpt>
      <trkpt lat="45.41366" lon="5.50284">
        <ele>774</ele>
        <time>2021-02-11T13:22:36Z</time>
      </trkpt>
      <trkpt lat="45.41368" lon="5.50283">
        <ele>774</ele>
        <time>2021-02-11T13:22:45Z</time>
      </trkpt>
      <trkpt lat="45.41369" lon="5.50279">
        <ele>773.52</ele>
        <time>2021-02-11T13:22:50Z</time>
      </trkpt>
      <trkpt lat="45.41379" lon="5.50258">
        <ele>772.56</ele>
        <time>2021-02-11T13:23:04Z</time>
      </trkpt>
      <trkpt lat="45.41394" lon="5.50234">
        <ele>771.6</ele>
        <time>2021-02-11T13:23:21Z</time>
      </trkpt>
      <trkpt lat="45.4141" lon="5.50211">
        <ele>770.15</ele>
        <time>2021-02-11T13:23:39Z</time>
      </trkpt>
      <trkpt lat="45.41426" lon="5.50183">
        <ele>768.71</ele>
        <time>2021-02-11T13:23:59Z</time>
      </trkpt>
      <trkpt lat="45.41435" lon="5.50171">
        <ele>761.98</ele>
        <time>2021-02-11T13:24:09Z</time>
      </trkpt>
      <trkpt lat="45.41436" lon="5.5017">
        <ele>772.08</ele>
        <time>2021-02-11T13:24:10Z</time>
      </trkpt>
      <trkpt lat="45.41437" lon="5.50168">
        <ele>768.23</ele>
        <time>2021-02-11T13:24:11Z</time>
      </trkpt>
      <trkpt lat="45.41453" lon="5.5014">
        <ele>766.31</ele>
        <time>2021-02-11T13:24:31Z</time>
      </trkpt>
      <trkpt lat="45.41458" lon="5.50135">
        <ele>765.83</ele>
        <time>2021-02-11T13:24:37Z</time>
      </trkpt>
      <trkpt lat="45.41463" lon="5.50135">
        <ele>760.06</ele>
        <time>2021-02-11T13:24:42Z</time>
      </trkpt>
      <trkpt lat="45.41464" lon="5.50134">
        <ele>769.67</ele>
        <time>2021-02-11T13:24:43Z</time>
      </trkpt>
      <trkpt lat="45.41464" lon="5.50133">
        <ele>765.83</ele>
        <time>2021-02-11T13:24:44Z</time>
      </trkpt>
      <trkpt lat="45.41479" lon="5.50125">
        <ele>764.39</ele>
        <time>2021-02-11T13:24:58Z</time>
      </trkpt>
      <trkpt lat="45.41481" lon="5.50124">
        <ele>764.39</ele>
        <time>2021-02-11T13:25:00Z</time>
      </trkpt>
      <trkpt lat="45.41484" lon="5.50124">
        <ele>764.39</ele>
        <time>2021-02-11T13:25:02Z</time>
      </trkpt>
      <trkpt lat="45.41505" lon="5.50118">
        <ele>762.46</ele>
        <time>2021-02-11T13:25:19Z</time>
      </trkpt>
      <trkpt lat="45.41528" lon="5.50111">
        <ele>761.02</ele>
        <time>2021-02-11T13:25:36Z</time>
      </trkpt>
      <trkpt lat="45.41543" lon="5.50112">
        <ele>757.66</ele>
        <time>2021-02-11T13:25:51Z</time>
      </trkpt>
      <trkpt lat="45.41554" lon="5.5011">
        <ele>755.25</ele>
        <time>2021-02-11T13:26:03Z</time>
      </trkpt>
      <trkpt lat="45.41569" lon="5.50108">
        <ele>751.89</ele>
        <time>2021-02-11T13:26:16Z</time>
      </trkpt>
      <trkpt lat="45.41583" lon="5.50107">
        <ele>749</ele>
        <time>2021-02-11T13:26:29Z</time>
      </trkpt>
      <trkpt lat="45.41597" lon="5.50106">
        <ele>747.08</ele>
        <time>2021-02-11T13:26:41Z</time>
      </trkpt>
      <trkpt lat="45.4161" lon="5.5011">
        <ele>744.68</ele>
        <time>2021-02-11T13:26:55Z</time>
      </trkpt>
      <trkpt lat="45.41617" lon="5.50112">
        <ele>743.72</ele>
        <time>2021-02-11T13:27:01Z</time>
      </trkpt>
      <trkpt lat="45.41623" lon="5.50115">
        <ele>738.91</ele>
        <time>2021-02-11T13:27:07Z</time>
      </trkpt>
      <trkpt lat="45.41624" lon="5.50114">
        <ele>745.16</ele>
        <time>2021-02-11T13:27:08Z</time>
      </trkpt>
      <trkpt lat="45.41627" lon="5.50115">
        <ele>741.79</ele>
        <time>2021-02-11T13:27:11Z</time>
      </trkpt>
      <trkpt lat="45.41637" lon="5.50119">
        <ele>735.55</ele>
        <time>2021-02-11T13:27:23Z</time>
      </trkpt>
      <trkpt lat="45.41637" lon="5.50118">
        <ele>742.76</ele>
        <time>2021-02-11T13:27:24Z</time>
      </trkpt>
      <trkpt lat="45.41638" lon="5.50118">
        <ele>739.39</ele>
        <time>2021-02-11T13:27:26Z</time>
      </trkpt>
      <trkpt lat="45.41644" lon="5.50124">
        <ele>737.95</ele>
        <time>2021-02-11T13:27:38Z</time>
      </trkpt>
      <trkpt lat="45.41654" lon="5.50133">
        <ele>735.07</ele>
        <time>2021-02-11T13:27:52Z</time>
      </trkpt>
      <trkpt lat="45.41657" lon="5.50134">
        <ele>733.62</ele>
        <time>2021-02-11T13:27:56Z</time>
      </trkpt>
      <trkpt lat="45.4166" lon="5.50136">
        <ele>733.14</ele>
        <time>2021-02-11T13:27:59Z</time>
      </trkpt>
      <trkpt lat="45.41673" lon="5.50141">
        <ele>729.78</ele>
        <time>2021-02-11T13:28:12Z</time>
      </trkpt>
      <trkpt lat="45.41686" lon="5.50147">
        <ele>725.93</ele>
        <time>2021-02-11T13:28:25Z</time>
      </trkpt>
      <trkpt lat="45.417" lon="5.50154">
        <ele>723.05</ele>
        <time>2021-02-11T13:28:38Z</time>
      </trkpt>
      <trkpt lat="45.41712" lon="5.50159">
        <ele>720.65</ele>
        <time>2021-02-11T13:28:51Z</time>
      </trkpt>
      <trkpt lat="45.41723" lon="5.50166">
        <ele>717.28</ele>
        <time>2021-02-11T13:29:02Z</time>
      </trkpt>
      <trkpt lat="45.41731" lon="5.50172">
        <ele>715.36</ele>
        <time>2021-02-11T13:29:10Z</time>
      </trkpt>
      <trkpt lat="45.41737" lon="5.50173">
        <ele>713.92</ele>
        <time>2021-02-11T13:29:17Z</time>
      </trkpt>
      <trkpt lat="45.41752" lon="5.50182">
        <ele>711.03</ele>
        <time>2021-02-11T13:29:31Z</time>
      </trkpt>
      <trkpt lat="45.41763" lon="5.50192">
        <ele>708.63</ele>
        <time>2021-02-11T13:29:42Z</time>
      </trkpt>
      <trkpt lat="45.41767" lon="5.50197">
        <ele>699.5</ele>
        <time>2021-02-11T13:29:47Z</time>
      </trkpt>
      <trkpt lat="45.41767" lon="5.50197">
        <ele>708.63</ele>
        <time>2021-02-11T13:29:48Z</time>
      </trkpt>
      <trkpt lat="45.41773" lon="5.50203">
        <ele>707.19</ele>
        <time>2021-02-11T13:29:56Z</time>
      </trkpt>
      <trkpt lat="45.41776" lon="5.5021">
        <ele>706.23</ele>
        <time>2021-02-11T13:30:01Z</time>
      </trkpt>
      <trkpt lat="45.41778" lon="5.50231">
        <ele>703.82</ele>
        <time>2021-02-11T13:30:16Z</time>
      </trkpt>
      <trkpt lat="45.41781" lon="5.50252">
        <ele>702.86</ele>
        <time>2021-02-11T13:30:30Z</time>
      </trkpt>
      <trkpt lat="45.41781" lon="5.50261">
        <ele>702.38</ele>
        <time>2021-02-11T13:30:35Z</time>
      </trkpt>
      <trkpt lat="45.41786" lon="5.50283">
        <ele>699.98</ele>
        <time>2021-02-11T13:30:48Z</time>
      </trkpt>
      <trkpt lat="45.41786" lon="5.50301">
        <ele>698.05</ele>
        <time>2021-02-11T13:31:00Z</time>
      </trkpt>
      <trkpt lat="45.41783" lon="5.50306">
        <ele>697.09</ele>
        <time>2021-02-11T13:31:04Z</time>
      </trkpt>
      <trkpt lat="45.41783" lon="5.50311">
        <ele>696.61</ele>
        <time>2021-02-11T13:31:07Z</time>
      </trkpt>
      <trkpt lat="45.41779" lon="5.50336">
        <ele>694.69</ele>
        <time>2021-02-11T13:31:22Z</time>
      </trkpt>
      <trkpt lat="45.41779" lon="5.50349">
        <ele>693.73</ele>
        <time>2021-02-11T13:31:28Z</time>
      </trkpt>
      <trkpt lat="45.4178" lon="5.50354">
        <ele>692.77</ele>
        <time>2021-02-11T13:31:32Z</time>
      </trkpt>
      <trkpt lat="45.41784" lon="5.50374">
        <ele>690.36</ele>
        <time>2021-02-11T13:31:46Z</time>
      </trkpt>
      <trkpt lat="45.41787" lon="5.50385">
        <ele>687.96</ele>
        <time>2021-02-11T13:32:00Z</time>
      </trkpt>
      <trkpt lat="45.41796" lon="5.50394">
        <ele>686.52</ele>
        <time>2021-02-11T13:32:08Z</time>
      </trkpt>
      <trkpt lat="45.41814" lon="5.50414">
        <ele>684.6</ele>
        <time>2021-02-11T13:32:23Z</time>
      </trkpt>
      <trkpt lat="45.41829" lon="5.50432">
        <ele>683.15</ele>
        <time>2021-02-11T13:32:36Z</time>
      </trkpt>
      <trkpt lat="45.41838" lon="5.50443">
        <ele>682.19</ele>
        <time>2021-02-11T13:32:46Z</time>
      </trkpt>
      <trkpt lat="45.41842" lon="5.50447">
        <ele>681.71</ele>
        <time>2021-02-11T13:32:50Z</time>
      </trkpt>
      <trkpt lat="45.41859" lon="5.5046">
        <ele>679.79</ele>
        <time>2021-02-11T13:33:04Z</time>
      </trkpt>
      <trkpt lat="45.4187" lon="5.50472">
        <ele>677.39</ele>
        <time>2021-02-11T13:33:19Z</time>
      </trkpt>
      <trkpt lat="45.41883" lon="5.50481">
        <ele>675.46</ele>
        <time>2021-02-11T13:33:30Z</time>
      </trkpt>
      <trkpt lat="45.41889" lon="5.50486">
        <ele>674.5</ele>
        <time>2021-02-11T13:33:35Z</time>
      </trkpt>
      <trkpt lat="45.41901" lon="5.50494">
        <ele>672.58</ele>
        <time>2021-02-11T13:33:48Z</time>
      </trkpt>
      <trkpt lat="45.41911" lon="5.50503">
        <ele>670.18</ele>
        <time>2021-02-11T13:33:59Z</time>
      </trkpt>
      <trkpt lat="45.41921" lon="5.50509">
        <ele>668.25</ele>
        <time>2021-02-11T13:34:11Z</time>
      </trkpt>
      <trkpt lat="45.41926" lon="5.50518">
        <ele>666.33</ele>
        <time>2021-02-11T13:34:22Z</time>
      </trkpt>
      <trkpt lat="45.41932" lon="5.50528">
        <ele>664.41</ele>
        <time>2021-02-11T13:34:33Z</time>
      </trkpt>
      <trkpt lat="45.41951" lon="5.5054">
        <ele>661.52</ele>
        <time>2021-02-11T13:34:47Z</time>
      </trkpt>
      <trkpt lat="45.41958" lon="5.50545">
        <ele>660.56</ele>
        <time>2021-02-11T13:34:59Z</time>
      </trkpt>
      <trkpt lat="45.4196" lon="5.50546">
        <ele>660.56</ele>
        <time>2021-02-11T13:35:14Z</time>
      </trkpt>
      <trkpt lat="45.41969" lon="5.50557">
        <ele>658.64</ele>
        <time>2021-02-11T13:35:27Z</time>
      </trkpt>
      <trkpt lat="45.41977" lon="5.50572">
        <ele>656.72</ele>
        <time>2021-02-11T13:35:41Z</time>
      </trkpt>
      <trkpt lat="45.41995" lon="5.50589">
        <ele>653.83</ele>
        <time>2021-02-11T13:35:56Z</time>
      </trkpt>
      <trkpt lat="45.41997" lon="5.50592">
        <ele>653.83</ele>
        <time>2021-02-11T13:35:58Z</time>
      </trkpt>
      <trkpt lat="45.42009" lon="5.50606">
        <ele>651.91</ele>
        <time>2021-02-11T13:36:08Z</time>
      </trkpt>
      <trkpt lat="45.42011" lon="5.50611">
        <ele>651.43</ele>
        <time>2021-02-11T13:36:11Z</time>
      </trkpt>
      <trkpt lat="45.42019" lon="5.50619">
        <ele>650.47</ele>
        <time>2021-02-11T13:36:18Z</time>
      </trkpt>
      <trkpt lat="45.42033" lon="5.50638">
        <ele>648.07</ele>
        <time>2021-02-11T13:36:32Z</time>
      </trkpt>
      <trkpt lat="45.42038" lon="5.50648">
        <ele>647.1</ele>
        <time>2021-02-11T13:36:40Z</time>
      </trkpt>
      <trkpt lat="45.42039" lon="5.50651">
        <ele>647.1</ele>
        <time>2021-02-11T13:36:42Z</time>
      </trkpt>
      <trkpt lat="45.42044" lon="5.50659">
        <ele>645.66</ele>
        <time>2021-02-11T13:36:49Z</time>
      </trkpt>
      <trkpt lat="45.42053" lon="5.50681">
        <ele>643.74</ele>
        <time>2021-02-11T13:37:03Z</time>
      </trkpt>
      <trkpt lat="45.42061" lon="5.50706">
        <ele>642.78</ele>
        <time>2021-02-11T13:37:18Z</time>
      </trkpt>
      <trkpt lat="45.42062" lon="5.50712">
        <ele>641.82</ele>
        <time>2021-02-11T13:37:22Z</time>
      </trkpt>
      <trkpt lat="45.42069" lon="5.5073">
        <ele>641.34</ele>
        <time>2021-02-11T13:37:34Z</time>
      </trkpt>
      <trkpt lat="45.42071" lon="5.50733">
        <ele>640.38</ele>
        <time>2021-02-11T13:37:36Z</time>
      </trkpt>
      <trkpt lat="45.42078" lon="5.5076">
        <ele>638.93</ele>
        <time>2021-02-11T13:37:52Z</time>
      </trkpt>
      <trkpt lat="45.42079" lon="5.50761">
        <ele>633.65</ele>
        <time>2021-02-11T13:37:55Z</time>
      </trkpt>
      <trkpt lat="45.42079" lon="5.50761">
        <ele>637.01</ele>
        <time>2021-02-11T13:37:56Z</time>
      </trkpt>
      <trkpt lat="45.42079" lon="5.50761">
        <ele>642.78</ele>
        <time>2021-02-11T13:37:57Z</time>
      </trkpt>
      <trkpt lat="45.42079" lon="5.50761">
        <ele>638.45</ele>
        <time>2021-02-11T13:37:58Z</time>
      </trkpt>
      <trkpt lat="45.42079" lon="5.50761">
        <ele>638.45</ele>
        <time>2021-02-11T13:38:13Z</time>
      </trkpt>
      <trkpt lat="45.4208" lon="5.50762">
        <ele>632.2</ele>
        <time>2021-02-11T13:38:14Z</time>
      </trkpt>
      <trkpt lat="45.4208" lon="5.50762">
        <ele>642.78</ele>
        <time>2021-02-11T13:38:15Z</time>
      </trkpt>
      <trkpt lat="45.4208" lon="5.50762">
        <ele>618.26</ele>
        <time>2021-02-11T13:38:16Z</time>
      </trkpt>
      <trkpt lat="45.4208" lon="5.50762">
        <ele>657.2</ele>
        <time>2021-02-11T13:38:17Z</time>
      </trkpt>
      <trkpt lat="45.4208" lon="5.50762">
        <ele>640.38</ele>
        <time>2021-02-11T13:38:18Z</time>
      </trkpt>
      <trkpt lat="45.4208" lon="5.50762">
        <ele>625.96</ele>
        <time>2021-02-11T13:38:20Z</time>
      </trkpt>
      <trkpt lat="45.4208" lon="5.50762">
        <ele>648.07</ele>
        <time>2021-02-11T13:38:21Z</time>
      </trkpt>
      <trkpt lat="45.4208" lon="5.50762">
        <ele>640.38</ele>
        <time>2021-02-11T13:38:22Z</time>
      </trkpt>
      <trkpt lat="45.4208" lon="5.50762">
        <ele>644.7</ele>
        <time>2021-02-11T13:38:25Z</time>
      </trkpt>
      <trkpt lat="45.4208" lon="5.50762">
        <ele>639.41</ele>
        <time>2021-02-11T13:38:26Z</time>
      </trkpt>
      <trkpt lat="45.4208" lon="5.50762">
        <ele>638.93</ele>
        <time>2021-02-11T13:38:28Z</time>
      </trkpt>
      <trkpt lat="45.42077" lon="5.50759">
        <ele>638.93</ele>
        <time>2021-02-11T13:38:39Z</time>
      </trkpt>
      <trkpt lat="45.42072" lon="5.50739">
        <ele>639.89</ele>
        <time>2021-02-11T13:38:54Z</time>
      </trkpt>
      <trkpt lat="45.42072" lon="5.50734">
        <ele>633.65</ele>
        <time>2021-02-11T13:39:03Z</time>
      </trkpt>
      <trkpt lat="45.42072" lon="5.50734">
        <ele>645.66</ele>
        <time>2021-02-11T13:39:04Z</time>
      </trkpt>
      <trkpt lat="45.42072" lon="5.50734">
        <ele>640.86</ele>
        <time>2021-02-11T13:39:05Z</time>
      </trkpt>
      <trkpt lat="45.42072" lon="5.50734">
        <ele>626.92</ele>
        <time>2021-02-11T13:39:07Z</time>
      </trkpt>
      <trkpt lat="45.42072" lon="5.50733">
        <ele>650.47</ele>
        <time>2021-02-11T13:39:08Z</time>
      </trkpt>
      <trkpt lat="45.42072" lon="5.50733">
        <ele>623.07</ele>
        <time>2021-02-11T13:39:09Z</time>
      </trkpt>
      <trkpt lat="45.42072" lon="5.50733">
        <ele>658.16</ele>
        <time>2021-02-11T13:39:10Z</time>
      </trkpt>
      <trkpt lat="45.42072" lon="5.50732">
        <ele>642.3</ele>
        <time>2021-02-11T13:39:11Z</time>
      </trkpt>
      <trkpt lat="45.42071" lon="5.50732">
        <ele>640.38</ele>
        <time>2021-02-11T13:39:13Z</time>
      </trkpt>
      <trkpt lat="45.42074" lon="5.50749">
        <ele>639.41</ele>
        <time>2021-02-11T13:39:26Z</time>
      </trkpt>
      <trkpt lat="45.42074" lon="5.5075">
        <ele>639.41</ele>
        <time>2021-02-11T13:39:27Z</time>
      </trkpt>
      <trkpt lat="45.42075" lon="5.50755">
        <ele>638.93</ele>
        <time>2021-02-11T13:39:30Z</time>
      </trkpt>
      <trkpt lat="45.42078" lon="5.50764">
        <ele>632.68</ele>
        <time>2021-02-11T13:39:36Z</time>
      </trkpt>
      <trkpt lat="45.42079" lon="5.50766">
        <ele>645.18</ele>
        <time>2021-02-11T13:39:37Z</time>
      </trkpt>
      <trkpt lat="45.42079" lon="5.50768">
        <ele>638.93</ele>
        <time>2021-02-11T13:39:38Z</time>
      </trkpt>
      <trkpt lat="45.4208" lon="5.50771">
        <ele>637.97</ele>
        <time>2021-02-11T13:39:40Z</time>
      </trkpt>
      <trkpt lat="45.42086" lon="5.50796">
        <ele>636.53</ele>
        <time>2021-02-11T13:39:54Z</time>
      </trkpt>
      <trkpt lat="45.42088" lon="5.50803">
        <ele>636.05</ele>
        <time>2021-02-11T13:39:58Z</time>
      </trkpt>
      <trkpt lat="45.42092" lon="5.50805">
        <ele>636.05</ele>
        <time>2021-02-11T13:40:01Z</time>
      </trkpt>
      <trkpt lat="45.42098" lon="5.50811">
        <ele>622.59</ele>
        <time>2021-02-11T13:40:07Z</time>
      </trkpt>
      <trkpt lat="45.42098" lon="5.50812">
        <ele>644.7</ele>
        <time>2021-02-11T13:40:08Z</time>
      </trkpt>
      <trkpt lat="45.42099" lon="5.50813">
        <ele>632.2</ele>
        <time>2021-02-11T13:40:09Z</time>
      </trkpt>
      <trkpt lat="45.42099" lon="5.50813">
        <ele>639.41</ele>
        <time>2021-02-11T13:40:10Z</time>
      </trkpt>
      <trkpt lat="45.421" lon="5.50816">
        <ele>635.09</ele>
        <time>2021-02-11T13:40:12Z</time>
      </trkpt>
      <trkpt lat="45.42103" lon="5.50819">
        <ele>634.13</ele>
        <time>2021-02-11T13:40:15Z</time>
      </trkpt>
      <trkpt lat="45.42104" lon="5.5082">
        <ele>633.65</ele>
        <time>2021-02-11T13:40:16Z</time>
      </trkpt>
      <trkpt lat="45.42119" lon="5.50836">
        <ele>631.24</ele>
        <time>2021-02-11T13:40:32Z</time>
      </trkpt>
      <trkpt lat="45.4214" lon="5.50838">
        <ele>628.84</ele>
        <time>2021-02-11T13:40:49Z</time>
      </trkpt>
      <trkpt lat="45.42156" lon="5.50824">
        <ele>626.44</ele>
        <time>2021-02-11T13:41:04Z</time>
      </trkpt>
      <trkpt lat="45.42166" lon="5.50815">
        <ele>620.19</ele>
        <time>2021-02-11T13:41:12Z</time>
      </trkpt>
      <trkpt lat="45.42167" lon="5.50814">
        <ele>628.84</ele>
        <time>2021-02-11T13:41:13Z</time>
      </trkpt>
      <trkpt lat="45.42168" lon="5.50813">
        <ele>625.47</ele>
        <time>2021-02-11T13:41:14Z</time>
      </trkpt>
      <trkpt lat="45.42181" lon="5.50796">
        <ele>623.55</ele>
        <time>2021-02-11T13:41:28Z</time>
      </trkpt>
      <trkpt lat="45.42193" lon="5.50777">
        <ele>621.63</ele>
        <time>2021-02-11T13:41:43Z</time>
      </trkpt>
      <trkpt lat="45.42195" lon="5.50773">
        <ele>621.15</ele>
        <time>2021-02-11T13:41:47Z</time>
      </trkpt>
      <trkpt lat="45.42196" lon="5.50771">
        <ele>627.88</ele>
        <time>2021-02-11T13:41:49Z</time>
      </trkpt>
      <trkpt lat="45.42197" lon="5.50769">
        <ele>621.63</ele>
        <time>2021-02-11T13:41:50Z</time>
      </trkpt>
      <trkpt lat="45.42198" lon="5.50768">
        <ele>620.67</ele>
        <time>2021-02-11T13:41:52Z</time>
      </trkpt>
      <trkpt lat="45.422" lon="5.50764">
        <ele>620.19</ele>
        <time>2021-02-11T13:41:58Z</time>
      </trkpt>
      <trkpt lat="45.42209" lon="5.50748">
        <ele>619.71</ele>
        <time>2021-02-11T13:42:11Z</time>
      </trkpt>
      <trkpt lat="45.42209" lon="5.50748">
        <ele>608.65</ele>
        <time>2021-02-11T13:42:12Z</time>
      </trkpt>
      <trkpt lat="45.4221" lon="5.50747">
        <ele>629.8</ele>
        <time>2021-02-11T13:42:13Z</time>
      </trkpt>
      <trkpt lat="45.4221" lon="5.50746">
        <ele>621.63</ele>
        <time>2021-02-11T13:42:14Z</time>
      </trkpt>
      <trkpt lat="45.42211" lon="5.50743">
        <ele>619.71</ele>
        <time>2021-02-11T13:42:16Z</time>
      </trkpt>
      <trkpt lat="45.42212" lon="5.50741">
        <ele>615.38</ele>
        <time>2021-02-11T13:42:22Z</time>
      </trkpt>
      <trkpt lat="45.42212" lon="5.50741">
        <ele>622.11</ele>
        <time>2021-02-11T13:42:23Z</time>
      </trkpt>
      <trkpt lat="45.42212" lon="5.50741">
        <ele>618.26</ele>
        <time>2021-02-11T13:42:28Z</time>
      </trkpt>
      <trkpt lat="45.42212" lon="5.50741">
        <ele>614.9</ele>
        <time>2021-02-11T13:42:29Z</time>
      </trkpt>
      <trkpt lat="45.42212" lon="5.50741">
        <ele>622.59</ele>
        <time>2021-02-11T13:42:30Z</time>
      </trkpt>
      <trkpt lat="45.42212" lon="5.50741">
        <ele>607.69</ele>
        <time>2021-02-11T13:42:31Z</time>
      </trkpt>
      <trkpt lat="45.42212" lon="5.50741">
        <ele>629.8</ele>
        <time>2021-02-11T13:42:32Z</time>
      </trkpt>
      <trkpt lat="45.42212" lon="5.50741">
        <ele>614.42</ele>
        <time>2021-02-11T13:42:33Z</time>
      </trkpt>
      <trkpt lat="45.42212" lon="5.50741">
        <ele>623.55</ele>
        <time>2021-02-11T13:42:34Z</time>
      </trkpt>
      <trkpt lat="45.42212" lon="5.50741">
        <ele>618.75</ele>
        <time>2021-02-11T13:42:35Z</time>
      </trkpt>
      <trkpt lat="45.42212" lon="5.50741">
        <ele>622.11</ele>
        <time>2021-02-11T13:42:36Z</time>
      </trkpt>
      <trkpt lat="45.42214" lon="5.50745">
        <ele>619.71</ele>
        <time>2021-02-11T13:42:52Z</time>
      </trkpt>
      <trkpt lat="45.42218" lon="5.50751">
        <ele>618.75</ele>
        <time>2021-02-11T13:43:00Z</time>
      </trkpt>
      <trkpt lat="45.42227" lon="5.50754">
        <ele>614.9</ele>
        <time>2021-02-11T13:43:08Z</time>
      </trkpt>
      <trkpt lat="45.42228" lon="5.50754">
        <ele>617.78</ele>
        <time>2021-02-11T13:43:09Z</time>
      </trkpt>
      <trkpt lat="45.42247" lon="5.50765">
        <ele>615.38</ele>
        <time>2021-02-11T13:43:25Z</time>
      </trkpt>
      <trkpt lat="45.42269" lon="5.5078">
        <ele>613.94</ele>
        <time>2021-02-11T13:43:45Z</time>
      </trkpt>
      <trkpt lat="45.42288" lon="5.50795">
        <ele>611.06</ele>
        <time>2021-02-11T13:44:02Z</time>
      </trkpt>
      <trkpt lat="45.42293" lon="5.508">
        <ele>610.09</ele>
        <time>2021-02-11T13:44:07Z</time>
      </trkpt>
      <trkpt lat="45.42307" lon="5.50813">
        <ele>609.13</ele>
        <time>2021-02-11T13:44:20Z</time>
      </trkpt>
      <trkpt lat="45.42315" lon="5.50824">
        <ele>604.81</ele>
        <time>2021-02-11T13:44:32Z</time>
      </trkpt>
      <trkpt lat="45.42315" lon="5.50824">
        <ele>609.61</ele>
        <time>2021-02-11T13:44:33Z</time>
      </trkpt>
      <trkpt lat="45.42315" lon="5.50824">
        <ele>605.77</ele>
        <time>2021-02-11T13:44:36Z</time>
      </trkpt>
      <trkpt lat="45.42315" lon="5.50824">
        <ele>609.61</ele>
        <time>2021-02-11T13:44:37Z</time>
      </trkpt>
      <trkpt lat="45.42315" lon="5.50824">
        <ele>591.35</ele>
        <time>2021-02-11T13:44:38Z</time>
      </trkpt>
      <trkpt lat="45.42315" lon="5.50824">
        <ele>619.23</ele>
        <time>2021-02-11T13:44:39Z</time>
      </trkpt>
      <trkpt lat="45.42315" lon="5.50824">
        <ele>602.4</ele>
        <time>2021-02-11T13:44:40Z</time>
      </trkpt>
      <trkpt lat="45.42315" lon="5.50824">
        <ele>612.02</ele>
        <time>2021-02-11T13:44:41Z</time>
      </trkpt>
      <trkpt lat="45.42315" lon="5.50824">
        <ele>608.17</ele>
        <time>2021-02-11T13:44:42Z</time>
      </trkpt>
      <trkpt lat="45.42315" lon="5.50824">
        <ele>601.92</ele>
        <time>2021-02-11T13:44:45Z</time>
      </trkpt>
      <trkpt lat="45.42315" lon="5.50825">
        <ele>612.02</ele>
        <time>2021-02-11T13:44:46Z</time>
      </trkpt>
      <trkpt lat="45.42315" lon="5.50825">
        <ele>608.17</ele>
        <time>2021-02-11T13:44:47Z</time>
      </trkpt>
      <trkpt lat="45.42317" lon="5.50826">
        <ele>600.96</ele>
        <time>2021-02-11T13:44:54Z</time>
      </trkpt>
      <trkpt lat="45.42317" lon="5.50826">
        <ele>610.09</ele>
        <time>2021-02-11T13:44:55Z</time>
      </trkpt>
      <trkpt lat="45.42317" lon="5.50826">
        <ele>610.09</ele>
        <time>2021-02-11T13:44:56Z</time>
      </trkpt>
      <trkpt lat="45.42317" lon="5.50826">
        <ele>602.88</ele>
        <time>2021-02-11T13:44:59Z</time>
      </trkpt>
      <trkpt lat="45.42317" lon="5.50826">
        <ele>610.09</ele>
        <time>2021-02-11T13:45:00Z</time>
      </trkpt>
      <trkpt lat="45.42317" lon="5.50827">
        <ele>607.21</ele>
        <time>2021-02-11T13:45:05Z</time>
      </trkpt>
      <trkpt lat="45.42321" lon="5.50835">
        <ele>601.92</ele>
        <time>2021-02-11T13:45:12Z</time>
      </trkpt>
      <trkpt lat="45.42321" lon="5.50835">
        <ele>609.13</ele>
        <time>2021-02-11T13:45:13Z</time>
      </trkpt>
      <trkpt lat="45.42321" lon="5.50834">
        <ele>604.81</ele>
        <time>2021-02-11T13:45:15Z</time>
      </trkpt>
      <trkpt lat="45.42321" lon="5.50834">
        <ele>609.61</ele>
        <time>2021-02-11T13:45:17Z</time>
      </trkpt>
      <trkpt lat="45.42321" lon="5.50834">
        <ele>606.25</ele>
        <time>2021-02-11T13:45:18Z</time>
      </trkpt>
      <trkpt lat="45.42327" lon="5.50844">
        <ele>603.85</ele>
        <time>2021-02-11T13:45:28Z</time>
      </trkpt>
      <trkpt lat="45.42338" lon="5.50857">
        <ele>600.48</ele>
        <time>2021-02-11T13:45:41Z</time>
      </trkpt>
      <trkpt lat="45.4234" lon="5.50862">
        <ele>600</ele>
        <time>2021-02-11T13:45:45Z</time>
      </trkpt>
      <trkpt lat="45.42341" lon="5.50865">
        <ele>599.04</ele>
        <time>2021-02-11T13:45:48Z</time>
      </trkpt>
      <trkpt lat="45.4235" lon="5.50878">
        <ele>596.64</ele>
        <time>2021-02-11T13:45:59Z</time>
      </trkpt>
      <trkpt lat="45.42362" lon="5.50891">
        <ele>593.27</ele>
        <time>2021-02-11T13:46:13Z</time>
      </trkpt>
      <trkpt lat="45.42372" lon="5.50909">
        <ele>590.87</ele>
        <time>2021-02-11T13:46:28Z</time>
      </trkpt>
      <trkpt lat="45.42381" lon="5.5093">
        <ele>587.98</ele>
        <time>2021-02-11T13:46:42Z</time>
      </trkpt>
      <trkpt lat="45.42389" lon="5.50944">
        <ele>584.62</ele>
        <time>2021-02-11T13:46:55Z</time>
      </trkpt>
      <trkpt lat="45.42399" lon="5.50958">
        <ele>582.22</ele>
        <time>2021-02-11T13:47:09Z</time>
      </trkpt>
      <trkpt lat="45.42402" lon="5.50962">
        <ele>580.29</ele>
        <time>2021-02-11T13:51:39Z</time>
      </trkpt>
      <trkpt lat="45.42402" lon="5.50962">
        <ele>584.14</ele>
        <time>2021-02-11T13:51:40Z</time>
      </trkpt>
      <trkpt lat="45.42405" lon="5.50961">
        <ele>581.25</ele>
        <time>2021-02-11T13:51:44Z</time>
      </trkpt>
      <trkpt lat="45.4241" lon="5.50958">
        <ele>575.01</ele>
        <time>2021-02-11T13:51:49Z</time>
      </trkpt>
      <trkpt lat="45.42411" lon="5.50957">
        <ele>586.54</ele>
        <time>2021-02-11T13:51:50Z</time>
      </trkpt>
      <trkpt lat="45.42411" lon="5.50957">
        <ele>581.25</ele>
        <time>2021-02-11T13:51:51Z</time>
      </trkpt>
      <trkpt lat="45.42411" lon="5.50957">
        <ele>579.81</ele>
        <time>2021-02-11T13:51:53Z</time>
      </trkpt>
      <trkpt lat="45.42413" lon="5.50955">
        <ele>586.54</ele>
        <time>2021-02-11T13:51:58Z</time>
      </trkpt>
      <trkpt lat="45.42413" lon="5.50955">
        <ele>570.2</ele>
        <time>2021-02-11T13:51:59Z</time>
      </trkpt>
      <trkpt lat="45.42413" lon="5.50955">
        <ele>587.5</ele>
        <time>2021-02-11T13:52:00Z</time>
      </trkpt>
      <trkpt lat="45.42414" lon="5.50954">
        <ele>578.85</ele>
        <time>2021-02-11T13:52:01Z</time>
      </trkpt>
      <trkpt lat="45.42414" lon="5.50954">
        <ele>573.56</ele>
        <time>2021-02-11T13:52:04Z</time>
      </trkpt>
      <trkpt lat="45.42414" lon="5.50954">
        <ele>584.62</ele>
        <time>2021-02-11T13:52:05Z</time>
      </trkpt>
      <trkpt lat="45.42414" lon="5.50954">
        <ele>578.37</ele>
        <time>2021-02-11T13:52:06Z</time>
      </trkpt>
      <trkpt lat="45.42414" lon="5.50954">
        <ele>572.6</ele>
        <time>2021-02-11T13:52:08Z</time>
      </trkpt>
      <trkpt lat="45.42414" lon="5.50954">
        <ele>583.66</ele>
        <time>2021-02-11T13:52:09Z</time>
      </trkpt>
      <trkpt lat="45.42414" lon="5.50954">
        <ele>579.33</ele>
        <time>2021-02-11T13:52:10Z</time>
      </trkpt>
      <trkpt lat="45.42414" lon="5.50954">
        <ele>574.04</ele>
        <time>2021-02-11T13:52:11Z</time>
      </trkpt>
      <trkpt lat="45.42414" lon="5.50954">
        <ele>582.22</ele>
        <time>2021-02-11T13:52:12Z</time>
      </trkpt>
      <trkpt lat="45.42414" lon="5.50954">
        <ele>579.33</ele>
        <time>2021-02-11T13:52:13Z</time>
      </trkpt>
      <trkpt lat="45.42414" lon="5.50954">
        <ele>575.49</ele>
        <time>2021-02-11T13:52:21Z</time>
      </trkpt>
      <trkpt lat="45.42414" lon="5.50954">
        <ele>586.54</ele>
        <time>2021-02-11T13:52:23Z</time>
      </trkpt>
      <trkpt lat="45.42415" lon="5.50954">
        <ele>576.45</ele>
        <time>2021-02-11T13:52:24Z</time>
      </trkpt>
      <trkpt lat="45.42415" lon="5.50954">
        <ele>581.25</ele>
        <time>2021-02-11T13:52:25Z</time>
      </trkpt>
      <trkpt lat="45.42415" lon="5.50953">
        <ele>566.35</ele>
        <time>2021-02-11T13:52:31Z</time>
      </trkpt>
      <trkpt lat="45.42415" lon="5.50953">
        <ele>587.98</ele>
        <time>2021-02-11T13:52:32Z</time>
      </trkpt>
      <trkpt lat="45.42415" lon="5.50953">
        <ele>578.85</ele>
        <time>2021-02-11T13:52:33Z</time>
      </trkpt>
      <trkpt lat="45.42416" lon="5.50953">
        <ele>578.37</ele>
        <time>2021-02-11T13:52:35Z</time>
      </trkpt>
      <trkpt lat="45.42427" lon="5.50942">
        <ele>576.45</ele>
        <time>2021-02-11T13:52:46Z</time>
      </trkpt>
      <trkpt lat="45.42447" lon="5.50925">
        <ele>573.08</ele>
        <time>2021-02-11T13:53:01Z</time>
      </trkpt>
      <trkpt lat="45.42455" lon="5.50915">
        <ele>564.91</ele>
        <time>2021-02-11T13:53:11Z</time>
      </trkpt>
      <trkpt lat="45.42456" lon="5.50914">
        <ele>575.01</ele>
        <time>2021-02-11T13:53:12Z</time>
      </trkpt>
      <trkpt lat="45.42456" lon="5.50914">
        <ele>571.16</ele>
        <time>2021-02-11T13:53:13Z</time>
      </trkpt>
      <trkpt lat="45.42459" lon="5.50907">
        <ele>568.28</ele>
        <time>2021-02-11T13:53:27Z</time>
      </trkpt>
      <trkpt lat="45.42471" lon="5.50896">
        <ele>565.87</ele>
        <time>2021-02-11T13:53:39Z</time>
      </trkpt>
      <trkpt lat="45.42477" lon="5.5089">
        <ele>562.51</ele>
        <time>2021-02-11T13:53:44Z</time>
      </trkpt>
      <trkpt lat="45.42477" lon="5.5089">
        <ele>566.35</ele>
        <time>2021-02-11T13:53:45Z</time>
      </trkpt>
      <trkpt lat="45.42482" lon="5.50888">
        <ele>559.62</ele>
        <time>2021-02-11T13:53:51Z</time>
      </trkpt>
      <trkpt lat="45.42484" lon="5.50886">
        <ele>566.83</ele>
        <time>2021-02-11T13:53:52Z</time>
      </trkpt>
      <trkpt lat="45.42484" lon="5.50886">
        <ele>553.38</ele>
        <time>2021-02-11T13:53:53Z</time>
      </trkpt>
      <trkpt lat="45.42484" lon="5.50886">
        <ele>572.6</ele>
        <time>2021-02-11T13:53:54Z</time>
      </trkpt>
      <trkpt lat="45.42484" lon="5.50886">
        <ele>561.55</ele>
        <time>2021-02-11T13:53:55Z</time>
      </trkpt>
      <trkpt lat="45.42485" lon="5.50886">
        <ele>566.83</ele>
        <time>2021-02-11T13:53:56Z</time>
      </trkpt>
      <trkpt lat="45.42485" lon="5.50885">
        <ele>563.47</ele>
        <time>2021-02-11T13:53:59Z</time>
      </trkpt>
      <trkpt lat="45.42498" lon="5.50874">
        <ele>561.55</ele>
        <time>2021-02-11T13:54:11Z</time>
      </trkpt>
      <trkpt lat="45.42511" lon="5.50864">
        <ele>560.59</ele>
        <time>2021-02-11T13:54:16Z</time>
      </trkpt>
      <trkpt lat="45.42529" lon="5.50846">
        <ele>548.09</ele>
        <time>2021-02-11T13:54:29Z</time>
      </trkpt>
      <trkpt lat="45.42529" lon="5.50846">
        <ele>565.39</ele>
        <time>2021-02-11T13:54:30Z</time>
      </trkpt>
      <trkpt lat="45.4253" lon="5.50845">
        <ele>558.18</ele>
        <time>2021-02-11T13:54:31Z</time>
      </trkpt>
      <trkpt lat="45.42531" lon="5.50843">
        <ele>551.93</ele>
        <time>2021-02-11T13:54:42Z</time>
      </trkpt>
      <trkpt lat="45.42531" lon="5.50843">
        <ele>561.55</ele>
        <time>2021-02-11T13:54:43Z</time>
      </trkpt>
      <trkpt lat="45.42531" lon="5.50843">
        <ele>541.84</ele>
        <time>2021-02-11T13:54:44Z</time>
      </trkpt>
      <trkpt lat="45.42531" lon="5.50843">
        <ele>571.64</ele>
        <time>2021-02-11T13:54:45Z</time>
      </trkpt>
      <trkpt lat="45.42531" lon="5.50843">
        <ele>559.14</ele>
        <time>2021-02-11T13:54:46Z</time>
      </trkpt>
      <trkpt lat="45.42531" lon="5.50843">
        <ele>558.18</ele>
        <time>2021-02-11T13:54:48Z</time>
      </trkpt>
      <trkpt lat="45.42531" lon="5.50843">
        <ele>541.84</ele>
        <time>2021-02-11T13:54:53Z</time>
      </trkpt>
      <trkpt lat="45.42531" lon="5.50843">
        <ele>571.64</ele>
        <time>2021-02-11T13:54:54Z</time>
      </trkpt>
      <trkpt lat="45.42531" lon="5.50843">
        <ele>558.66</ele>
        <time>2021-02-11T13:54:55Z</time>
      </trkpt>
      <trkpt lat="45.42531" lon="5.50843">
        <ele>557.7</ele>
        <time>2021-02-11T13:54:57Z</time>
      </trkpt>
      <trkpt lat="45.42531" lon="5.50843">
        <ele>554.34</ele>
        <time>2021-02-11T13:54:58Z</time>
      </trkpt>
      <trkpt lat="45.42531" lon="5.50843">
        <ele>560.11</ele>
        <time>2021-02-11T13:54:59Z</time>
      </trkpt>
      <trkpt lat="45.42531" lon="5.50843">
        <ele>555.3</ele>
        <time>2021-02-11T13:55:01Z</time>
      </trkpt>
      <trkpt lat="45.42531" lon="5.50843">
        <ele>559.62</ele>
        <time>2021-02-11T13:55:02Z</time>
      </trkpt>
      <trkpt lat="45.42531" lon="5.50843">
        <ele>555.78</ele>
        <time>2021-02-11T13:55:03Z</time>
      </trkpt>
      <trkpt lat="45.42531" lon="5.50843">
        <ele>561.55</ele>
        <time>2021-02-11T13:55:05Z</time>
      </trkpt>
      <trkpt lat="45.42531" lon="5.50843">
        <ele>558.18</ele>
        <time>2021-02-11T13:55:06Z</time>
      </trkpt>
      <trkpt lat="45.42531" lon="5.50843">
        <ele>556.26</ele>
        <time>2021-02-11T13:55:13Z</time>
      </trkpt>
      <trkpt lat="45.42531" lon="5.50843">
        <ele>560.11</ele>
        <time>2021-02-11T13:55:15Z</time>
      </trkpt>
      <trkpt lat="45.42532" lon="5.50843">
        <ele>557.7</ele>
        <time>2021-02-11T13:55:17Z</time>
      </trkpt>
      <trkpt lat="45.42532" lon="5.50843">
        <ele>550.01</ele>
        <time>2021-02-11T13:55:19Z</time>
      </trkpt>
      <trkpt lat="45.42532" lon="5.50843">
        <ele>562.99</ele>
        <time>2021-02-11T13:55:20Z</time>
      </trkpt>
      <trkpt lat="45.42532" lon="5.50843">
        <ele>558.18</ele>
        <time>2021-02-11T13:55:21Z</time>
      </trkpt>
      <trkpt lat="45.42533" lon="5.50842">
        <ele>553.38</ele>
        <time>2021-02-11T13:55:32Z</time>
      </trkpt>
      <trkpt lat="45.42533" lon="5.50842">
        <ele>560.11</ele>
        <time>2021-02-11T13:55:33Z</time>
      </trkpt>
      <trkpt lat="45.42534" lon="5.5084">
        <ele>557.22</ele>
        <time>2021-02-11T13:55:46Z</time>
      </trkpt>
      <trkpt lat="45.42541" lon="5.50824">
        <ele>555.3</ele>
        <time>2021-02-11T13:56:02Z</time>
      </trkpt>
      <trkpt lat="45.42548" lon="5.50829">
        <ele>542.8</ele>
        <time>2021-02-11T13:56:10Z</time>
      </trkpt>
      <trkpt lat="45.42548" lon="5.50829">
        <ele>567.8</ele>
        <time>2021-02-11T13:56:11Z</time>
      </trkpt>
      <trkpt lat="45.42548" lon="5.50829">
        <ele>545.2</ele>
        <time>2021-02-11T13:56:12Z</time>
      </trkpt>
      <trkpt lat="45.42548" lon="5.50829">
        <ele>562.99</ele>
        <time>2021-02-11T13:56:13Z</time>
      </trkpt>
      <trkpt lat="45.42548" lon="5.50829">
        <ele>555.78</ele>
        <time>2021-02-11T13:56:14Z</time>
      </trkpt>
      <trkpt lat="45.42548" lon="5.5083">
        <ele>546.17</ele>
        <time>2021-02-11T13:56:18Z</time>
      </trkpt>
      <trkpt lat="45.42548" lon="5.5083">
        <ele>562.51</ele>
        <time>2021-02-11T13:56:19Z</time>
      </trkpt>
      <trkpt lat="45.42548" lon="5.5083">
        <ele>555.78</ele>
        <time>2021-02-11T13:56:20Z</time>
      </trkpt>
      <trkpt lat="45.42548" lon="5.5083">
        <ele>554.82</ele>
        <time>2021-02-11T13:56:22Z</time>
      </trkpt>
      <trkpt lat="45.42548" lon="5.5083">
        <ele>558.66</ele>
        <time>2021-02-11T13:56:26Z</time>
      </trkpt>
      <trkpt lat="45.42548" lon="5.5083">
        <ele>558.66</ele>
        <time>2021-02-11T13:56:27Z</time>
      </trkpt>
      <trkpt lat="45.42548" lon="5.5083">
        <ele>552.9</ele>
        <time>2021-02-11T13:56:28Z</time>
      </trkpt>
      <trkpt lat="45.42548" lon="5.5083">
        <ele>556.74</ele>
        <time>2021-02-11T13:56:29Z</time>
      </trkpt>
      <trkpt lat="45.42548" lon="5.5083">
        <ele>555.3</ele>
        <time>2021-02-11T13:56:30Z</time>
      </trkpt>
      <trkpt lat="45.42547" lon="5.5083">
        <ele>545.69</ele>
        <time>2021-02-11T13:56:31Z</time>
      </trkpt>
      <trkpt lat="45.42547" lon="5.5083">
        <ele>551.93</ele>
        <time>2021-02-11T13:56:32Z</time>
      </trkpt>
      <trkpt lat="45.42547" lon="5.5083">
        <ele>557.7</ele>
        <time>2021-02-11T13:56:33Z</time>
      </trkpt>
      <trkpt lat="45.42547" lon="5.5083">
        <ele>555.3</ele>
        <time>2021-02-11T13:56:34Z</time>
      </trkpt>
      <trkpt lat="45.42548" lon="5.50829">
        <ele>555.3</ele>
        <time>2021-02-11T13:56:54Z</time>
      </trkpt>
      <trkpt lat="45.42548" lon="5.50829">
        <ele>551.93</ele>
        <time>2021-02-11T13:57:00Z</time>
      </trkpt>
      <trkpt lat="45.42548" lon="5.50829">
        <ele>557.7</ele>
        <time>2021-02-11T13:57:01Z</time>
      </trkpt>
      <trkpt lat="45.42548" lon="5.50829">
        <ele>543.76</ele>
        <time>2021-02-11T13:57:02Z</time>
      </trkpt>
      <trkpt lat="45.42548" lon="5.50829">
        <ele>564.43</ele>
        <time>2021-02-11T13:57:03Z</time>
      </trkpt>
      <trkpt lat="45.42548" lon="5.50829">
        <ele>555.78</ele>
        <time>2021-02-11T13:57:04Z</time>
      </trkpt>
      <trkpt lat="45.42547" lon="5.50831">
        <ele>554.82</ele>
        <time>2021-02-11T13:57:08Z</time>
      </trkpt>
      <trkpt lat="45.42544" lon="5.50838">
        <ele>554.82</ele>
        <time>2021-02-11T13:57:13Z</time>
      </trkpt>
      <trkpt lat="45.42534" lon="5.50854">
        <ele>553.38</ele>
        <time>2021-02-11T13:57:26Z</time>
      </trkpt>
      <trkpt lat="45.42523" lon="5.50874">
        <ele>551.45</ele>
        <time>2021-02-11T13:57:43Z</time>
      </trkpt>
      <trkpt lat="45.42517" lon="5.50882">
        <ele>550.97</ele>
        <time>2021-02-11T13:57:50Z</time>
      </trkpt>
      <trkpt lat="45.42513" lon="5.50889">
        <ele>540.88</ele>
        <time>2021-02-11T13:57:58Z</time>
      </trkpt>
      <trkpt lat="45.42511" lon="5.50893">
        <ele>556.74</ele>
        <time>2021-02-11T13:57:59Z</time>
      </trkpt>
      <trkpt lat="45.42492" lon="5.50936">
        <ele>547.13</ele>
        <time>2021-02-11T13:58:56Z</time>
      </trkpt>
      <trkpt lat="45.42491" lon="5.50957">
        <ele>554.82</ele>
        <time>2021-02-11T13:59:06Z</time>
      </trkpt>
      <trkpt lat="45.42491" lon="5.50958">
        <ele>546.65</ele>
        <time>2021-02-11T13:59:07Z</time>
      </trkpt>
      <trkpt lat="45.4249" lon="5.50959">
        <ele>537.03</ele>
        <time>2021-02-11T13:59:09Z</time>
      </trkpt>
      <trkpt lat="45.42489" lon="5.5096">
        <ele>551.93</ele>
        <time>2021-02-11T13:59:10Z</time>
      </trkpt>
      <trkpt lat="45.42488" lon="5.50962">
        <ele>546.17</ele>
        <time>2021-02-11T13:59:11Z</time>
      </trkpt>
      <trkpt lat="45.42481" lon="5.50985">
        <ele>543.28</ele>
        <time>2021-02-11T13:59:24Z</time>
      </trkpt>
      <trkpt lat="45.42473" lon="5.50996">
        <ele>540.4</ele>
        <time>2021-02-11T13:59:37Z</time>
      </trkpt>
      <trkpt lat="45.42467" lon="5.51005">
        <ele>537.99</ele>
        <time>2021-02-11T13:59:49Z</time>
      </trkpt>
      <trkpt lat="45.42419" lon="5.5113">
        <ele>519.25</ele>
        <time>2021-02-11T14:01:10Z</time>
      </trkpt>
      <trkpt lat="45.42419" lon="5.5113">
        <ele>528.86</ele>
        <time>2021-02-11T14:01:11Z</time>
      </trkpt>
      <trkpt lat="45.42419" lon="5.5113">
        <ele>525.02</ele>
        <time>2021-02-11T14:01:12Z</time>
      </trkpt>
      <trkpt lat="45.4242" lon="5.51134">
        <ele>524.54</ele>
        <time>2021-02-11T14:01:16Z</time>
      </trkpt>
      <trkpt lat="45.42427" lon="5.5114">
        <ele>523.58</ele>
        <time>2021-02-11T14:01:22Z</time>
      </trkpt>
      <trkpt lat="45.42435" lon="5.51152">
        <ele>521.17</ele>
        <time>2021-02-11T14:01:32Z</time>
      </trkpt>
      <trkpt lat="45.42442" lon="5.51167">
        <ele>518.29</ele>
        <time>2021-02-11T14:01:43Z</time>
      </trkpt>
      <trkpt lat="45.42447" lon="5.51174">
        <ele>516.85</ele>
        <time>2021-02-11T14:01:52Z</time>
      </trkpt>
      <trkpt lat="45.42449" lon="5.51174">
        <ele>516.37</ele>
        <time>2021-02-11T14:01:54Z</time>
      </trkpt>
      <trkpt lat="45.42452" lon="5.51173">
        <ele>515.4</ele>
        <time>2021-02-11T14:01:57Z</time>
      </trkpt>
      <trkpt lat="45.42468" lon="5.51163">
        <ele>513.48</ele>
        <time>2021-02-11T14:02:12Z</time>
      </trkpt>
      <trkpt lat="45.42481" lon="5.51159">
        <ele>510.12</ele>
        <time>2021-02-11T14:02:22Z</time>
      </trkpt>
      <trkpt lat="45.42482" lon="5.51159">
        <ele>503.87</ele>
        <time>2021-02-11T14:02:23Z</time>
      </trkpt>
      <trkpt lat="45.42484" lon="5.51159">
        <ele>517.33</ele>
        <time>2021-02-11T14:02:24Z</time>
      </trkpt>
      <trkpt lat="45.42485" lon="5.5116">
        <ele>511.56</ele>
        <time>2021-02-11T14:02:25Z</time>
      </trkpt>
      <trkpt lat="45.42487" lon="5.51162">
        <ele>511.08</ele>
        <time>2021-02-11T14:02:27Z</time>
      </trkpt>
      <trkpt lat="45.42491" lon="5.51164">
        <ele>510.6</ele>
        <time>2021-02-11T14:02:33Z</time>
      </trkpt>
      <trkpt lat="45.42501" lon="5.51174">
        <ele>508.67</ele>
        <time>2021-02-11T14:02:43Z</time>
      </trkpt>
      <trkpt lat="45.42507" lon="5.51189">
        <ele>507.23</ele>
        <time>2021-02-11T14:02:52Z</time>
      </trkpt>
      <trkpt lat="45.42511" lon="5.51209">
        <ele>505.79</ele>
        <time>2021-02-11T14:03:02Z</time>
      </trkpt>
      <trkpt lat="45.42515" lon="5.51225">
        <ele>504.83</ele>
        <time>2021-02-11T14:03:11Z</time>
      </trkpt>
      <trkpt lat="45.4252" lon="5.51249">
        <ele>503.39</ele>
        <time>2021-02-11T14:03:26Z</time>
      </trkpt>
      <trkpt lat="45.4252" lon="5.51251">
        <ele>503.39</ele>
        <time>2021-02-11T14:03:27Z</time>
      </trkpt>
      <trkpt lat="45.42529" lon="5.5128">
        <ele>501.95</ele>
        <time>2021-02-11T14:03:44Z</time>
      </trkpt>
      <trkpt lat="45.42531" lon="5.51292">
        <ele>501.46</ele>
        <time>2021-02-11T14:03:51Z</time>
      </trkpt>
      <trkpt lat="45.42533" lon="5.51299">
        <ele>501.46</ele>
        <time>2021-02-11T14:03:55Z</time>
      </trkpt>
      <trkpt lat="45.42536" lon="5.51313">
        <ele>504.35</ele>
        <time>2021-02-11T14:04:04Z</time>
      </trkpt>
      <trkpt lat="45.42537" lon="5.51315">
        <ele>500.5</ele>
        <time>2021-02-11T14:04:05Z</time>
      </trkpt>
      <trkpt lat="45.42537" lon="5.51319">
        <ele>500.5</ele>
        <time>2021-02-11T14:04:07Z</time>
      </trkpt>
      <trkpt lat="45.42545" lon="5.51345">
        <ele>499.06</ele>
        <time>2021-02-11T14:04:21Z</time>
      </trkpt>
      <trkpt lat="45.42551" lon="5.51368">
        <ele>498.1</ele>
        <time>2021-02-11T14:04:33Z</time>
      </trkpt>
      <trkpt lat="45.42553" lon="5.51375">
        <ele>498.1</ele>
        <time>2021-02-11T14:04:37Z</time>
      </trkpt>
      <trkpt lat="45.42563" lon="5.51399">
        <ele>497.14</ele>
        <time>2021-02-11T14:04:52Z</time>
      </trkpt>
      <trkpt lat="45.42573" lon="5.51424">
        <ele>496.66</ele>
        <time>2021-02-11T14:05:08Z</time>
      </trkpt>
      <trkpt lat="45.42574" lon="5.51428">
        <ele>492.81</ele>
        <time>2021-02-11T14:05:11Z</time>
      </trkpt>
      <trkpt lat="45.42575" lon="5.5143">
        <ele>499.06</ele>
        <time>2021-02-11T14:05:12Z</time>
      </trkpt>
      <trkpt lat="45.42581" lon="5.51448">
        <ele>495.7</ele>
        <time>2021-02-11T14:05:23Z</time>
      </trkpt>
      <trkpt lat="45.42586" lon="5.51471">
        <ele>495.22</ele>
        <time>2021-02-11T14:05:36Z</time>
      </trkpt>
      <trkpt lat="45.42591" lon="5.51496">
        <ele>494.74</ele>
        <time>2021-02-11T14:05:50Z</time>
      </trkpt>
      <trkpt lat="45.42592" lon="5.51499">
        <ele>494.74</ele>
        <time>2021-02-11T14:05:52Z</time>
      </trkpt>
      <trkpt lat="45.42593" lon="5.51513">
        <ele>494.74</ele>
        <time>2021-02-11T14:06:01Z</time>
      </trkpt>
      <trkpt lat="45.42597" lon="5.51533">
        <ele>494.26</ele>
        <time>2021-02-11T14:06:12Z</time>
      </trkpt>
      <trkpt lat="45.42601" lon="5.51557">
        <ele>494.26</ele>
        <time>2021-02-11T14:06:26Z</time>
      </trkpt>
      <trkpt lat="45.42609" lon="5.51598">
        <ele>494.26</ele>
        <time>2021-02-11T14:06:54Z</time>
      </trkpt>
      <trkpt lat="45.42614" lon="5.51618">
        <ele>493.77</ele>
        <time>2021-02-11T14:07:06Z</time>
      </trkpt>
      <trkpt lat="45.42615" lon="5.51629">
        <ele>493.77</ele>
        <time>2021-02-11T14:07:10Z</time>
      </trkpt>
      <trkpt lat="45.4262" lon="5.51648">
        <ele>497.62</ele>
        <time>2021-02-11T14:07:21Z</time>
      </trkpt>
      <trkpt lat="45.42621" lon="5.51652">
        <ele>493.77</ele>
        <time>2021-02-11T14:07:23Z</time>
      </trkpt>
      <trkpt lat="45.42622" lon="5.51653">
        <ele>473.59</ele>
        <time>2021-02-11T14:07:24Z</time>
      </trkpt>
      <trkpt lat="45.42622" lon="5.51655">
        <ele>508.19</ele>
        <time>2021-02-11T14:07:25Z</time>
      </trkpt>
      <trkpt lat="45.42622" lon="5.51657">
        <ele>494.74</ele>
        <time>2021-02-11T14:07:26Z</time>
      </trkpt>
      <trkpt lat="45.42624" lon="5.5166">
        <ele>493.77</ele>
        <time>2021-02-11T14:07:28Z</time>
      </trkpt>
      <trkpt lat="45.42631" lon="5.51678">
        <ele>482.24</ele>
        <time>2021-02-11T14:07:38Z</time>
      </trkpt>
      <trkpt lat="45.42632" lon="5.51678">
        <ele>501.46</ele>
        <time>2021-02-11T14:07:39Z</time>
      </trkpt>
      <trkpt lat="45.42632" lon="5.51678">
        <ele>493.77</ele>
        <time>2021-02-11T14:07:40Z</time>
      </trkpt>
      <trkpt lat="45.42632" lon="5.51678">
        <ele>478.87</ele>
        <time>2021-02-11T14:07:41Z</time>
      </trkpt>
      <trkpt lat="45.42632" lon="5.51678">
        <ele>505.31</ele>
        <time>2021-02-11T14:07:42Z</time>
      </trkpt>
      <trkpt lat="45.42633" lon="5.51679">
        <ele>494.26</ele>
        <time>2021-02-11T14:07:43Z</time>
      </trkpt>
      <trkpt lat="45.42634" lon="5.5168">
        <ele>493.29</ele>
        <time>2021-02-11T14:07:45Z</time>
      </trkpt>
      <trkpt lat="45.42637" lon="5.51682">
        <ele>493.77</ele>
        <time>2021-02-11T14:09:02Z</time>
      </trkpt>
      <trkpt lat="45.42638" lon="5.51694">
        <ele>494.74</ele>
        <time>2021-02-11T14:09:09Z</time>
      </trkpt>
      <trkpt lat="45.42638" lon="5.51697">
        <ele>493.29</ele>
        <time>2021-02-11T14:09:11Z</time>
      </trkpt>
      <trkpt lat="45.42638" lon="5.51702">
        <ele>484.16</ele>
        <time>2021-02-11T14:09:14Z</time>
      </trkpt>
      <trkpt lat="45.42639" lon="5.51704">
        <ele>499.54</ele>
        <time>2021-02-11T14:09:15Z</time>
      </trkpt>
      <trkpt lat="45.42639" lon="5.51709">
        <ele>492.81</ele>
        <time>2021-02-11T14:09:18Z</time>
      </trkpt>
      <trkpt lat="45.42648" lon="5.51745">
        <ele>491.85</ele>
        <time>2021-02-11T14:09:38Z</time>
      </trkpt>
      <trkpt lat="45.42652" lon="5.51759">
        <ele>492.33</ele>
        <time>2021-02-11T14:09:47Z</time>
      </trkpt>
      <trkpt lat="45.42653" lon="5.51769">
        <ele>491.37</ele>
        <time>2021-02-11T14:09:53Z</time>
      </trkpt>
      <trkpt lat="45.42654" lon="5.51774">
        <ele>484.64</ele>
        <time>2021-02-11T14:09:56Z</time>
      </trkpt>
      <trkpt lat="45.42654" lon="5.51776">
        <ele>495.22</ele>
        <time>2021-02-11T14:09:57Z</time>
      </trkpt>
      <trkpt lat="45.42655" lon="5.51778">
        <ele>490.89</ele>
        <time>2021-02-11T14:09:58Z</time>
      </trkpt>
      <trkpt lat="45.42655" lon="5.51781">
        <ele>490.41</ele>
        <time>2021-02-11T14:10:00Z</time>
      </trkpt>
      <trkpt lat="45.42656" lon="5.51811">
        <ele>489.45</ele>
        <time>2021-02-11T14:10:17Z</time>
      </trkpt>
      <trkpt lat="45.42654" lon="5.5183">
        <ele>490.89</ele>
        <time>2021-02-11T14:10:28Z</time>
      </trkpt>
      <trkpt lat="45.42654" lon="5.51835">
        <ele>488.49</ele>
        <time>2021-02-11T14:10:31Z</time>
      </trkpt>
      <trkpt lat="45.42648" lon="5.51865">
        <ele>487.53</ele>
        <time>2021-02-11T14:10:48Z</time>
      </trkpt>
      <trkpt lat="45.42645" lon="5.51879">
        <ele>484.16</ele>
        <time>2021-02-11T14:10:56Z</time>
      </trkpt>
      <trkpt lat="45.42644" lon="5.5188">
        <ele>491.37</ele>
        <time>2021-02-11T14:10:57Z</time>
      </trkpt>
      <trkpt lat="45.42644" lon="5.51881">
        <ele>487.53</ele>
        <time>2021-02-11T14:10:58Z</time>
      </trkpt>
      <trkpt lat="45.42644" lon="5.51881">
        <ele>487.05</ele>
        <time>2021-02-11T14:10:59Z</time>
      </trkpt>
      <trkpt lat="45.42644" lon="5.51881">
        <ele>481.76</ele>
        <time>2021-02-11T14:11:02Z</time>
      </trkpt>
      <trkpt lat="45.42644" lon="5.51882">
        <ele>492.81</ele>
        <time>2021-02-11T14:11:03Z</time>
      </trkpt>
      <trkpt lat="45.42642" lon="5.51886">
        <ele>486.56</ele>
        <time>2021-02-11T14:11:06Z</time>
      </trkpt>
      <trkpt lat="45.42641" lon="5.51889">
        <ele>481.28</ele>
        <time>2021-02-11T14:11:08Z</time>
      </trkpt>
      <trkpt lat="45.42641" lon="5.5189">
        <ele>489.93</ele>
        <time>2021-02-11T14:11:09Z</time>
      </trkpt>
      <trkpt lat="45.4264" lon="5.51891">
        <ele>481.28</ele>
        <time>2021-02-11T14:11:10Z</time>
      </trkpt>
      <trkpt lat="45.4264" lon="5.51899">
        <ele>486.56</ele>
        <time>2021-02-11T14:11:14Z</time>
      </trkpt>
      <trkpt lat="45.42639" lon="5.51903">
        <ele>486.56</ele>
        <time>2021-02-11T14:11:16Z</time>
      </trkpt>
      <trkpt lat="45.42638" lon="5.51923">
        <ele>487.05</ele>
        <time>2021-02-11T14:11:27Z</time>
      </trkpt>
      <trkpt lat="45.4264" lon="5.51928">
        <ele>487.05</ele>
        <time>2021-02-11T14:11:30Z</time>
      </trkpt>
      <trkpt lat="45.42662" lon="5.51941">
        <ele>486.08</ele>
        <time>2021-02-11T14:11:47Z</time>
      </trkpt>
      <trkpt lat="45.42677" lon="5.51949">
        <ele>486.56</ele>
        <time>2021-02-11T14:11:59Z</time>
      </trkpt>
      <trkpt lat="45.42678" lon="5.5195">
        <ele>482.72</ele>
        <time>2021-02-11T14:12:00Z</time>
      </trkpt>
      <trkpt lat="45.42679" lon="5.5195">
        <ele>486.56</ele>
        <time>2021-02-11T14:12:01Z</time>
      </trkpt>
      <trkpt lat="45.42692" lon="5.51951">
        <ele>486.56</ele>
        <time>2021-02-11T14:12:12Z</time>
      </trkpt>
      <trkpt lat="45.42698" lon="5.51954">
        <ele>486.56</ele>
        <time>2021-02-11T14:12:16Z</time>
      </trkpt>
      <trkpt lat="45.42718" lon="5.51954">
        <ele>487.05</ele>
        <time>2021-02-11T14:12:30Z</time>
      </trkpt>
      <trkpt lat="45.42721" lon="5.51953">
        <ele>490.41</ele>
        <time>2021-02-11T14:12:33Z</time>
      </trkpt>
      <trkpt lat="45.42722" lon="5.51953">
        <ele>486.08</ele>
        <time>2021-02-11T14:12:34Z</time>
      </trkpt>
      <trkpt lat="45.42723" lon="5.51952">
        <ele>489.45</ele>
        <time>2021-02-11T14:12:35Z</time>
      </trkpt>
      <trkpt lat="45.42727" lon="5.51952">
        <ele>479.84</ele>
        <time>2021-02-11T14:12:38Z</time>
      </trkpt>
      <trkpt lat="45.42728" lon="5.51952">
        <ele>494.26</ele>
        <time>2021-02-11T14:12:39Z</time>
      </trkpt>
      <trkpt lat="45.4273" lon="5.51952">
        <ele>488.01</ele>
        <time>2021-02-11T14:12:40Z</time>
      </trkpt>
      <trkpt lat="45.42732" lon="5.51951">
        <ele>487.05</ele>
        <time>2021-02-11T14:12:42Z</time>
      </trkpt>
      <trkpt lat="45.42745" lon="5.51943">
        <ele>487.53</ele>
        <time>2021-02-11T14:12:55Z</time>
      </trkpt>
      <trkpt lat="45.42753" lon="5.51935">
        <ele>478.39</ele>
        <time>2021-02-11T14:13:03Z</time>
      </trkpt>
      <trkpt lat="45.42755" lon="5.51934">
        <ele>494.74</ele>
        <time>2021-02-11T14:13:04Z</time>
      </trkpt>
      <trkpt lat="45.42755" lon="5.51934">
        <ele>487.05</ele>
        <time>2021-02-11T14:13:05Z</time>
      </trkpt>
      <trkpt lat="45.42764" lon="5.51925">
        <ele>487.53</ele>
        <time>2021-02-11T14:13:17Z</time>
      </trkpt>
      <trkpt lat="45.42773" lon="5.51912">
        <ele>488.01</ele>
        <time>2021-02-11T14:13:29Z</time>
      </trkpt>
      <trkpt lat="45.42785" lon="5.51897">
        <ele>487.53</ele>
        <time>2021-02-11T14:13:41Z</time>
      </trkpt>
      <trkpt lat="45.42795" lon="5.51879">
        <ele>488.01</ele>
        <time>2021-02-11T14:13:53Z</time>
      </trkpt>
      <trkpt lat="45.42798" lon="5.51868">
        <ele>492.33</ele>
        <time>2021-02-11T14:14:00Z</time>
      </trkpt>
      <trkpt lat="45.42799" lon="5.51867">
        <ele>479.35</ele>
        <time>2021-02-11T14:14:01Z</time>
      </trkpt>
      <trkpt lat="45.428" lon="5.51866">
        <ele>495.22</ele>
        <time>2021-02-11T14:14:02Z</time>
      </trkpt>
      <trkpt lat="45.42801" lon="5.51865">
        <ele>488.49</ele>
        <time>2021-02-11T14:14:03Z</time>
      </trkpt>
      <trkpt lat="45.42804" lon="5.51855">
        <ele>488.01</ele>
        <time>2021-02-11T14:14:09Z</time>
      </trkpt>
      <trkpt lat="45.42812" lon="5.51834">
        <ele>487.53</ele>
        <time>2021-02-11T14:14:21Z</time>
      </trkpt>
      <trkpt lat="45.42816" lon="5.51824">
        <ele>488.01</ele>
        <time>2021-02-11T14:14:27Z</time>
      </trkpt>
      <trkpt lat="45.42816" lon="5.51821">
        <ele>487.53</ele>
        <time>2021-02-11T14:14:29Z</time>
      </trkpt>
      <trkpt lat="45.42817" lon="5.51818">
        <ele>487.53</ele>
        <time>2021-02-11T14:14:31Z</time>
      </trkpt>
      <trkpt lat="45.42825" lon="5.51785">
        <ele>487.53</ele>
        <time>2021-02-11T14:14:50Z</time>
      </trkpt>
      <trkpt lat="45.42826" lon="5.51784">
        <ele>487.53</ele>
        <time>2021-02-11T14:14:51Z</time>
      </trkpt>
      <trkpt lat="45.42833" lon="5.51757">
        <ele>487.53</ele>
        <time>2021-02-11T14:15:06Z</time>
      </trkpt>
      <trkpt lat="45.42842" lon="5.51736">
        <ele>488.01</ele>
        <time>2021-02-11T14:15:21Z</time>
      </trkpt>
      <trkpt lat="45.42849" lon="5.51714">
        <ele>488.01</ele>
        <time>2021-02-11T14:15:35Z</time>
      </trkpt>
      <trkpt lat="45.42862" lon="5.51697">
        <ele>488.01</ele>
        <time>2021-02-11T14:15:48Z</time>
      </trkpt>
      <trkpt lat="45.42874" lon="5.51679">
        <ele>488.01</ele>
        <time>2021-02-11T14:16:03Z</time>
      </trkpt>
      <trkpt lat="45.42886" lon="5.51663">
        <ele>486.56</ele>
        <time>2021-02-11T14:16:16Z</time>
      </trkpt>
      <trkpt lat="45.42887" lon="5.51662">
        <ele>480.8</ele>
        <time>2021-02-11T14:16:17Z</time>
      </trkpt>
      <trkpt lat="45.42887" lon="5.51661">
        <ele>494.26</ele>
        <time>2021-02-11T14:16:18Z</time>
      </trkpt>
      <trkpt lat="45.42888" lon="5.5166">
        <ele>481.28</ele>
        <time>2021-02-11T14:16:19Z</time>
      </trkpt>
      <trkpt lat="45.42889" lon="5.51658">
        <ele>493.29</ele>
        <time>2021-02-11T14:16:20Z</time>
      </trkpt>
      <trkpt lat="45.4289" lon="5.51657">
        <ele>481.28</ele>
        <time>2021-02-11T14:16:21Z</time>
      </trkpt>
      <trkpt lat="45.4289" lon="5.51656">
        <ele>493.77</ele>
        <time>2021-02-11T14:16:22Z</time>
      </trkpt>
      <trkpt lat="45.42891" lon="5.51655">
        <ele>488.49</ele>
        <time>2021-02-11T14:16:23Z</time>
      </trkpt>
      <trkpt lat="45.42911" lon="5.51643">
        <ele>494.74</ele>
        <time>2021-02-11T14:16:39Z</time>
      </trkpt>
      <trkpt lat="45.42912" lon="5.51643">
        <ele>489.93</ele>
        <time>2021-02-11T14:16:40Z</time>
      </trkpt>
      <trkpt lat="45.42914" lon="5.51642">
        <ele>488.97</ele>
        <time>2021-02-11T14:16:42Z</time>
      </trkpt>
      <trkpt lat="45.42923" lon="5.51637">
        <ele>488.49</ele>
        <time>2021-02-11T14:16:51Z</time>
      </trkpt>
      <trkpt lat="45.42928" lon="5.51636">
        <ele>488.49</ele>
        <time>2021-02-11T14:16:55Z</time>
      </trkpt>
      <trkpt lat="45.42936" lon="5.51633">
        <ele>488.01</ele>
        <time>2021-02-11T14:17:01Z</time>
      </trkpt>
      <trkpt lat="45.42955" lon="5.51625">
        <ele>488.01</ele>
        <time>2021-02-11T14:17:16Z</time>
      </trkpt>
      <trkpt lat="45.42972" lon="5.51623">
        <ele>488.01</ele>
        <time>2021-02-11T14:17:30Z</time>
      </trkpt>
      <trkpt lat="45.42992" lon="5.51624">
        <ele>488.01</ele>
        <time>2021-02-11T14:17:44Z</time>
      </trkpt>
      <trkpt lat="45.43012" lon="5.51624">
        <ele>488.01</ele>
        <time>2021-02-11T14:17:58Z</time>
      </trkpt>
      <trkpt lat="45.43017" lon="5.51627">
        <ele>488.01</ele>
        <time>2021-02-11T14:18:03Z</time>
      </trkpt>
      <trkpt lat="45.43034" lon="5.51633">
        <ele>488.01</ele>
        <time>2021-02-11T14:18:19Z</time>
      </trkpt>
      <trkpt lat="45.4305" lon="5.5164">
        <ele>488.49</ele>
        <time>2021-02-11T14:18:33Z</time>
      </trkpt>
      <trkpt lat="45.43068" lon="5.51646">
        <ele>488.49</ele>
        <time>2021-02-11T14:18:47Z</time>
      </trkpt>
      <trkpt lat="45.43084" lon="5.51651">
        <ele>488.01</ele>
        <time>2021-02-11T14:18:59Z</time>
      </trkpt>
      <trkpt lat="45.43092" lon="5.51655">
        <ele>480.8</ele>
        <time>2021-02-11T14:19:06Z</time>
      </trkpt>
      <trkpt lat="45.43092" lon="5.51655">
        <ele>490.41</ele>
        <time>2021-02-11T14:19:07Z</time>
      </trkpt>
      <trkpt lat="45.43093" lon="5.51655">
        <ele>483.2</ele>
        <time>2021-02-11T14:19:08Z</time>
      </trkpt>
      <trkpt lat="45.43094" lon="5.51656">
        <ele>494.26</ele>
        <time>2021-02-11T14:19:09Z</time>
      </trkpt>
      <trkpt lat="45.43095" lon="5.51656">
        <ele>489.45</ele>
        <time>2021-02-11T14:19:10Z</time>
      </trkpt>
      <trkpt lat="45.43098" lon="5.51657">
        <ele>488.97</ele>
        <time>2021-02-11T14:19:12Z</time>
      </trkpt>
      <trkpt lat="45.43117" lon="5.51664">
        <ele>488.49</ele>
        <time>2021-02-11T14:19:28Z</time>
      </trkpt>
      <trkpt lat="45.43135" lon="5.51671">
        <ele>488.49</ele>
        <time>2021-02-11T14:19:41Z</time>
      </trkpt>
      <trkpt lat="45.43155" lon="5.51677">
        <ele>488.97</ele>
        <time>2021-02-11T14:19:56Z</time>
      </trkpt>
      <trkpt lat="45.43171" lon="5.51684">
        <ele>488.49</ele>
        <time>2021-02-11T14:20:10Z</time>
      </trkpt>
      <trkpt lat="45.43192" lon="5.51693">
        <ele>488.49</ele>
        <time>2021-02-11T14:20:26Z</time>
      </trkpt>
      <trkpt lat="45.43209" lon="5.51698">
        <ele>488.49</ele>
        <time>2021-02-11T14:20:40Z</time>
      </trkpt>
      <trkpt lat="45.43224" lon="5.51703">
        <ele>488.97</ele>
        <time>2021-02-11T14:20:53Z</time>
      </trkpt>
      <trkpt lat="45.43242" lon="5.51711">
        <ele>488.97</ele>
        <time>2021-02-11T14:21:07Z</time>
      </trkpt>
      <trkpt lat="45.4326" lon="5.51717">
        <ele>488.97</ele>
        <time>2021-02-11T14:21:23Z</time>
      </trkpt>
      <trkpt lat="45.43281" lon="5.51718">
        <ele>489.45</ele>
        <time>2021-02-11T14:21:38Z</time>
      </trkpt>
      <trkpt lat="45.4329" lon="5.51718">
        <ele>489.45</ele>
        <time>2021-02-11T14:21:46Z</time>
      </trkpt>
      <trkpt lat="45.43299" lon="5.51718">
        <ele>479.84</ele>
        <time>2021-02-11T14:21:53Z</time>
      </trkpt>
      <trkpt lat="45.433" lon="5.51717">
        <ele>501.46</ele>
        <time>2021-02-11T14:21:54Z</time>
      </trkpt>
      <trkpt lat="45.433" lon="5.51717">
        <ele>474.55</ele>
        <time>2021-02-11T14:21:55Z</time>
      </trkpt>
      <trkpt lat="45.43301" lon="5.51717">
        <ele>502.91</ele>
        <time>2021-02-11T14:21:56Z</time>
      </trkpt>
      <trkpt lat="45.43302" lon="5.51717">
        <ele>478.39</ele>
        <time>2021-02-11T14:21:57Z</time>
      </trkpt>
      <trkpt lat="45.43302" lon="5.51717">
        <ele>485.6</ele>
        <time>2021-02-11T14:21:58Z</time>
      </trkpt>
      <trkpt lat="45.43302" lon="5.51717">
        <ele>505.31</ele>
        <time>2021-02-11T14:21:59Z</time>
      </trkpt>
      <trkpt lat="45.43302" lon="5.51717">
        <ele>490.41</ele>
        <time>2021-02-11T14:22:00Z</time>
      </trkpt>
      <trkpt lat="45.43302" lon="5.51717">
        <ele>483.68</ele>
        <time>2021-02-11T14:22:03Z</time>
      </trkpt>
      <trkpt lat="45.43302" lon="5.51717">
        <ele>495.22</ele>
        <time>2021-02-11T14:22:04Z</time>
      </trkpt>
      <trkpt lat="45.43302" lon="5.51717">
        <ele>490.41</ele>
        <time>2021-02-11T14:22:05Z</time>
      </trkpt>
      <trkpt lat="45.43303" lon="5.51717">
        <ele>490.89</ele>
        <time>2021-02-11T14:22:07Z</time>
      </trkpt>
      <trkpt lat="45.43311" lon="5.51698">
        <ele>490.89</ele>
        <time>2021-02-11T14:22:20Z</time>
      </trkpt>
      <trkpt lat="45.43314" lon="5.51685">
        <ele>490.89</ele>
        <time>2021-02-11T14:22:27Z</time>
      </trkpt>
      <trkpt lat="45.43312" lon="5.51671">
        <ele>490.89</ele>
        <time>2021-02-11T14:22:38Z</time>
      </trkpt>
      <trkpt lat="45.43309" lon="5.5167">
        <ele>490.89</ele>
        <time>2021-02-11T14:22:41Z</time>
      </trkpt>
      <trkpt lat="45.43304" lon="5.51664">
        <ele>490.89</ele>
        <time>2021-02-11T14:22:53Z</time>
      </trkpt>
      <trkpt lat="45.43282" lon="5.51651">
        <ele>490.89</ele>
        <time>2021-02-11T14:23:10Z</time>
      </trkpt>
      <trkpt lat="45.43266" lon="5.51641">
        <ele>491.37</ele>
        <time>2021-02-11T14:23:25Z</time>
      </trkpt>
      <trkpt lat="45.4326" lon="5.51636">
        <ele>491.37</ele>
        <time>2021-02-11T14:23:31Z</time>
      </trkpt>
      <trkpt lat="45.43241" lon="5.51624">
        <ele>491.37</ele>
        <time>2021-02-11T14:23:49Z</time>
      </trkpt>
      <trkpt lat="45.43224" lon="5.51613">
        <ele>491.37</ele>
        <time>2021-02-11T14:24:03Z</time>
      </trkpt>
      <trkpt lat="45.43222" lon="5.5161">
        <ele>491.37</ele>
        <time>2021-02-11T14:24:06Z</time>
      </trkpt>
      <trkpt lat="45.43215" lon="5.516">
        <ele>491.37</ele>
        <time>2021-02-11T14:24:19Z</time>
      </trkpt>
      <trkpt lat="45.43216" lon="5.51599">
        <ele>491.37</ele>
        <time>2021-02-11T14:24:32Z</time>
      </trkpt>
      <trkpt lat="45.43216" lon="5.516">
        <ele>494.74</ele>
        <time>2021-02-11T14:24:49Z</time>
      </trkpt>
      <trkpt lat="45.43216" lon="5.516">
        <ele>480.8</ele>
        <time>2021-02-11T14:24:50Z</time>
      </trkpt>
      <trkpt lat="45.43216" lon="5.516">
        <ele>503.39</ele>
        <time>2021-02-11T14:24:51Z</time>
      </trkpt>
      <trkpt lat="45.43216" lon="5.516">
        <ele>476.47</ele>
        <time>2021-02-11T14:24:52Z</time>
      </trkpt>
      <trkpt lat="45.43216" lon="5.516">
        <ele>503.39</ele>
        <time>2021-02-11T14:24:53Z</time>
      </trkpt>
    </trkseg>
  </trk>
</gpx>